[[{"header":{"parameterUnit":"m.s-1","parameterCategory":1,"la1":30.6,"la2":29.2853,"lo1":-89.7004,"lo2":-87.6739,"dy":0.0162,"dx":0.0183,"nx":112,"ny":82,"refTime":"2023-04-17T12:00:00:Z","depth":0,"parameterNumber":2,"parameterNumberName":"U-component_of_WINDS"},"data":[0.0,0.0,0.0,0.0,0.0,0.0,0.0,0.0,0.0,0.0,0.0,0.0,0.0,0.0,0.0,0.0,0.0,0.0,0.0,0.0,0.0,0.0,0.0,0.0,0.0,0.0,0.0,0.0,0.0,0.0,0.0,0.0,0.0,0.0,0.0,0.0,0.0,0.0,0.0,0.0,0.0,0.0,0.0,0.0,0.0,0.0,0.0,0.0,0.0,0.0,0.0,0.0,0.0,0.0,0.0,0.0,0.0,0.0,0.0,0.0,0.0,0.0,0.0,0.0,0.0,0.0,0.0,0.0,0.0,0.0,0.0,0.0,0.0,0.0,0.0,0.0,0.0,0.0,0.0,0.0,0.0,0.0,0.0,0.0,0.0,0.0,0.0,0.0,0.0,0.0,0.0,-4.575,-4.7425,-4.7958,-4.6696,-4.6496,-4.4901,-4.1339,0.0,0.0,0.0,0.0,0.0,0.0,0.0,0.0,0.0,0.0,0.0,0.0,0.0,0.0,0.0,0.0,0.0,0.0,0.0,0.0,0.0,0.0,0.0,0.0,0.0,0.0,0.0,0.0,0.0,0.0,0.0,0.0,0.0,0.0,0.0,0.0,0.0,0.0,0.0,0.0,0.0,0.0,0.0,0.0,0.0,0.0,0.0,0.0,0.0,0.0,0.0,0.0,0.0,0.0,0.0,0.0,0.0,0.0,0.0,0.0,0.0,0.0,0.0,0.0,0.0,0.0,0.0,0.0,0.0,0.0,0.0,0.0,0.0,0.0,0.0,0.0,0.0,0.0,0.0,0.0,0.0,0.0,0.0,0.0,0.0,0.0,0.0,0.0,0.0,0.0,0.0,0.0,0.0,0.0,0.0,0.0,0.0,0.0,0.0,0.0,0.0,0.0,0.0,0.0,-4.4353,-4.6276,-4.7238,-4.745,-4.6665,-4.6065,-4.4548,-4.1688,0.0,0.0,0.0,0.0,0.0,0.0,0.0,0.0,0.0,0.0,0.0,0.0,0.0,0.0,0.0,0.0,0.0,0.0,0.0,0.0,0.0,0.0,0.0,0.0,0.0,0.0,0.0,0.0,0.0,0.0,0.0,0.0,0.0,0.0,0.0,0.0,0.0,0.0,0.0,0.0,0.0,0.0,0.0,0.0,0.0,0.0,0.0,0.0,0.0,0.0,0.0,0.0,0.0,0.0,0.0,0.0,0.0,0.0,0.0,0.0,0.0,0.0,0.0,0.0,0.0,0.0,0.0,0.0,0.0,0.0,0.0,0.0,0.0,0.0,0.0,0.0,0.0,0.0,0.0,0.0,0.0,0.0,0.0,0.0,0.0,0.0,0.0,0.0,0.0,0.0,0.0,0.0,0.0,0.0,0.0,0.0,0.0,0.0,0.0,0.0,0.0,0.0,0.0,-4.2999,-4.4359,-4.6381,-4.6865,-4.6927,-4.6619,-4.5972,-4.4449,-4.1771,-4.0889,0.0,0.0,0.0,0.0,0.0,0.0,0.0,0.0,0.0,0.0,0.0,0.0,0.0,0.0,0.0,0.0,0.0,0.0,0.0,0.0,0.0,0.0,0.0,0.0,0.0,0.0,0.0,0.0,0.0,0.0,0.0,0.0,0.0,0.0,0.0,0.0,0.0,0.0,0.0,0.0,0.0,0.0,0.0,0.0,0.0,0.0,0.0,0.0,0.0,0.0,0.0,0.0,0.0,0.0,0.0,0.0,0.0,0.0,0.0,0.0,0.0,0.0,0.0,0.0,0.0,0.0,0.0,0.0,0.0,0.0,0.0,0.0,0.0,0.0,0.0,0.0,0.0,0.0,0.0,0.0,0.0,0.0,0.0,0.0,0.0,0.0,0.0,0.0,0.0,0.0,0.0,0.0,0.0,0.0,0.0,0.0,0.0,0.0,0.0,0.0,0.0,0.0,-4.3377,-4.411,-4.6142,-4.6357,-4.6357,-4.6357,-4.5741,-4.4341,-4.1986,-4.0981,0.0,0.0,0.0,0.0,0.0,0.0,0.0,0.0,0.0,0.0,0.0,0.0,0.0,0.0,0.0,0.0,0.0,0.0,0.0,0.0,0.0,0.0,0.0,0.0,0.0,0.0,0.0,0.0,0.0,0.0,0.0,0.0,0.0,0.0,0.0,0.0,0.0,0.0,0.0,0.0,0.0,0.0,0.0,0.0,0.0,0.0,0.0,0.0,0.0,0.0,0.0,0.0,0.0,0.0,0.0,0.0,0.0,0.0,0.0,0.0,0.0,0.0,0.0,0.0,0.0,0.0,0.0,0.0,0.0,0.0,0.0,0.0,0.0,0.0,0.0,0.0,0.0,0.0,0.0,0.0,0.0,0.0,0.0,0.0,0.0,0.0,0.0,0.0,0.0,0.0,0.0,0.0,0.0,0.0,0.0,0.0,0.0,0.0,0.0,0.0,0.0,0.0,-4.2679,-4.3433,-4.5449,-4.5664,-4.5664,-4.5664,-4.5072,-4.4048,-4.2633,-4.1228,0.0,0.0,0.0,0.0,0.0,0.0,0.0,0.0,0.0,0.0,0.0,0.0,0.0,0.0,0.0,0.0,0.0,0.0,0.0,0.0,0.0,0.0,0.0,0.0,0.0,0.0,0.0,0.0,0.0,0.0,0.0,0.0,0.0,0.0,0.0,0.0,0.0,0.0,0.0,0.0,0.0,0.0,0.0,0.0,0.0,0.0,0.0,0.0,0.0,0.0,0.0,0.0,0.0,0.0,0.0,0.0,0.0,0.0,0.0,0.0,0.0,0.0,0.0,0.0,0.0,0.0,0.0,0.0,0.0,0.0,0.0,0.0,0.0,0.0,0.0,0.0,0.0,0.0,0.0,0.0,0.0,0.0,0.0,0.0,0.0,0.0,0.0,0.0,0.0,0.0,0.0,0.0,0.0,0.0,0.0,0.0,0.0,0.0,0.0,0.0,0.0,0.0,-4.2602,-4.3371,0.0,-4.5218,-4.5126,-4.5541,-4.461,-4.3593,-4.2663,0.0,0.0,0.0,0.0,0.0,0.0,0.0,0.0,0.0,0.0,0.0,0.0,0.0,0.0,0.0,0.0,0.0,0.0,0.0,0.0,0.0,0.0,0.0,0.0,0.0,0.0,0.0,0.0,0.0,0.0,0.0,0.0,0.0,0.0,0.0,0.0,0.0,0.0,0.0,0.0,0.0,0.0,0.0,0.0,0.0,0.0,0.0,0.0,0.0,0.0,0.0,0.0,0.0,0.0,0.0,0.0,0.0,0.0,0.0,0.0,0.0,0.0,0.0,0.0,0.0,0.0,0.0,0.0,0.0,0.0,0.0,0.0,0.0,0.0,0.0,0.0,0.0,0.0,0.0,0.0,0.0,0.0,0.0,0.0,0.0,0.0,0.0,0.0,0.0,0.0,0.0,0.0,0.0,0.0,0.0,0.0,0.0,0.0,0.0,0.0,0.0,0.0,-4.2432,-4.2529,-4.3205,0.0,-4.4811,-4.4603,-4.4849,-4.3797,-4.2824,-4.2216,0.0,0.0,0.0,0.0,0.0,0.0,0.0,0.0,0.0,0.0,0.0,0.0,0.0,0.0,0.0,0.0,0.0,0.0,0.0,0.0,0.0,0.0,0.0,0.0,0.0,0.0,0.0,0.0,0.0,0.0,0.0,0.0,0.0,0.0,0.0,0.0,0.0,0.0,0.0,0.0,0.0,0.0,0.0,0.0,0.0,0.0,0.0,0.0,0.0,0.0,0.0,0.0,0.0,0.0,0.0,0.0,0.0,0.0,0.0,0.0,0.0,0.0,0.0,0.0,0.0,0.0,0.0,0.0,0.0,0.0,0.0,0.0,0.0,0.0,0.0,0.0,0.0,0.0,0.0,0.0,0.0,0.0,0.0,0.0,0.0,0.0,0.0,0.0,0.0,0.0,0.0,0.0,0.0,0.0,0.0,0.0,0.0,0.0,0.0,0.0,0.0,0.0,-4.2396,-4.2404,-4.2895,-4.4433,-4.4435,-4.4006,-4.3334,-4.2491,-4.1821,0.0,0.0,0.0,0.0,0.0,0.0,0.0,0.0,0.0,0.0,0.0,0.0,0.0,0.0,0.0,0.0,0.0,0.0,0.0,0.0,0.0,0.0,0.0,0.0,0.0,0.0,0.0,0.0,0.0,0.0,0.0,0.0,0.0,0.0,0.0,0.0,0.0,0.0,0.0,0.0,0.0,0.0,0.0,0.0,0.0,0.0,0.0,0.0,0.0,0.0,0.0,0.0,0.0,0.0,0.0,0.0,0.0,0.0,0.0,0.0,0.0,0.0,0.0,0.0,0.0,0.0,0.0,0.0,0.0,0.0,0.0,0.0,0.0,0.0,0.0,0.0,0.0,0.0,0.0,0.0,0.0,0.0,0.0,0.0,0.0,0.0,0.0,0.0,0.0,0.0,0.0,0.0,0.0,0.0,0.0,0.0,0.0,0.0,0.0,0.0,0.0,0.0,0.0,-4.2016,-4.2147,-4.2612,-4.4029,-4.4127,-4.383,-4.316,-4.2416,-4.1748,-4.1151,0.0,0.0,0.0,0.0,0.0,0.0,0.0,0.0,0.0,0.0,0.0,0.0,0.0,0.0,0.0,0.0,0.0,0.0,0.0,0.0,0.0,0.0,0.0,0.0,0.0,0.0,0.0,0.0,0.0,0.0,0.0,0.0,0.0,0.0,0.0,0.0,0.0,0.0,0.0,0.0,0.0,0.0,0.0,0.0,0.0,0.0,0.0,0.0,0.0,0.0,0.0,0.0,0.0,0.0,0.0,0.0,0.0,0.0,0.0,0.0,0.0,0.0,0.0,0.0,0.0,0.0,0.0,0.0,0.0,0.0,0.0,0.0,0.0,0.0,0.0,0.0,0.0,0.0,0.0,0.0,0.0,0.0,0.0,0.0,0.0,0.0,0.0,0.0,0.0,0.0,0.0,0.0,0.0,0.0,0.0,0.0,0.0,0.0,0.0,0.0,0.0,0.0,-4.1453,-4.1743,-4.2319,-4.3472,-4.3516,-4.3205,-4.2523,-4.1783,-4.1118,-4.0525,0.0,0.0,0.0,0.0,0.0,0.0,0.0,0.0,0.0,0.0,0.0,0.0,0.0,0.0,0.0,0.0,0.0,0.0,0.0,0.0,0.0,0.0,0.0,0.0,0.0,0.0,0.0,0.0,0.0,0.0,0.0,0.0,0.0,0.0,0.0,0.0,0.0,0.0,0.0,0.0,0.0,0.0,0.0,0.0,0.0,0.0,0.0,0.0,0.0,0.0,0.0,0.0,0.0,0.0,0.0,0.0,0.0,0.0,0.0,0.0,0.0,0.0,0.0,0.0,0.0,0.0,0.0,0.0,0.0,0.0,0.0,0.0,0.0,0.0,0.0,0.0,0.0,0.0,0.0,0.0,0.0,0.0,0.0,0.0,0.0,0.0,0.0,0.0,0.0,0.0,0.0,0.0,0.0,0.0,0.0,0.0,0.0,0.0,0.0,0.0,0.0,0.0,-4.0834,-4.1329,-4.1912,-4.2743,-4.2682,-4.2319,-4.1625,-4.0838,-4.0186,-3.9691,0.0,0.0,0.0,0.0,0.0,0.0,0.0,0.0,0.0,0.0,0.0,0.0,0.0,0.0,0.0,0.0,0.0,0.0,0.0,0.0,0.0,0.0,0.0,0.0,0.0,0.0,0.0,0.0,0.0,0.0,0.0,0.0,0.0,0.0,0.0,0.0,0.0,0.0,0.0,0.0,0.0,0.0,0.0,0.0,0.0,0.0,0.0,0.0,0.0,0.0,0.0,0.0,0.0,0.0,0.0,0.0,0.0,0.0,0.0,0.0,-4.3738,0.0,0.0,0.0,0.0,0.0,0.0,0.0,0.0,0.0,0.0,0.0,0.0,0.0,0.0,0.0,0.0,0.0,0.0,0.0,0.0,0.0,0.0,0.0,0.0,0.0,0.0,0.0,0.0,0.0,0.0,0.0,0.0,0.0,0.0,0.0,0.0,0.0,0.0,0.0,0.0,0.0,-4.0432,-4.0643,-4.0973,-4.1671,-4.1708,-4.14,-4.0725,-4.0524,-4.0113,-3.949,-3.9625,0.0,0.0,0.0,0.0,0.0,0.0,0.0,0.0,0.0,0.0,0.0,0.0,0.0,0.0,0.0,0.0,0.0,0.0,0.0,0.0,0.0,0.0,0.0,0.0,0.0,0.0,0.0,0.0,0.0,0.0,0.0,0.0,0.0,0.0,0.0,0.0,0.0,0.0,0.0,0.0,0.0,0.0,0.0,0.0,0.0,0.0,0.0,0.0,0.0,0.0,0.0,0.0,0.0,0.0,0.0,0.0,0.0,0.0,0.0,0.0,-4.3768,0.0,0.0,0.0,0.0,0.0,0.0,0.0,0.0,0.0,0.0,0.0,0.0,0.0,0.0,0.0,0.0,0.0,0.0,0.0,0.0,0.0,0.0,0.0,0.0,0.0,0.0,0.0,0.0,0.0,0.0,0.0,0.0,0.0,0.0,0.0,0.0,0.0,0.0,0.0,0.0,-3.9888,-4.0202,-4.0531,-4.0876,-4.0905,-4.0771,-4.0427,-4.0113,-3.9783,-3.9403,-3.9481,0.0,0.0,0.0,0.0,0.0,0.0,0.0,0.0,0.0,0.0,0.0,0.0,0.0,0.0,0.0,0.0,0.0,0.0,0.0,0.0,0.0,0.0,0.0,0.0,0.0,0.0,0.0,0.0,0.0,0.0,0.0,0.0,0.0,0.0,0.0,0.0,0.0,0.0,0.0,0.0,0.0,0.0,0.0,0.0,0.0,0.0,0.0,0.0,0.0,0.0,0.0,0.0,0.0,-4.7415,-4.767,-4.7551,-4.7403,-4.7403,-4.7418,-4.5642,-4.4788,-4.4661,0.0,0.0,0.0,0.0,0.0,0.0,0.0,0.0,0.0,0.0,0.0,0.0,0.0,0.0,0.0,0.0,0.0,0.0,0.0,0.0,0.0,0.0,0.0,0.0,0.0,-4.0561,-4.0427,0.0,0.0,0.0,0.0,0.0,0.0,0.0,0.0,0.0,0.0,0.0,0.0,-3.9388,-3.9888,-4.0232,-4.0232,-4.0232,-4.0232,-4.0232,-3.9723,-3.9388,-3.9388,-3.9388,-3.9388,0.0,0.0,0.0,0.0,0.0,0.0,0.0,0.0,0.0,0.0,0.0,0.0,0.0,0.0,0.0,0.0,0.0,0.0,0.0,0.0,0.0,0.0,0.0,0.0,0.0,0.0,0.0,0.0,0.0,0.0,0.0,0.0,-4.5289,-4.5289,0.0,0.0,0.0,0.0,0.0,0.0,0.0,0.0,0.0,0.0,0.0,0.0,0.0,-4.6456,-4.704,-4.8267,-4.8596,-4.8042,-4.9058,-4.9249,-4.8639,-4.7835,-4.7775,-4.8307,-4.7435,0.0,-4.6025,-4.6025,0.0,0.0,0.0,0.0,0.0,0.0,0.0,0.0,0.0,0.0,0.0,0.0,0.0,0.0,0.0,0.0,0.0,0.0,0.0,0.0,0.0,0.0,-4.1392,-4.1265,-4.1287,-4.1235,0.0,-4.0232,-3.9388,-3.9388,0.0,0.0,0.0,0.0,0.0,0.0,0.0,0.0,-3.9388,-3.9499,-3.9508,-3.9508,-3.9508,-3.9508,-3.9508,-3.9433,-3.9388,-3.9388,-3.9388,-3.9388,-3.9388,-3.9388,0.0,0.0,0.0,0.0,0.0,0.0,0.0,0.0,0.0,0.0,0.0,0.0,0.0,0.0,0.0,0.0,0.0,0.0,0.0,0.0,0.0,0.0,0.0,0.0,0.0,0.0,0.0,0.0,0.0,-4.6741,-4.6845,-4.6471,-4.6756,-4.683,0.0,0.0,0.0,0.0,0.0,0.0,0.0,0.0,0.0,-4.7511,-4.7526,-4.7659,-4.7985,-4.892,-4.9247,-4.898,-4.9851,-5.0067,-4.9787,-4.9383,-4.9366,-4.9616,-4.9336,-4.8765,-4.803,-4.6932,-4.6086,-4.5448,0.0,0.0,0.0,0.0,-4.4332,-4.4288,-4.3909,-4.3779,0.0,0.0,0.0,0.0,0.0,0.0,0.0,0.0,0.0,0.0,0.0,0.0,0.0,-4.2028,-4.1846,-4.1665,-4.1459,-4.0935,-4.0412,0.0,-3.9679,-3.9388,-3.9388,0.0,0.0,0.0,0.0,0.0,-3.9388,-3.9388,-3.9388,-3.9388,-3.9388,-3.9388,-3.9388,-3.9388,-3.9388,-3.9388,-3.9388,-3.9388,-3.9388,-3.9388,-3.9388,0.0,0.0,0.0,0.0,0.0,0.0,0.0,0.0,0.0,0.0,0.0,0.0,0.0,0.0,0.0,0.0,0.0,0.0,0.0,0.0,0.0,0.0,0.0,0.0,0.0,0.0,0.0,0.0,-4.7878,-4.8042,-4.7384,-4.7983,-4.8118,0.0,0.0,0.0,0.0,0.0,0.0,-4.7758,-4.8214,-4.8599,-4.8761,-4.8761,-4.8923,-4.9262,-4.9734,-5.0058,-5.025,-5.0703,-5.089,-5.089,-5.0793,-5.0793,-5.0793,-5.0617,-5.0264,-4.9662,-4.8023,-4.686,-4.6035,-4.5519,-4.5268,-4.5091,-4.4843,-4.4785,-4.477,-4.4508,-4.4464,-4.4391,-4.3936,0.0,-4.374,-4.3063,0.0,0.0,0.0,0.0,-4.2915,-4.2915,-4.2915,-4.2837,-4.2559,-4.2322,-4.2095,-4.179,-4.159,-4.1315,0.0,-4.0113,-3.9664,-3.9664,0.0,0.0,0.0,0.0,-3.9388,-3.9388,-3.9388,-3.9388,-3.9388,-3.9388,-3.9388,-3.9388,-3.9388,-3.9388,-3.9388,-3.9388,-3.9388,-3.9388,-3.9388,-3.9388,-3.9388,0.0,0.0,0.0,0.0,0.0,0.0,0.0,0.0,0.0,0.0,0.0,0.0,0.0,0.0,0.0,0.0,0.0,0.0,0.0,0.0,0.0,0.0,0.0,0.0,0.0,0.0,0.0,0.0,0.0,-4.7384,-4.8224,0.0,0.0,0.0,0.0,-4.7507,-4.8098,-4.8466,-4.8466,-4.845,-4.8805,-4.941,-4.9439,-5.0029,-5.1252,-5.1297,-5.1636,-5.2269,-5.205,-5.19,-5.1915,-5.1664,-5.1527,-5.1483,-5.0938,-5.0662,-5.0566,-4.9706,-4.8599,-4.7404,-4.7375,-4.6992,-4.6373,-4.5581,-4.5259,-4.5171,-4.4327,-4.4037,-4.4037,-4.3993,-4.4093,-4.4133,-4.3489,-4.3439,0.0,0.0,-4.2688,-4.2729,-4.2729,-4.2729,-4.2729,-4.2684,-4.2684,-4.267,-4.264,-4.2153,-4.1597,0.0,-4.0801,-4.0352,-4.0352,0.0,-3.9388,-3.9388,-3.9388,-3.9388,-3.9388,-3.9388,-3.9388,-3.9388,-3.9388,-3.9388,-3.9388,-3.9388,-3.9388,-3.9388,-3.9388,-3.9388,-3.9388,-3.9388,-3.9388,-3.9388,-3.9388,0.0,0.0,0.0,0.0,0.0,0.0,0.0,0.0,0.0,0.0,0.0,0.0,0.0,0.0,0.0,0.0,0.0,0.0,0.0,0.0,0.0,0.0,0.0,0.0,0.0,0.0,0.0,0.0,-4.874,-4.9387,0.0,-4.8647,-4.8542,-4.833,-4.7896,-4.8497,-4.9007,-4.926,-4.9698,-5.0223,-5.0816,-5.0831,-5.105,-5.1502,-5.1516,-5.1633,-5.1866,-5.1765,-5.1765,-5.1765,-5.1614,-5.1396,-5.1004,-5.0772,-5.0487,-5.0037,-4.9766,-4.9114,-4.8235,-4.7826,-4.7581,-4.7347,-4.7022,-4.6641,-4.6203,-4.5895,-4.5547,-4.514,-4.4705,-4.4342,-4.4065,-4.3832,-4.3816,-4.3755,-4.3084,-4.3284,-4.3644,-4.3192,-4.3089,-4.3116,-4.3296,-4.2931,-4.2541,-4.2648,-4.2511,-4.2315,-4.2253,-4.1504,-4.0889,-4.1025,-4.0846,-4.0681,-4.0681,-4.0681,-4.0681,-4.0681,-4.0681,-4.0681,-4.0681,-4.0307,-4.0053,-4.0053,-3.9664,-3.9388,-3.9388,-3.9388,-3.9388,-3.9388,-3.9388,-3.9388,-3.9388,-3.9388,-3.9388,0.0,0.0,0.0,0.0,0.0,0.0,0.0,0.0,0.0,0.0,0.0,0.0,0.0,0.0,0.0,0.0,0.0,0.0,0.0,0.0,0.0,0.0,0.0,0.0,0.0,0.0,-4.9861,-4.9557,-5.0361,-5.0621,-4.9783,-4.96,-4.9403,-4.8993,-4.9591,-5.0048,-5.0307,-5.0757,-5.1193,-5.1614,-5.1614,-5.173,-5.1947,-5.1947,-5.2049,-5.2252,-5.2252,-5.2252,-5.2252,-5.2252,-5.1904,-5.1345,-5.1091,-5.0627,-5.0002,-4.9819,-4.9422,-4.8986,-4.8348,-4.797,-4.7753,-4.755,-4.7201,-4.6749,-4.6592,-4.6229,-4.5808,-4.5358,-4.4951,-4.4589,-4.4356,-4.4284,-4.4153,-4.3515,-4.3759,-4.4092,-4.3669,-4.3553,-4.3595,-4.3778,-4.3357,-4.2967,-4.3119,-4.3145,-4.316,-4.3228,-4.2168,-4.1329,-4.1483,-4.129,-4.1179,-4.127,-4.1308,-4.1308,-4.1384,-4.1422,-4.1422,-4.1422,-4.0995,-4.0726,-4.0726,-4.0127,-3.9717,-3.9629,-3.9508,-3.9373,-3.9301,-3.9337,-3.9388,-3.9388,-3.9388,-3.9388,-3.9388,0.0,0.0,0.0,0.0,0.0,0.0,0.0,0.0,0.0,0.0,0.0,0.0,0.0,0.0,0.0,0.0,0.0,0.0,0.0,0.0,0.0,0.0,0.0,-4.7802,-4.9289,-5.0276,-4.9702,-5.1097,-5.1593,-5.0364,-5.1096,-5.1396,-5.0786,-5.128,-5.1628,-5.1643,-5.1643,-5.1657,-5.1672,-5.1672,-5.1976,-5.2638,-5.2652,-5.2905,-5.3515,-5.3515,-5.3515,-5.3515,-5.3486,-5.3138,-5.2499,-5.186,-5.1236,-5.0598,-4.9993,-4.9717,-4.9611,-4.9001,-4.8377,-4.7767,-4.7143,-4.6865,-4.6749,-4.6171,-4.5938,-4.5924,-4.5924,-4.5909,-4.5764,-4.5111,-4.4922,-4.4792,-4.4197,-4.4037,-4.4037,-4.4023,-4.4023,-4.4023,-4.4023,-4.4008,-4.3993,-4.3993,-4.3993,-4.4065,-4.4265,-4.2952,-4.1764,-4.1749,-4.1219,-4.087,-4.1116,-4.1169,0.0,-4.1406,-4.1444,-4.1444,-4.1444,-4.1429,-4.1414,-4.1414,-4.0786,-4.0323,-4.0107,-3.9659,-3.9301,-3.9104,-3.9265,-3.9388,-3.9388,-3.9388,-3.9388,-3.9388,0.0,0.0,0.0,0.0,0.0,0.0,0.0,0.0,0.0,0.0,0.0,0.0,0.0,0.0,0.0,0.0,0.0,0.0,0.0,0.0,0.0,0.0,-4.9963,-5.0017,-5.1277,-5.2266,-5.2384,-5.3265,-5.3678,-5.3329,-5.271,-5.2238,-5.2115,-5.1788,-5.1817,-5.2281,-5.231,-5.2528,-5.2978,-5.2992,-5.308,-5.3254,-5.3254,-5.3341,-5.3515,-5.3515,-5.3515,-5.35,-5.3036,-5.2484,-5.1846,-5.1207,-5.0569,-4.9979,-4.9805,-4.9717,-4.9654,-4.948,-4.9306,-4.918,-4.8957,-4.8609,-4.8068,-4.7477,-4.6954,-4.6563,-4.6563,-4.6258,-4.5851,-4.5663,-4.5619,-4.5474,-4.4821,-4.4995,-4.5256,-4.4763,-4.4632,-4.4632,-4.4632,-4.4313,-4.3993,-4.3993,-4.3993,-4.4037,-4.4065,-4.3686,-4.3345,-4.3166,-4.26,-4.2172,-4.2252,-4.2396,0.0,-4.2357,-4.2594,-4.2712,-4.2579,-4.2294,-4.2049,-4.1826,-4.0799,-4.0085,-3.9912,-3.9313,-3.8943,-3.887,-3.8943,-3.9017,-3.9177,-3.9031,-3.9104,0.0,0.0,0.0,0.0,0.0,0.0,0.0,0.0,0.0,0.0,0.0,0.0,0.0,0.0,0.0,0.0,0.0,0.0,0.0,0.0,0.0,0.0,-5.0799,-5.1714,-5.2384,-5.2865,-5.3352,-5.3863,-5.4502,-5.4894,-5.4894,-5.4212,-5.366,-5.3399,-5.3051,-5.2862,-5.2963,-5.2963,-5.3138,-5.35,-5.3515,-5.3515,-5.3515,-5.3515,-5.3515,-5.3515,-5.3239,-5.3109,-5.3094,-5.247,-5.1831,0.0,-5.083,-5.0293,-4.9717,-4.9717,-4.9717,0.0,0.0,0.0,0.0,0.0,-4.887,-4.8275,-4.7912,-4.7535,-4.723,-4.723,-4.6983,-4.6679,-4.6679,-4.649,-4.62,-4.5808,-4.5779,-4.5793,-4.5401,-4.53,-4.53,-4.53,-4.5039,-4.4792,-4.4792,-4.4792,-4.4792,-4.4792,0.0,0.0,-4.422,-4.3663,-4.3265,-4.3348,-4.3222,-4.3127,-4.3116,-4.3068,-4.301,-4.289,-4.2669,-4.2446,-4.2312,-4.1379,0.0,0.0,0.0,-3.9077,-3.8797,-3.8782,0.0,0.0,0.0,-3.8907,-3.9141,0.0,0.0,0.0,-3.9158,-3.897,0.0,0.0,0.0,0.0,0.0,0.0,0.0,0.0,0.0,0.0,0.0,0.0,0.0,0.0,0.0,0.0,-5.2673,-5.366,-5.4415,-5.4067,-5.3979,-5.4647,-5.5257,-5.562,-5.562,-5.5489,-5.5184,-5.4662,-5.4487,-5.4139,-5.3544,0.0,0.0,0.0,0.0,-5.3515,-5.3515,-5.3515,-5.3486,-5.3399,-5.2847,-5.258,-5.2441,-5.1802,-5.1207,-5.072,-5.0598,-5.027,-4.9717,-4.9717,-4.9717,-4.9717,-4.9717,-4.9717,-4.9611,-4.9045,-4.8478,-4.7985,-4.7985,0.0,0.0,-4.7883,-4.784,-4.7782,-4.7782,-4.739,-4.6894,-4.6894,-4.6475,-4.5996,-4.5996,-4.5938,-4.588,-4.588,-4.588,-4.588,-4.588,-4.588,-4.588,-4.588,-4.5401,-4.4995,-4.4995,-4.4443,-4.4065,-4.4223,-4.3769,-4.3502,-4.3684,-4.3178,-4.2806,-4.2765,0.0,0.0,-4.2648,-4.2059,-4.1361,-4.0622,-4.0059,-3.9459,-3.8892,-3.8752,-3.8745,-3.876,-3.8745,-3.8745,-3.8782,-3.8797,-3.8797,-3.8819,-3.9177,-3.9337,0.0,0.0,0.0,0.0,0.0,0.0,0.0,0.0,0.0,0.0,0.0,0.0,0.0,0.0,0.0,-5.2194,-5.2586,-5.3167,-5.4357,-5.4821,-5.5286,-5.5968,-5.6578,-5.694,-5.694,-5.6012,-5.5358,-5.5242,-5.4284,-5.3646,-5.353,-5.3515,0.0,-5.3515,-5.3515,-5.3515,-5.3515,-5.3515,-5.3268,-5.2746,0.0,0.0,-5.1773,-5.1149,-5.0786,-5.0691,-5.0104,-4.9799,-4.9717,-4.9717,-4.9717,-4.9717,-4.9717,-4.9717,-4.9654,-4.9538,-4.9407,-4.9306,-4.9306,-4.8972,-4.8551,-4.8551,-4.8203,-4.7782,-4.7782,-4.7695,0.0,-4.7608,-4.7143,-4.665,-4.665,-4.6258,-4.588,-4.588,-4.588,-4.588,-4.588,-4.588,-4.588,-4.588,-4.5779,-4.5692,-4.5692,-4.4748,-4.4037,-4.4065,-4.4078,-4.4075,-4.3976,-4.3703,-4.3416,-4.3209,-4.289,-4.2607,-4.2459,-4.1858,-4.1313,-4.0997,-3.9906,-3.9261,-3.913,-3.8591,-3.8389,-3.8553,-3.8389,-3.8501,-3.8782,-3.8664,-3.8649,-3.8782,-3.887,-3.8907,0.0,0.0,0.0,0.0,0.0,0.0,0.0,0.0,0.0,0.0,0.0,-5.0743,0.0,0.0,-5.1882,-5.2521,-5.337,-5.411,-5.4458,-5.5315,-5.591,-5.591,-5.6461,-5.6723,-5.6389,-5.5779,-5.5286,-5.4981,-5.4371,-5.3863,-5.353,-5.3515,-5.3515,-5.3515,-5.3515,-5.3515,-5.3515,-5.3196,-5.2891,-5.2609,-5.1969,-5.1454,-5.112,-5.0467,-5.0226,-5.0197,-4.9877,-4.9717,-4.9717,-4.9717,-4.9717,-4.9717,-4.9717,-4.9717,-4.9717,-4.9717,-4.9717,-4.9717,-4.9717,-4.9465,-4.9146,-4.8827,-4.8522,-4.8188,-4.7869,-4.7564,-4.7303,-4.7303,-4.6853,-4.6359,-4.6359,-4.6127,-4.588,-4.588,-4.588,-4.588,-4.588,-4.588,-4.588,-4.588,-4.588,-4.588,-4.588,-4.5358,-4.4937,-4.4937,-4.4734,-4.456,-4.4473,-4.4107,-4.3812,-4.367,-4.3157,-4.2804,-4.2694,-4.1805,-4.1211,-4.1091,-4.0191,-3.9509,-3.9218,-3.8884,-3.8588,-3.8366,-3.824,-3.8315,-3.8501,-3.8389,-3.8389,-3.8501,-3.8501,-3.8598,0.0,0.0,0.0,0.0,0.0,0.0,0.0,0.0,-5.0888,-5.1019,-5.1352,-5.1701,-5.1947,-5.231,-5.2667,-5.2731,-5.4038,-5.4865,-5.4386,-5.5315,-5.5794,-5.5126,-5.5736,-5.5997,-5.546,-5.53,-5.5039,-5.4546,-5.4386,-5.4081,-5.3544,-5.3515,-5.3515,-5.3515,-5.3515,-5.3457,-5.3341,-5.2818,-5.2507,-5.2245,-5.1214,-5.0612,-5.0516,-4.9964,-4.9717,-4.9717,-4.9717,-4.9717,-4.9717,-4.9717,-4.9717,-4.9717,-4.9717,-4.9717,-4.9717,-4.9717,-4.9717,-4.9717,-4.9717,-4.9717,-4.9582,-4.8817,-4.8635,-4.8576,-4.7864,-4.7366,-4.6966,-4.6966,-4.6563,-4.6069,-4.6069,-4.5982,-4.588,-4.588,-4.588,-4.588,-4.588,-4.588,-4.588,-4.588,-4.588,-4.588,-4.588,-4.588,-4.588,-4.588,-4.543,-4.5082,-4.5082,-4.4545,-4.4168,-4.4168,-4.3587,-4.3137,-4.3007,-4.1947,-4.1279,-4.1279,-4.067,-4.0075,-3.9596,-3.945,-3.9073,-3.8405,-3.8391,-3.8333,-3.8202,-3.8202,-3.8202,-3.8202,-3.8202,-3.8389,-4.9906,-4.9717,-4.9717,-4.9717,-5.0168,-5.0618,0.0,0.0,-5.1672,-5.2238,-5.1962,-5.1962,-5.3094,-5.2905,-5.276,-5.3312,-5.3588,-5.3704,-5.3631,-5.4255,-5.4473,-5.3805,-5.4792,-5.5489,-5.5416,-5.4923,-5.4589,-5.4517,-5.3965,-5.3588,-5.3515,-5.3515,-5.3515,-5.3515,-5.3515,-5.3239,-5.2688,-5.2652,-5.2057,-5.0888,-5.0793,-5.0415,-4.9785,-4.9712,-4.9717,-4.9717,-4.9717,-4.9717,-4.9717,-4.9717,-4.9717,-4.9717,-4.9717,-4.9717,-4.9717,-4.9717,-4.9717,-4.9717,-4.9717,-4.9717,-4.9508,-4.8403,-4.8366,-4.8519,-4.7482,-4.7429,-4.768,-4.768,-4.7216,-4.6676,-4.6676,-4.6301,-4.588,-4.588,-4.588,-4.588,-4.588,-4.588,-4.588,-4.588,-4.588,-4.588,-4.588,-4.588,-4.588,-4.588,-4.5822,-4.5779,-4.5779,-4.5198,-4.4792,-4.4792,-4.424,-4.3645,-4.305,-4.2382,-4.199,-4.199,-4.1352,-4.096,-4.0887,-4.0321,-3.9712,-3.9102,-3.9088,-3.8797,-3.8202,-3.8202,-3.8202,-3.8202,-3.8202,-3.824,-4.9906,-4.9959,-5.0299,-5.0299,-5.0743,-5.1222,-5.1222,-5.1715,-5.2252,-5.2565,-5.2659,-5.2876,-5.3413,-5.3297,-5.321,0.0,-5.3834,-5.3965,-5.3573,-5.4096,-5.4125,-5.3094,-5.3442,-5.3892,-5.427,-5.4081,-5.3936,-5.3936,-5.3675,-5.3515,-5.3515,-5.3515,-5.3515,-5.3515,-5.3515,-5.321,-5.2638,-5.2194,-5.157,-5.072,-5.0328,-4.9993,-4.9717,-4.9717,-4.9717,-4.9717,-4.9717,-4.9717,-4.9717,-4.9717,-4.9717,-4.9717,-4.9717,-4.9717,-4.962,-4.8951,-4.9114,-4.9562,-4.8536,-4.8617,-4.8905,-4.7707,-4.7052,-4.6671,-4.6457,-4.6095,-4.5867,-4.6526,-4.649,-4.6287,-4.6287,-4.6084,-4.588,-4.588,-4.588,-4.588,-4.588,-4.588,-4.588,-4.588,-4.588,-4.588,-4.588,-4.588,-4.588,-4.588,-4.588,-4.588,-4.588,-4.5648,-4.5314,-4.4922,-4.4661,-4.4255,-4.3631,-4.2992,-4.2615,-4.2615,-4.2034,-4.1512,-4.112,-4.0452,-3.9813,-3.9218,-3.8826,-3.8478,-3.8202,-3.8202,-3.8202,-3.8202,-3.8202,-3.8202,-5.0081,-5.0307,-5.0714,-5.0902,-5.141,-5.1889,-5.1889,-5.2368,-5.2891,-5.3065,-5.3326,-5.3573,-5.3762,-5.3631,-5.3515,-5.3515,-5.3921,-5.4067,-5.3588,-5.3936,-5.382,-5.2754,-5.2623,-5.2673,-5.2963,-5.3152,-5.3326,-5.35,-5.3515,-5.3515,-5.3515,-5.3515,-5.3515,-5.3515,-5.3515,-5.321,-5.2638,-5.2107,-5.1556,-5.0931,-5.0452,-5.0119,-4.9993,-4.9756,-4.9717,-4.9717,-4.9717,-4.9717,-4.9717,-4.9717,-4.9717,-4.9717,-4.9717,-4.9717,-4.9571,-4.8438,-4.8539,-4.9042,-4.7765,-4.7758,-4.8057,-4.6805,-4.6087,-4.5718,-4.5709,-4.5238,-4.4897,-4.5685,-4.588,-4.588,-4.588,-4.588,-4.588,-4.588,-4.588,-4.588,-4.588,-4.588,-4.588,-4.588,-4.588,-4.588,-4.588,-4.588,-4.588,-4.588,-4.588,-4.588,-4.588,-4.588,-4.5692,-4.5213,-4.4995,-4.4705,-4.4269,-4.3645,-4.3195,-4.3007,-4.2586,-4.2049,-4.1395,-4.0902,-4.0263,-3.9465,-3.8971,-3.8551,-3.8202,-3.8202,-3.8202,-3.8202,-3.8202,-3.8202,-5.0531,-5.0656,-5.0815,-5.1439,-5.2078,-5.2594,-5.2594,-5.3036,-5.3675,-5.4313,-5.395,-5.3718,-5.4357,-5.395,-5.3515,-5.3515,-5.353,-5.353,-5.3515,-5.353,-5.3297,-5.2696,-5.2623,-5.2325,0.0,-5.2238,-5.2847,-5.3471,-5.3515,-5.3515,-5.3515,-5.3515,-5.3515,-5.3515,-5.3515,-5.321,-5.2638,-5.2594,-5.2223,-5.1585,-5.157,-5.1236,-5.0676,-5.0023,-4.9717,-4.9717,-4.9717,-4.9717,-4.9717,-4.9717,-4.9717,-4.9717,-4.9717,-4.9717,-4.9571,-4.8438,-4.8021,-4.8021,-4.8007,-4.76,-4.6945,-4.5805,-4.6028,-4.6579,-4.5539,-4.5502,-4.5835,-4.588,-4.588,-4.588,-4.588,-4.588,-4.588,-4.588,-4.588,-4.588,-4.588,-4.588,-4.588,-4.588,-4.588,-4.588,-4.588,-4.588,-4.588,-4.588,-4.588,-4.588,-4.588,-4.588,-4.588,-4.5851,-4.5271,-4.4879,-4.4864,-4.4313,-4.3674,-4.3036,-4.2977,-4.2687,-4.2092,-4.2049,-4.1424,-4.0104,-4.0046,-3.9421,-3.8202,-3.8202,-3.8202,-3.8202,-3.8202,-3.8202,-5.0662,-5.1345,-5.2078,-5.2717,-5.3036,-5.3312,-5.3762,-5.3675,-5.3573,-5.3805,-5.3341,-5.2949,-5.3181,-5.3036,-5.2891,-5.2891,-5.3239,-5.3515,-5.3515,-5.3515,-5.3123,-5.2064,-5.1947,0.0,0.0,0.0,0.0,-5.2833,-5.2891,-5.308,-5.3486,-5.3515,-5.3515,-5.3515,-5.3515,-5.321,-5.2638,-5.2623,-5.2252,-5.1614,-5.1614,-5.128,-5.072,-5.0487,-5.009,-4.9717,-4.9717,-4.9717,-4.9717,-4.9717,-4.9262,-4.8589,-4.8589,-4.8108,-4.7383,-4.7009,-4.6607,-4.6209,-4.5862,-4.5587,-4.5335,-4.4816,-4.4434,-4.4352,-4.5331,-4.5086,-4.4419,-4.4733,-4.5117,-4.5344,-4.4965,-4.5654,-4.6519,-4.6519,-4.6519,-4.6519,-4.6519,-4.6519,-4.6388,-4.5967,-4.6563,-4.6882,-4.604,-4.6229,-4.6374,-4.5953,-4.588,-4.588,-4.588,-4.588,-4.588,-4.588,-4.5692,-4.5547,-4.5547,-4.4951,-4.4487,-4.4255,-4.3456,-4.2905,-4.2702,-4.1874,-4.1221,-4.0771,-4.0321,-3.9886,-3.9465,-3.9059,-3.887,-3.8855,-3.8405,-3.8202,-5.1512,-5.2281,-5.3109,-5.3979,-5.4197,-5.4255,-5.4473,-5.4183,-5.3747,-5.3268,-5.2847,-5.2551,-5.2267,-5.2223,-5.2223,-5.2223,-5.2572,-5.292,-5.3138,-5.3181,-5.2876,-5.2049,-5.1962,-5.1715,0.0,0.0,0.0,-5.218,-5.2644,-5.2992,-5.3167,-5.3384,-5.3515,-5.3515,-5.3515,-5.3312,-5.292,-5.2905,-5.2702,-5.2296,-5.2064,-5.1628,-5.1004,-5.0786,-5.0095,-4.91,-4.91,-4.91,-4.91,-4.91,-4.8639,-4.8021,-4.8021,-4.728,-4.6281,-4.6281,-4.5828,-4.5059,-4.4521,-4.4293,-4.4171,-4.369,-4.3197,-4.3129,-4.4805,-4.4419,-4.3462,-4.4129,-4.4324,-4.4413,-4.4611,-4.5444,-4.6347,-4.6686,-4.6532,-4.6347,-4.6732,-4.6532,-4.6336,-4.6546,-4.7216,-4.7521,-4.6708,-4.6708,-4.6621,-4.5982,-4.588,-4.588,-4.588,-4.588,-4.588,-4.588,-4.588,-4.588,-4.588,-4.5488,-4.514,-4.4908,-4.4124,-4.3456,-4.3007,-4.2208,-4.1555,-4.1105,-4.067,-4.0336,-4.0104,-3.9494,-3.9204,-3.9189,-3.8507,-3.8202,-5.3022,-5.3544,-5.3863,-5.5097,-5.5387,-5.5213,-5.4647,-5.4458,-5.4067,-5.2833,-5.2565,-5.2296,0.0,0.0,-5.1585,-5.1614,-5.1643,-5.1889,-5.2528,-5.2667,-5.2652,0.0,0.0,0.0,0.0,0.0,0.0,-5.1585,0.0,-5.3152,-5.2696,-5.3152,-5.3486,-5.3515,-5.3515,-5.3515,-5.3515,-5.3515,-5.3515,-5.35,-5.2905,-5.2281,-5.1643,-5.1004,-4.9789,-4.8128,-4.8086,-4.8072,-4.8021,-4.8021,-4.792,-4.7819,-4.7869,-4.7177,-4.6123,-4.6228,-4.5529,-4.4552,-4.3924,-4.362,-4.3318,-4.2438,-4.2379,-4.2937,-4.3923,-4.3525,-4.2978,-4.389,-4.3505,-4.3155,-4.4731,-4.5276,-4.5618,-4.6587,-4.6105,-4.5666,-4.6633,-4.5997,-4.5774,-4.7416,-4.7782,-4.7796,-4.7825,-4.7274,-4.6635,-4.6026,-4.5909,-4.588,-4.588,-4.588,-4.588,-4.588,-4.588,-4.588,-4.588,-4.588,-4.5619,-4.498,-4.4908,-4.4342,-4.3137,-4.3021,-4.2426,-4.1221,-4.1163,-4.0829,-4.0191,-3.9596,-3.9276,-3.9233,-3.8565,-3.8231,-5.3254,-5.3878,-5.4444,-5.5213,-5.5068,-5.4705,-5.4546,-5.3762,-5.2963,-5.2696,-5.1868,-5.1106,0.0,0.0,0.0,-5.1541,-5.202,0.0,-5.3181,-5.3268,0.0,-5.2667,0.0,-5.2325,-5.1686,-5.1904,0.0,0.0,-5.1483,-5.1947,-5.321,-5.2978,-5.3036,-5.35,-5.3515,-5.3515,-5.3515,-5.3515,-5.3515,-5.3515,-5.3341,-5.2949,-5.231,-5.1672,-5.0868,-4.9968,-4.9478,-4.8802,-4.8021,-4.8021,-4.7036,-4.5622,-4.6438,-4.5555,-4.392,-4.4778,-4.461,-4.3815,-4.2933,-4.2315,-4.1995,-4.2482,-4.2181,-4.1802,-4.2875,-4.2762,-4.2248,-4.202,-4.2401,-4.2871,-4.2884,-4.4751,-4.6694,-4.6938,-4.6841,-4.6694,-4.6987,-4.6172,-4.5613,-4.6355,-4.7219,-4.7927,-4.8406,-4.7564,-4.6734,-4.6606,-4.6185,-4.588,-4.588,-4.588,-4.588,-4.588,-4.588,-4.588,-4.588,-4.588,-4.5808,-4.5648,-4.5169,-4.4734,-4.4414,-4.3485,-4.2832,-4.2513,-4.2063,-4.1758,-4.1584,-4.0931,-4.0365,-3.9857,-3.9233,-3.8681,-5.4458,-5.5068,-5.5489,-5.6084,-5.5794,-5.5199,-5.4647,-5.3718,-5.2746,-5.1969,-5.1228,-5.0583,-5.0342,-5.0235,0.0,0.0,0.0,0.0,-5.2978,-5.3109,-5.308,0.0,-5.2978,0.0,-5.2484,-5.2528,-5.2543,0.0,-5.2122,-5.2267,-5.3051,-5.3036,-5.3152,-5.35,-5.3515,-5.3515,-5.3515,-5.3515,-5.3515,-5.3515,-5.3515,-5.276,-5.1408,-5.1555,-5.0572,-4.8731,0.0,-4.7841,-4.7229,-4.6764,-4.582,-4.4778,-4.5342,-4.4507,-4.3085,-4.3725,-4.374,-4.3323,-4.2971,-4.2366,-4.1758,-4.2034,-4.158,-4.1067,-4.2163,-4.1999,-4.1454,-4.1564,-4.1867,-4.229,-4.271,-4.4233,-4.5911,-4.6845,-4.638,-4.5911,-4.6895,-4.5809,-4.5153,-4.662,-4.7844,-4.8638,-4.8711,-4.7736,-4.6885,-4.6819,-4.6091,-4.5669,-4.5864,-4.588,-4.588,-4.588,-4.588,-4.588,-4.588,-4.588,-4.588,-4.588,-4.5532,-4.5198,-4.4893,-4.395,-4.3297,-4.3007,-4.2397,-4.2092,-4.2092,-4.1424,-4.0902,-4.0525,-3.9886,-3.9392,-5.591,-5.6403,-5.6505,-5.694,-5.6592,-5.5823,-5.4546,-5.3675,-5.2673,-5.1019,0.0,-5.0415,-4.9785,-4.9717,-4.9964,-5.0685,0.0,-5.1149,-5.2499,-5.2667,-5.2804,-5.3442,-5.3515,-5.3515,-5.3515,-5.3022,-5.292,-5.3471,-5.3515,-5.3268,-5.2731,-5.3138,-5.3323,-5.3275,-5.329,-5.317,-5.3011,-5.317,-5.329,-5.329,-5.329,-5.222,-5.0303,-5.0884,-4.9502,-4.6651,0.0,0.0,-4.6018,-4.5088,-4.4629,-4.4466,-4.4629,-4.3987,-4.303,-4.3197,-4.3141,-4.3066,-4.3488,-4.3051,-4.2213,-4.1692,-4.1122,-4.0772,-4.1737,-4.1322,-4.0772,-4.1737,-4.1731,-4.1758,-4.3198,-4.374,-4.4415,-4.6353,-4.5302,-4.448,-4.6353,-4.525,-4.4666,-4.7285,-4.8688,-4.93,-4.8687,-4.7771,-4.7052,-4.6857,-4.5917,-4.5416,-4.5933,-4.5938,-4.588,-4.588,-4.588,-4.588,-4.588,-4.588,-4.588,-4.588,-4.588,-4.5634,-4.5039,-4.4429,-4.3834,-4.3253,-4.2571,-4.2223,-4.2208,-4.1555,-4.1192,-4.1091,-4.0495,-4.0191,-5.6026,-5.6403,-5.6302,-5.5852,-5.5286,-5.4502,-5.3196,-5.2006,0.0,0.0,-5.0284,-4.9863,-4.9698,-4.9717,-5.0061,-5.1251,-5.1019,-5.1294,-5.3094,-5.2891,-5.2804,0.0,-5.3515,0.0,0.0,0.0,0.0,0.0,0.0,-5.3457,-5.3355,-5.2963,-5.2516,-5.2014,-5.2028,-5.1525,-5.0531,-5.1525,-5.2028,-5.2028,-5.2028,-5.2035,-5.2044,-4.9755,-4.8639,-4.8429,0.0,0.0,-4.494,-4.4778,-4.4139,-4.3406,-4.4302,-4.3987,-4.3141,-4.4042,-4.3835,-4.3017,-4.3083,-4.299,-4.2826,-4.265,-4.1934,-4.1191,-4.1405,-4.1298,-4.1191,-4.1405,-4.1742,-4.2087,-4.2381,-4.3486,-4.4634,-4.5049,-4.4835,-4.4634,-4.5049,-4.4835,-4.4969,-4.6306,-4.755,-4.8245,-4.8132,-4.7545,-4.7087,-4.7073,-4.5976,-4.5525,-4.6541,-4.6214,-4.588,-4.588,-4.588,-4.588,-4.588,-4.588,-4.588,-4.588,-4.588,-4.5837,-4.5721,-4.5082,-4.4676,-4.456,-4.3427,-4.2832,-4.2832,-4.2223,-4.1642,-4.1091,-4.0974,-4.0626,-5.6534,-5.6882,-5.6723,-5.6084,-5.5213,-5.4168,-5.2862,0.0,0.0,0.0,-4.9901,-4.9717,-4.9717,-4.9717,-4.9886,-5.0511,-5.0365,-5.0612,-5.186,-5.2064,-5.231,-5.2949,-5.3312,0.0,0.0,0.0,0.0,0.0,0.0,-5.3515,-5.3515,-5.2656,-5.2014,-5.1729,-5.1072,-5.0462,-4.9915,-5.0462,-5.074,-5.074,-5.074,-5.0271,-4.9361,-4.8504,-4.7608,-4.6701,-4.5835,0.0,-4.467,-4.4042,-4.3517,-4.303,-4.3615,-4.3462,-4.3085,-4.3615,-4.3462,-4.2974,-4.2974,-4.2974,-4.2997,-4.2936,-4.2417,-4.1769,-4.1769,-4.1769,-4.1769,-4.1769,-4.2158,-4.264,-4.264,-4.3203,-4.3987,-4.4574,-4.4683,-4.452,-4.3932,-4.4302,-4.4832,-4.5342,-4.6347,-4.7126,-4.7126,-4.6428,-4.5921,-4.6169,-4.542,-4.5073,-4.5846,-4.5938,-4.588,-4.588,-4.588,-4.588,-4.588,-4.588,-4.588,-4.588,-4.588,-4.588,-4.588,-4.5242,-4.4879,-4.4879,-4.3979,-4.3515,-4.3515,-4.2876,-4.2397,-4.2078,-4.1758,-4.1439,-5.681,-5.7202,-5.7129,-5.6374,-5.5242,-5.395,-5.2659,-5.1381,0.0,-4.9785,-4.9717,-4.9688,-4.9494,-4.948,-4.9524,0.0,-4.9465,-4.9683,-5.0728,-5.1193,-5.1701,0.0,-5.3123,0.0,0.0,0.0,0.0,0.0,0.0,0.0,-5.3117,-5.1974,-5.1182,-5.0962,-5.0014,-4.9405,-4.9133,-4.9405,-4.9505,-4.9505,-4.9505,-4.8562,-4.676,-4.7178,-4.6389,-4.4683,-4.4466,0.0,0.0,-4.3351,-4.2974,-4.2974,-4.2974,-4.2974,-4.2974,-4.2974,-4.2974,-4.2974,-4.2974,-4.2974,-4.2974,-4.2974,-4.274,-4.2389,-4.2389,-4.2389,-4.2389,-4.2389,-4.269,-4.2974,-4.2974,-4.2974,-4.3252,-4.4152,-4.4357,-4.4097,-4.3197,-4.3725,-4.4411,-4.467,-4.5395,-4.5965,-4.5965,-4.5248,-4.4835,-4.519,-4.4678,-4.4542,-4.5294,-4.5602,-4.5693,-4.5564,-4.5535,-4.564,-4.588,-4.5685,-4.564,-4.588,-4.588,-4.588,-4.588,-4.5372,-4.5097,-4.5097,-4.4501,-4.4182,-4.4182,-4.3384,-4.2992,-4.2977,-4.2382,-4.2092,-5.6302,-5.6882,-5.7013,-5.5794,-5.4546,-5.3268,-5.1991,0.0,-4.9741,-4.9732,-4.9717,-4.9494,-4.8914,-4.8812,-4.9001,-4.9582,-4.8711,-4.8798,-5.1193,-5.1091,-5.1207,-5.2478,0.0,0.0,0.0,0.0,0.0,0.0,0.0,0.0,-5.1851,-5.074,-4.9562,-4.8487,-4.8313,-4.7769,-4.6648,-4.771,-4.8255,-4.8255,-4.8255,-4.8152,-4.7879,-4.5874,-4.483,-4.4615,0.0,0.0,0.0,-4.303,-4.2974,-4.2974,-4.2974,-4.2974,-4.2974,-4.2974,-4.2974,-4.2974,-4.2974,-4.2974,-4.2974,-4.2974,-4.2949,-4.2898,-4.2898,-4.2898,-4.2898,-4.2898,-4.2936,-4.2974,-4.2974,-4.2974,-4.3042,-4.3141,-4.3141,-4.3141,-4.303,-4.3085,-4.3449,-4.452,-4.4778,-4.4832,-4.4832,-4.4778,-4.4711,-4.4766,-4.4188,-4.4316,-4.5846,-4.5563,-4.5067,-4.4523,-4.4452,-4.4851,-4.5835,-4.5003,-4.4851,-4.5835,-4.588,-4.588,-4.588,-4.5822,-4.5793,-4.5793,-4.514,-4.4806,-4.4792,-4.3587,-4.2992,-4.2977,-4.2382,-4.2092,-5.5431,-5.5982,-5.5953,-5.5083,-5.3892,-5.2717,-5.1831,0.0,-4.9717,-4.9717,-4.9717,-4.948,-4.8841,-4.8677,-4.8682,-4.8551,-4.8116,-4.8145,-4.9161,-4.9422,-4.9713,-5.0241,0.0,0.0,0.0,0.0,0.0,0.0,0.0,0.0,-4.9549,-4.9049,-4.8602,-4.8094,-4.7429,-4.6815,-4.6313,-4.6755,-4.6861,-4.653,-4.653,-4.6161,-4.5469,-4.4561,-4.3973,-4.367,0.0,0.0,0.0,-4.2974,-4.2974,-4.2974,-4.2974,-4.2974,-4.2974,-4.2974,-4.2974,-4.2974,-4.2974,-4.2974,-4.2974,-4.2974,-4.2974,-4.2974,-4.2974,-4.2974,-4.2974,-4.2974,-4.2974,-4.2974,-4.2974,-4.2974,-4.2974,-4.2974,-4.2974,-4.2974,-4.2974,-4.2974,-4.3129,-4.356,-4.367,-4.367,-4.367,-4.367,-4.367,-4.367,-4.3689,-4.3835,-4.413,-4.4203,-4.4042,-4.3471,-4.3923,-4.4219,-4.4045,-4.4172,-4.4452,-4.4897,-4.5535,-4.588,-4.588,-4.588,-4.588,-4.588,-4.5619,-4.5488,-4.5488,-4.4211,-4.3587,-4.3573,-4.2571,-4.2092,-5.4429,-5.5126,-5.5271,-5.4662,-5.353,-5.2397,0.0,0.0,-4.9717,-4.9717,-4.9717,-4.9422,-4.8595,-4.8293,-4.811,-4.7836,-4.7219,-4.699,-4.7525,-4.799,-4.8238,0.0,0.0,0.0,0.0,0.0,0.0,0.0,0.0,0.0,0.0,-4.7593,-4.7593,-4.7593,-4.6755,-4.6313,-4.6313,-4.6313,-4.6037,-4.5485,-4.5485,-4.4895,-4.3802,-4.3802,-4.3501,-4.2974,0.0,0.0,0.0,-4.2974,-4.2974,-4.2974,-4.2974,-4.2974,-4.2974,-4.2974,-4.2974,-4.2974,-4.2974,-4.2974,-4.2974,-4.2974,-4.2974,-4.2974,-4.2974,-4.2974,-4.2974,-4.2974,-4.2974,-4.2974,-4.2974,-4.2974,-4.2974,-4.2974,-4.2974,-4.2974,-4.2974,-4.2974,-4.2974,-4.2974,-4.2974,-4.2974,-4.2974,-4.2974,-4.2974,-4.2974,-4.3271,-4.3368,-4.2971,-4.3207,-4.3101,-4.2387,-4.2971,-4.3197,-4.284,-4.3163,-4.364,-4.4266,-4.5003,-4.5595,-4.588,-4.588,-4.588,-4.588,-4.588,-4.588,-4.588,-4.4792,-4.4168,-4.3964,-4.2876,-4.2266,-5.3355,-5.4444,-5.5271,-5.4662,-5.353,-5.2397,0.0,-5.0612,-4.9717,-4.9717,-4.9717,-4.934,-4.8029,-4.7447,-4.7256,-4.7742,-4.5923,0.0,-4.696,-4.7158,0.0,0.0,0.0,0.0,0.0,0.0,0.0,0.0,0.0,0.0,0.0,-4.6313,-4.6313,-4.6313,-4.6313,-4.6313,-4.6313,-4.6313,-4.6037,-4.5485,-4.5485,-4.4895,-4.3802,-4.3802,-4.3501,0.0,0.0,0.0,0.0,-4.2974,-4.2974,-4.2974,-4.2974,-4.2974,-4.2974,-4.2974,-4.2974,-4.2974,-4.2974,-4.2974,-4.2974,-4.2974,-4.2974,-4.2974,-4.2974,-4.2974,-4.2974,-4.2974,-4.2974,-4.2974,-4.2974,-4.2974,-4.2974,-4.2974,-4.2974,-4.2974,-4.2974,-4.2974,-4.2974,-4.2974,-4.2974,-4.2974,-4.2974,-4.2974,-4.2974,-4.2974,-4.2974,-4.3,-4.2918,-4.2919,-4.2462,-4.135,-4.1219,-4.1667,-4.2695,-4.1864,-4.2084,-4.4172,-4.4312,-4.4805,-4.5835,-4.588,-4.588,-4.588,-4.588,-4.588,-4.588,-4.5213,-4.4574,-4.3979,-4.3297,-4.2658,-5.128,-5.218,-5.2775,-5.2586,-5.1904,-5.1272,-5.1019,-5.0307,-4.9473,-4.8688,-4.8539,-4.8297,-4.7474,-4.6556,-4.6323,-4.7586,-4.5958,0.0,0.0,0.0,0.0,0.0,0.0,0.0,0.0,0.0,0.0,0.0,0.0,0.0,0.0,-4.5949,-4.5924,-4.6301,-4.6313,-4.6125,-4.5748,-4.5748,-4.5271,-4.433,-4.433,-4.3953,-4.3237,-4.3237,0.0,0.0,0.0,0.0,0.0,-4.2974,-4.2974,-4.2974,-4.2974,-4.2974,-4.2974,-4.2974,-4.2974,-4.2974,-4.2974,-4.2974,-4.2974,-4.2974,-4.2974,-4.2974,-4.2974,-4.2974,-4.2974,-4.2974,-4.2974,-4.2974,-4.2974,-4.2974,-4.2974,-4.2974,-4.2974,-4.2974,-4.2974,-4.2974,-4.2974,-4.2974,-4.2974,-4.2974,-4.2974,-4.2974,-4.2974,-4.2974,-4.2974,-4.2876,-4.2458,-4.208,-4.1519,-4.0821,-4.0402,-4.0326,-4.0668,-4.0982,-4.1468,-4.2133,-4.3484,-4.4452,-4.4805,-4.4805,-4.4805,-4.4805,-4.4805,-4.4805,-4.4805,-4.4872,-4.4342,-4.3297,-4.2673,-4.2281,-4.9886,-5.0772,-5.1323,-5.1556,-5.0818,-5.0076,-5.0076,-4.9194,-4.8209,-4.7485,-4.7331,-4.7151,-4.6592,-4.5744,-4.5468,-4.6453,-4.5138,0.0,0.0,0.0,0.0,0.0,0.0,0.0,0.0,0.0,0.0,0.0,0.0,0.0,0.0,-4.5786,-4.5648,-4.5987,-4.5786,-4.551,-4.5171,-4.5158,-4.4706,-4.3802,-4.3802,-4.3514,-4.2974,-4.2974,0.0,0.0,0.0,0.0,0.0,-4.2974,-4.2974,-4.2974,-4.2974,-4.2974,-4.2974,-4.2974,-4.2974,-4.2974,-4.2974,-4.2974,-4.2974,-4.2974,-4.2974,-4.2974,-4.2974,-4.2974,-4.2974,-4.2974,-4.2974,-4.2974,-4.2974,-4.2974,-4.2974,-4.2974,-4.2974,-4.2974,-4.2974,-4.2974,-4.2974,-4.2974,-4.2974,-4.2974,-4.2974,-4.2974,-4.2974,-4.2974,-4.2974,-4.2841,-4.2288,-4.1681,-4.1075,-4.0576,-4.0023,-3.9697,-3.9697,-4.0262,-4.0794,-4.1169,-4.2425,-4.3293,-4.3735,-4.3735,-4.3735,-4.3735,-4.3735,-4.3923,-4.4312,-4.4302,-4.393,-4.3141,-4.2252,-4.1866,0.0,-4.9939,-5.0571,-5.1164,-4.9993,-4.8771,-4.8813,-4.7457,0.0,-4.6215,-4.6135,-4.5932,-4.5392,-4.4904,-4.4545,-4.4553,0.0,0.0,0.0,-4.3323,0.0,0.0,0.0,0.0,0.0,0.0,0.0,0.0,0.0,0.0,0.0,-4.5723,-4.5409,-4.5372,-4.4807,-4.4518,-4.4568,-4.4568,-4.4279,-4.374,-4.374,-4.3476,-4.2974,-4.2974,0.0,0.0,0.0,0.0,0.0,-4.2974,-4.2974,-4.2974,-4.2974,-4.2974,-4.2974,-4.2974,-4.2974,-4.2974,-4.2974,-4.2974,-4.2974,-4.2974,-4.2974,-4.2974,-4.2974,-4.2974,-4.2974,-4.2974,-4.2974,-4.2974,-4.2974,-4.2974,-4.2974,-4.2974,-4.2974,-4.2974,-4.2974,-4.2974,-4.2974,-4.2974,-4.2974,-4.2974,-4.2974,-4.2974,-4.2974,-4.2974,-4.2974,-4.2798,-4.2338,-4.1706,-4.1087,-4.0626,-4.0049,-3.9697,-3.9697,-3.9697,-4.007,-4.1032,-4.1169,-4.1667,-4.2647,-4.2695,-4.2695,-4.2695,-4.2695,-4.3211,-4.4312,-4.3602,-4.3353,-4.3371,-4.2043,-4.1497,-4.6998,0.0,-4.7999,-4.8141,-4.7225,-4.6446,0.0,-4.598,-4.5081,-4.5063,-4.4718,-4.4362,-4.4217,-4.3751,-4.3527,-4.3849,0.0,0.0,0.0,0.0,0.0,0.0,0.0,0.0,0.0,0.0,0.0,0.0,0.0,0.0,0.0,-4.5133,-4.4631,-4.4217,-4.3652,-4.3564,-4.3991,-4.4003,-4.3714,-4.3175,-4.3175,-4.3099,-4.2974,-4.2974,0.0,0.0,0.0,0.0,-4.2974,-4.2974,-4.2974,-4.2974,-4.2974,-4.2974,-4.2974,-4.2974,-4.2974,-4.2974,-4.2974,-4.2974,-4.2974,-4.2974,-4.2974,-4.2974,-4.2974,-4.2974,-4.2974,-4.2974,-4.2974,-4.2974,-4.2974,-4.2974,-4.2974,-4.2974,-4.2974,-4.2974,-4.2974,-4.2974,-4.2974,-4.2974,-4.2974,-4.2974,-4.2974,-4.2974,-4.2974,-4.2974,-4.2974,-4.2924,-4.2798,-4.1944,-4.1238,-4.1112,-4.0275,-3.9697,-3.9697,-3.9697,-3.9788,-4.0032,-4.0794,-4.1319,-4.1568,-4.1568,-4.1568,-4.1568,-4.1568,-4.2474,-4.4312,-4.2877,-4.2573,-4.3371,-4.1796,-4.1438,-4.5463,-4.5616,-4.5787,-4.6869,-4.5705,-4.4592,-4.5355,-4.4282,-4.3206,-4.3476,-4.3085,-4.2633,-4.2633,-4.243,-4.2198,-4.224,-4.1938,0.0,0.0,0.0,0.0,0.0,0.0,0.0,0.0,0.0,0.0,0.0,0.0,0.0,0.0,-4.4556,-4.4104,-4.3815,-4.3263,-4.3124,-4.3426,-4.3426,-4.3275,-4.2974,-4.2974,-4.2974,-4.2974,-4.2974,0.0,0.0,0.0,0.0,-4.2974,-4.2974,-4.2974,-4.2974,-4.2974,-4.2974,-4.2974,-4.2974,-4.2974,-4.2974,-4.2974,-4.2974,-4.2974,-4.2974,-4.2974,-4.2974,-4.2974,-4.2974,-4.2974,-4.2974,-4.2974,-4.2974,-4.2974,-4.2974,-4.2974,-4.2974,-4.2974,-4.2974,-4.2974,-4.2974,-4.2974,-4.2974,-4.2974,-4.2974,-4.2974,-4.2974,-4.2974,-4.2974,-4.2974,-4.2974,-4.2974,-4.2233,-4.1618,-4.1313,-4.0576,-3.9973,-3.9722,-3.9697,-3.9697,-3.9697,-4.0224,-4.0503,-4.0503,-4.0503,-4.0503,-4.0503,-4.0982,-4.1752,-4.2861,-4.1957,-4.1796,-4.2372,-4.1172,-4.0904,-4.419,-4.3718,-4.3733,-4.5915,-4.4579,-4.3009,-4.4089,-4.2611,-4.1291,-4.2062,-4.1656,-4.1188,-4.1263,-4.1288,-4.1075,-4.0488,0.0,0.0,0.0,0.0,0.0,0.0,0.0,0.0,0.0,0.0,0.0,0.0,0.0,0.0,0.0,-4.4053,-4.3765,-4.3677,-4.3225,-4.2974,-4.2974,-4.2974,-4.2974,-4.2974,-4.2974,-4.2974,-4.2974,-4.2974,-4.2974,0.0,0.0,0.0,-4.2974,-4.2974,-4.2974,-4.2974,-4.2974,-4.2974,-4.2974,-4.2974,-4.2974,-4.2974,-4.2974,-4.2974,-4.2974,-4.2974,-4.2974,-4.2974,-4.2974,-4.2974,-4.2974,-4.2974,-4.2974,-4.2974,-4.2974,-4.2974,-4.2974,-4.2974,-4.2974,-4.2974,-4.2974,-4.2974,-4.2974,-4.2974,-4.2974,-4.2974,-4.2974,-4.2974,-4.2974,-4.2974,-4.2974,-4.2974,-4.2974,-4.2552,-4.1944,-4.1338,-4.0852,-4.0287,-3.9747,-3.9697,-3.9697,-3.9697,-3.9697,-3.9697,-3.9697,-3.9697,-3.9697,-3.9697,-4.0554,-4.1032,-4.1219,-4.1032,-4.1032,-4.1156,-4.0538,-4.0304,-4.334,-4.2372,-4.1413,-4.3139,-4.2512,-4.1761,-4.2448,-4.1225,-4.0362,-4.1898,-4.1354,-4.0736,-4.12,-4.1288,-4.1003,-3.9986,0.0,-4.163,0.0,0.0,0.0,0.0,0.0,0.0,0.0,0.0,0.0,0.0,0.0,0.0,0.0,0.0,-4.3589,-4.3124,-4.3024,-4.2974,-4.2974,-4.2974,-4.2974,-4.2974,-4.2974,-4.2974,-4.2974,-4.2974,-4.2974,0.0,0.0,-4.2974,-4.2974,-4.2974,-4.2974,-4.2974,-4.2974,-4.2974,-4.2974,-4.2974,-4.2974,-4.2974,-4.2974,-4.2974,-4.2974,-4.2974,-4.2974,-4.2974,-4.2974,-4.2974,-4.2974,-4.2974,-4.2974,-4.2974,-4.2974,-4.2974,-4.2974,-4.2974,-4.2974,-4.2974,-4.2974,-4.2974,-4.2974,-4.2974,-4.2974,-4.2974,-4.2974,-4.2974,-4.2974,-4.2974,-4.2974,-4.2974,-4.2974,-4.2552,-4.1944,-4.1338,-4.0852,-4.0287,-3.9747,-3.9697,-3.9697,-3.9697,-3.9697,-3.9697,-3.9697,-3.9697,-3.9697,-3.9697,-3.9839,-4.0364,-4.1219,-4.0364,-4.0364,-4.1169,-4.0224,-4.0236,-4.2133,-4.1414,-4.0744,-4.1764,-4.1638,-4.1501,-4.2409,-4.1329,-4.0438,-4.1492,-4.084,-4.0237,-4.0802,-4.0902,-4.0927,-4.1015,0.0,0.0,0.0,0.0,0.0,0.0,0.0,0.0,0.0,0.0,0.0,0.0,0.0,0.0,0.0,0.0,-4.3237,-4.2986,-4.2974,-4.2974,-4.2974,-4.2974,-4.2974,-4.2974,-4.2974,-4.2974,-4.2974,-4.2974,-4.2974,-4.2974,0.0,-4.2974,-4.2974,-4.2974,-4.2974,-4.2974,-4.2974,-4.2974,-4.2974,-4.2974,-4.2974,-4.2974,-4.2974,-4.2974,-4.2974,-4.2974,-4.2974,-4.2974,-4.2974,-4.2974,-4.2974,-4.2974,-4.2974,-4.2974,-4.2974,-4.2974,-4.2974,-4.2974,-4.2974,-4.2974,-4.2974,-4.2974,-4.2974,-4.2974,-4.2974,-4.2974,-4.2974,-4.2974,-4.2974,-4.2974,-4.2974,-4.2974,-4.2974,-4.2748,-4.2396,-4.1844,-4.1291,-4.0739,-4.0187,-3.9873,-3.9697,-3.9697,-3.9697,-3.9697,-3.9697,-3.9697,-3.9697,-3.9697,-3.9697,-3.9929,-4.0415,-3.9929,-3.9929,-4.0364,-3.9929,-3.9929,-4.105,-4.0772,-4.0651,-4.115,-4.1288,-4.1593,-4.2559,-4.1706,-4.0865,-4.1417,-4.0752,-4.0212,-4.0626,-4.0601,0.0,-4.1806,-4.1718,0.0,0.0,0.0,0.0,0.0,0.0,0.0,0.0,0.0,0.0,0.0,0.0,0.0,0.0,0.0,-4.2974,-4.2974,-4.2974,-4.2974,-4.2974,-4.2974,-4.2974,-4.2974,-4.2974,-4.2974,-4.2974,-4.2974,-4.2974,-4.2974,-4.2974,-4.2974,-4.2974,-4.2974,-4.2974,-4.2974,-4.2974,-4.2974,-4.2974,-4.2974,-4.2974,-4.2974,-4.2974,-4.2974,-4.2974,-4.2974,-4.2974,-4.2974,-4.2974,-4.2974,-4.2974,-4.2974,-4.2974,-4.2974,-4.2974,-4.2974,-4.2974,-4.2974,-4.2974,-4.2974,-4.2974,-4.2974,-4.2974,-4.2974,-4.2974,-4.2974,-4.2974,-4.2974,-4.2974,-4.2974,-4.2974,-4.2974,-4.2974,-4.2974,-4.276,-4.2263,-4.1781,-4.1254,-4.0576,-4.0011,-3.9697,-3.9697,-3.9697,-3.9697,-3.9697,-3.9697,-3.9697,-3.9697,-3.9697,-3.9697,-3.9697,-3.9697,-3.9697,-3.9697,-3.9697,-3.9697,-4.0521,-4.0541,-4.0651,-4.115,-4.1288,-4.1492,-4.2137,-4.1731,-4.143,-4.2037,-4.163,-4.1175,-4.1225,-4.0865,-4.0714,-4.125,0.0,0.0,0.0,0.0,0.0,0.0,0.0,0.0,0.0,0.0,0.0,0.0,0.0,0.0,0.0,0.0,0.0,-4.2974,-4.2974,-4.2974,-4.2974,-4.2974,-4.2974,-4.2974,-4.2974,-4.2974,-4.2974,-4.2974,-4.2974,-4.2974,-4.2974,-4.2974,-4.2974,-4.2974,-4.2974,-4.2974,-4.2974,-4.2974,-4.2974,-4.2974,-4.2974,-4.2974,-4.2974,-4.2974,-4.2974,-4.2974,-4.2974,-4.2974,-4.2974,-4.2974,-4.2974,-4.2974,-4.2974,-4.2974,-4.2974,-4.2974,-4.2974,-4.2974,-4.2974,-4.2974,-4.2974,-4.2974,-4.2974,-4.2974,-4.2974,-4.2974,-4.2974,-4.2974,-4.2974,-4.2974,-4.2974,-4.2974,-4.2974,-4.2974,-4.276,-4.2263,-4.2175,-4.1668,-4.0601,-4.0011,-3.9697,-3.9697,-3.9697,-3.9697,-3.9697,-3.9697,-3.9697,-3.9697,-3.9697,-3.9697,-3.9697,-3.9697,-3.9697,-3.9697,-3.9697,-3.9697,-4.0,-4.0011,-4.0136,-4.0689,-4.0774,-4.1065,-4.2011,-4.1731,-4.1338,-4.1605,-4.148,-4.1288,-4.1288,0.0,-4.2007,-4.1869,0.0,0.0,0.0,0.0,0.0,0.0,0.0,0.0,0.0,0.0,0.0,0.0,0.0,0.0,0.0,0.0,0.0,-4.2974,-4.2974,-4.2811,-4.2527,-4.2527,-4.2296,-4.1969,-4.2647,-4.2974,-4.2974,-4.2974,-4.2974,-4.2974,-4.2974,-4.2974,-4.2974,-4.2974,-4.2974,-4.2974,-4.2974,-4.2974,-4.2974,-4.2974,-4.2974,-4.2974,-4.2974,-4.2974,-4.2974,-4.2974,-4.2974,-4.2974,-4.2974,-4.2974,-4.2974,-4.2974,-4.2974,-4.2974,-4.2974,-4.2974,-4.2974,-4.2974,-4.2974,-4.2974,-4.2974,-4.2974,-4.2974,-4.2974,-4.2974,-4.2974,-4.2974,-4.2974,-4.2974,-4.2974,-4.2974,-4.2974,-4.2974,-4.2974,-4.2898,-4.274,-4.2414,-4.176,-4.0614,-4.0325,-4.0061,-3.9722,-3.9697,-3.9697,-3.9697,-3.9697,-3.9697,-3.9697,-3.9697,-3.9697,-3.9697,-3.9697,-3.9697,-3.9697,-3.9697,-3.9697,-3.98,-3.9697,-3.9785,-4.0162,-4.0388,-4.0752,-4.1693,-4.1743,-4.1643,-4.1819,-4.1526,-4.1338,-4.1568,-4.207,0.0,0.0,0.0,0.0,0.0,0.0,0.0,0.0,0.0,0.0,0.0,0.0,0.0,0.0,0.0,0.0,0.0,0.0,0.0,0.0,-4.2866,-4.259,-4.2213,-4.2037,-4.1706,-4.13,-4.2095,-4.2459,-4.2459,-4.2459,-4.2459,-4.2459,-4.2459,-4.2459,-4.2472,-4.2647,-4.2879,-4.2974,-4.2974,-4.2974,-4.2974,-4.2974,-4.2974,-4.2974,-4.2974,-4.2974,-4.2974,-4.2974,-4.2974,-4.2974,-4.2974,-4.2974,-4.2974,-4.2974,-4.2974,-4.2974,-4.2974,-4.2974,-4.2974,-4.2974,-4.2974,-4.2974,-4.2974,-4.2974,-4.2974,-4.2974,-4.2974,-4.2974,-4.2974,-4.2974,-4.2974,-4.2974,-4.2974,-4.2974,-4.2974,-4.2974,-4.2974,-4.2974,-4.2539,-4.1898,-4.1091,-4.0714,-4.035,-3.9973,-3.9785,-3.9697,-3.9697,-3.9697,-3.9697,-3.9697,-3.9697,-3.9697,-3.9697,-3.9697,-3.9697,-3.9697,-3.9697,-3.9697,-3.9852,-3.9697,-3.9697,-3.9697,-4.0111,-4.0664,-4.1163,-4.1756,-4.2351,-4.2848,-4.2108,-4.1517,-4.2112,-4.1718,0.0,0.0,0.0,0.0,0.0,0.0,0.0,0.0,0.0,0.0,0.0,0.0,0.0,0.0,0.0,0.0,0.0,0.0,0.0,0.0,-4.2489,-4.22,-4.2187,-4.1605,-4.1275,-4.1263,-4.1263,-4.1275,-4.1288,-4.1288,-4.1288,-4.1288,-4.1288,-4.1288,-4.1326,-4.1919,-4.2527,-4.2974,-4.2961,-4.2974,-4.2974,-4.2974,-4.2974,-4.2974,-4.2974,-4.2974,-4.2974,-4.2974,-4.2974,-4.2974,-4.2974,-4.2974,-4.2974,-4.2974,-4.2974,-4.2974,-4.2974,-4.2974,-4.2974,-4.2974,-4.2974,-4.2974,-4.2974,-4.2974,-4.2974,-4.2974,-4.2974,-4.2974,-4.2974,-4.2974,-4.2974,-4.2974,-4.2974,-4.2974,-4.2974,-4.2974,-4.2974,-4.2974,-4.2539,-4.2213,-4.2213,-4.1153,-4.0526,-4.0513,-4.0011,-3.9697,-3.9697,-3.9697,-3.9697,-3.9697,-3.9697,-3.9697,-3.9697,-3.9697,-3.9697,-3.9697,-3.9697,-3.9697,-4.0134,-3.9981,-3.9929,-3.9736,-4.0111,-4.0664,-4.1163,-4.1467,-4.1731,-4.2338,-4.22,-4.1969,-4.2187,-4.2333,0.0,0.0,0.0,0.0,0.0,0.0,0.0,0.0,0.0,0.0,0.0,0.0,0.0,0.0,0.0,0.0,0.0,0.0,0.0,0.0,-4.1869,-4.1392,-4.1003,-4.084,-4.0563,-4.0174,-4.0174,-4.0588,-4.1288,-4.1288,-4.1288,-4.1288,-4.1288,-4.1288,-4.13,-4.1517,-4.1907,-4.2414,-4.1982,-4.2296,-4.2924,-4.2602,-4.2703,-4.2974,-4.2974,-4.2974,-4.2974,-4.2974,-4.2974,-4.2974,-4.2974,-4.2974,-4.2974,-4.2974,-4.2974,-4.2974,-4.2974,-4.2974,-4.2974,-4.2974,-4.2974,-4.2974,-4.2974,-4.2974,-4.2974,-4.2974,-4.2974,-4.2974,-4.2974,-4.2974,-4.2974,-4.2974,-4.2974,-4.2974,-4.2974,-4.2974,-4.2974,-4.2974,-4.2891,-4.2627,-4.2238,-4.1911,-4.1342,-4.0563,-4.0362,-4.0099,-3.971,-3.9697,-3.9697,-3.9697,-3.9697,-3.9697,-3.9697,-3.9697,-3.9697,-3.9697,-3.9697,-3.9697,-4.0083,-3.9929,-3.9941,-4.0013,-4.0438,-4.099,-4.1543,-4.1831,-4.2082,-4.2464,-4.2363,-4.2275,-4.2502,-4.2627,0.0,0.0,0.0,0.0,0.0,0.0,0.0,0.0,0.0,0.0,0.0,0.0,0.0,0.0,0.0,0.0,0.0,0.0,0.0,0.0,-4.1291,-4.0852,-4.0513,-4.03,-4.0023,-3.9697,-3.9697,-4.0036,-4.0689,-4.0689,-4.0689,-4.0689,-4.0689,-4.0814,-4.0962,-4.0962,-4.1329,-4.1806,-4.1467,-4.1882,-4.2665,-4.2338,-4.2552,-4.2974,-4.2974,-4.2974,-4.2974,-4.2974,-4.2974,-4.2974,-4.2974,-4.2974,-4.2974,-4.2974,-4.2974,-4.2974,-4.2974,-4.2974,-4.2974,-4.2974,-4.2974,-4.2974,-4.2974,-4.2974,-4.2974,-4.2974,-4.2974,-4.2974,-4.2974,-4.2974,-4.2974,-4.2974,-4.2974,-4.2974,-4.2974,-4.2974,-4.2974,-4.2974,-4.2974,-4.2848,-4.2564,-4.2338,-4.1923,-4.1204,-4.0752,-4.0362,-4.0036,-3.981,-3.9697,-3.9697,-3.9697,-3.9697,-3.9697,-3.9697,-3.9697,-3.9697,-3.9697,-3.9697,-3.989,-3.9749,-3.9874,-4.0375,-4.0912,-4.1555,-4.2162,-4.2678,-4.2961,-4.2911,-4.2602,-4.2439,-4.2886,-4.2627,0.0,0.0,0.0,0.0,0.0,0.0,0.0,0.0,0.0,0.0,0.0,0.0,0.0,0.0,0.0,0.0,0.0,0.0,0.0,0.0,-4.0727,-4.0438,-4.0438,-3.9936,-3.9697,0.0,-3.9697,-3.9697,-3.9697,-3.9697,-3.9697,-3.9697,-3.9697,-3.9986,-4.0438,-4.0438,-4.0764,-4.12,-4.115,-4.1555,-4.2125,-4.2074,-4.2439,-4.2898,-4.2898,-4.2936,-4.2974,-4.2974,-4.2974,-4.2974,-4.2974,-4.2974,-4.2974,-4.2974,-4.2974,-4.2974,-4.2974,-4.2974,-4.2974,-4.2974,-4.2974,-4.2974,-4.2974,-4.2974,-4.2974,-4.2974,-4.2974,-4.2974,-4.2974,-4.2974,-4.2974,-4.2974,-4.2974,-4.2974,-4.2974,-4.2974,-4.2974,-4.2974,-4.2974,-4.2974,-4.2974,-4.2577,-4.2263,-4.2213,-4.1216,-4.0626,-4.0513,-3.9986,-3.9697,-3.9697,-3.9697,-3.9697,-3.9697,-3.9697,-3.9697,-3.9697,-3.9697,-3.9697,-4.0402,-4.0198,-4.0068,-4.0427,-4.1254,-4.212,-4.2672,-4.2898,-4.2848,-4.2476,-4.264,-4.2836,-4.2949,0.0,0.0,0.0,0.0,0.0,0.0,0.0,0.0,0.0,0.0,0.0,0.0,0.0,0.0,0.0,0.0,0.0,0.0,0.0,0.0,-4.0701,-4.0162,-3.9873,-3.9873,-3.9747,-3.9697,0.0,-3.9697,-3.9697,-3.9697,-3.9697,-3.9697,-3.9697,-3.9697,-3.976,-3.9873,-3.9873,-4.0199,-4.0651,-4.0224,-4.0651,-4.1467,-4.1028,-4.1492,-4.2389,-4.2389,-4.2678,-4.2974,-4.2974,-4.2974,-4.2974,-4.2974,-4.2974,-4.2974,-4.2974,-4.2974,-4.2974,-4.2974,-4.2974,-4.2974,-4.2974,-4.2974,-4.2974,-4.2974,-4.2974,-4.2974,-4.2974,-4.2974,-4.2974,-4.2974,-4.2974,-4.2974,-4.2974,-4.2974,-4.2974,-4.2974,-4.2974,-4.2974,-4.2974,-4.2974,-4.2974,-4.2974,-4.2873,-4.2678,-4.2238,-4.1986,-4.1417,-4.0551,-3.9986,-3.9697,-3.9697,-3.9697,-3.9697,-3.9697,-3.9697,-3.9697,-3.9697,-3.9697,-3.9697,-4.044,-4.0236,-4.0222,-4.0754,-4.1743,-4.2678,-4.2911,-4.2974,-4.2898,-4.2665,-4.2841,-4.2974,0.0,0.0,0.0,0.0,0.0,0.0,0.0,0.0,0.0,0.0,0.0,0.0,0.0,0.0,0.0,0.0,0.0,0.0,0.0,-4.0275,-4.0124,-4.0124,-3.9848,-3.9697,-3.9697,-3.9697,-3.9697,-3.9697,-3.9697,-3.9697,-3.9697,-3.9697,-3.9697,-3.9697,-3.9697,-3.9697,-3.9697,-3.9697,-3.986,-4.0099,-3.981,-4.0212,-4.0862,-4.0626,-4.1216,-4.2213,-4.2213,-4.2577,-4.2974,-4.2974,-4.2974,-4.2974,-4.2974,-4.2974,-4.2974,-4.2974,-4.2974,-4.2974,-4.2974,-4.2974,-4.2974,-4.2974,-4.2974,-4.2974,-4.2974,-4.2974,-4.2974,-4.2974,-4.2974,-4.2974,-4.2974,-4.2974,-4.2974,-4.2974,-4.2974,-4.2974,-4.2974,-4.2974,-4.2974,-4.2974,-4.2974,-4.2974,-4.2974,-4.2974,-4.2848,-4.2627,-4.2351,-4.1949,-4.1329,-4.0526,-3.9961,-3.9697,-3.9697,-3.9697,-3.9697,-3.9697,-3.9697,-3.9697,-3.9697,-3.9697,-4.0275,-4.0146,-4.0347,-4.1018,-4.2032,-4.2836,-4.2836,-4.2911,-4.2974,-4.2974,-4.2974,0.0,0.0,0.0,0.0,0.0,0.0,0.0,0.0,0.0,0.0,0.0,0.0,0.0,0.0,0.0,0.0,0.0,0.0,0.0,-3.9722,-3.9697,-3.9697,-3.9697,-3.9697,-3.9697,-3.9697,-3.9697,-3.9697,-3.9697,-3.9697,-3.9697,-3.9697,-3.9697,-3.9697,-3.9697,-3.9697,-3.9697,-3.9697,-3.9697,-3.9697,-3.9697,-3.9697,-3.9973,-4.0375,-4.0375,-4.1015,-4.1936,-4.2037,-4.2371,-4.2848,-4.2949,-4.2974,-4.2974,-4.2974,-4.2974,-4.2974,-4.2974,-4.2974,-4.2974,-4.2974,-4.2974,-4.2974,-4.2974,-4.2974,-4.2974,-4.2974,-4.2974,-4.2974,-4.2974,-4.2974,-4.2974,-4.2974,-4.2974,-4.2974,-4.2974,-4.2974,-4.2974,-4.2974,-4.2974,-4.2974,-4.2974,-4.2974,-4.2974,-4.2974,-4.2974,-4.2974,-4.2974,-4.2602,-4.2313,-4.2213,-4.1279,-4.0488,-3.9848,-3.9747,-3.9697,-3.9697,-3.9697,-3.9697,-3.9697,-3.9697,-3.9697,-4.0555,-4.0451,-4.049,-4.0588,-4.1455,-4.2313,-4.2313,-4.269,-4.2974,0.0,0.0,0.0,0.0,0.0,0.0,0.0,0.0,0.0,0.0,0.0,0.0,0.0,0.0,0.0,0.0,0.0,0.0,0.0,0.0,0.0,-3.9697,-3.9697,-3.9697,-3.9697,-3.9697,-3.9697,-3.9697,-3.9697,-3.9697,-3.9697,-3.9697,-3.9697,-3.9697,-3.9697,-3.9697,-3.9697,-3.9697,-3.9697,-3.9697,-3.9697,-3.9697,-3.9697,-3.9697,-3.9735,-3.9798,-3.9798,-4.0199,-4.0802,-4.1279,-4.1806,-4.2401,-4.2879,-4.2974,-4.2974,-4.2974,-4.2974,-4.2974,-4.2974,-4.2974,-4.2974,-4.2974,-4.2974,-4.2974,-4.2974,-4.2974,-4.2974,-4.2974,-4.2974,-4.2974,-4.2974,-4.2974,-4.2974,-4.2974,-4.2974,-4.2974,-4.2974,-4.2974,-4.2974,-4.2974,-4.2974,-4.2974,-4.2974,-4.2974,-4.2974,-4.2974,-4.2974,-4.2974,-4.2974,-4.2911,-4.2647,-4.2225,-4.2074,-4.1455,-4.0425,-3.9936,-3.9697,-3.9697,-3.9697,-3.9697,-3.9697,-3.9697,-3.9697,-4.0338,-4.0398,-4.0513,-4.0513,-4.1103,-4.1706,-4.1706,-4.1882,-4.2145,0.0,0.0,0.0,0.0,0.0,0.0,0.0,0.0,0.0,0.0,0.0,0.0,0.0,0.0,0.0,0.0,0.0,0.0,0.0,0.0,-3.9697,-3.9697,-3.9697,-3.9697,-3.9697,-3.9697,-3.9697,-3.9697,-3.9697,-3.9697,-3.9697,-3.9697,-3.9697,-3.9697,-3.9697,-3.9697,-3.9697,-3.9697,-3.9697,-3.9697,-3.9697,-3.9697,-3.9697,-3.9697,-3.9697,-3.9697,-3.9697,-4.0036,-4.0601,-4.11,-4.1706,-4.2301,-4.2854,-4.2974,-4.2974,-4.2974,-4.2974,-4.2974,-4.2974,-4.2974,-4.2974,-4.2974,-4.2974,-4.2974,-4.2974,-4.2974,-4.2974,-4.2974,-4.2974,-4.2974,-4.2974,-4.2974,-4.2974,-4.2974,-4.2974,-4.2974,-4.2974,-4.2974,-4.2974,-4.2974,-4.2974,-4.2974,-4.2974,-4.2974,-4.2974,-4.2974,-4.2974,-4.2974,-4.2974,-4.2974,-4.2873,-4.2678,-4.2376,-4.1986,-4.1442,-4.0588,-4.0011,-3.9697,-3.9697,-3.9697,-3.9697,-3.9697,-3.9697,-4.0121,-4.0181,-4.0312,-4.0312,-4.0727,-4.1075,-4.1075,0.0,-4.1401,0.0,0.0,0.0,0.0,0.0,0.0,0.0,0.0,0.0,0.0,0.0,0.0,0.0,0.0,0.0,0.0,0.0,0.0,0.0,0.0,-3.9697,-3.9697,-3.9697,-3.9697,-3.9697,-3.9697,-3.9697,-3.9697,-3.9697,-3.9697,-3.9697,-3.9697,-3.9697,-3.9697,-3.9697,-3.9697,-3.9697,-3.9697,-3.9697,-3.9697,-3.9697,-3.9697,-3.9697,-3.9697,-3.9697,-3.9697,-3.9697,-3.9961,-4.0388,-4.0887,-4.1392,-4.1898,-4.2547,-4.2828,-4.2798,-4.2936,-4.2974,-4.2974,-4.2974,-4.2974,-4.2974,-4.2974,-4.2974,-4.2974,-4.2974,-4.2974,-4.2974,-4.2974,-4.2974,-4.2974,-4.2974,-4.2974,-4.2974,-4.2974,-4.2974,-4.2974,-4.2974,-4.2974,-4.2974,-4.2974,-4.2974,-4.2974,-4.2974,-4.2974,-4.2974,-4.2974,-4.2974,-4.2974,-4.2974,-4.2974,-4.2974,-4.2974,-4.264,-4.2351,-4.2213,-4.1354,-4.0588,-3.9898,-3.976,-3.9697,-3.9697,-3.9697,-3.9697,-4.007,-3.9903,-3.9735,-3.9735,-4.0149,-4.0563,0.0,0.0,0.0,0.0,0.0,0.0,0.0,0.0,0.0,0.0,0.0,0.0,0.0,0.0,0.0,0.0,0.0,0.0,0.0,0.0,0.0,0.0,0.0,-3.9697,-3.9697,-3.9697,-3.9697,-3.9697,-3.9697,-3.9697,-3.9697,-3.9697,-3.9697,-3.9697,-3.9697,-3.9697,-3.9697,-3.9697,-3.9697,-3.9697,-3.9697,-3.9697,-3.9697,-3.9697,-3.9697,-3.9697,-3.9697,-3.9697,-3.9697,-3.9697,-3.971,-3.9823,-4.0375,-4.0576,-4.0777,-4.1898,-4.225,-4.2351,-4.2879,-4.2974,-4.2974,-4.2974,-4.2974,-4.2974,-4.2974,-4.2974,-4.2974,-4.2974,-4.2974,-4.2974,-4.2974,-4.2974,-4.2974,-4.2974,-4.2974,-4.2974,-4.2974,-4.2974,-4.2974,-4.2974,-4.2974,-4.2974,-4.2974,-4.2974,-4.2974,-4.2974,-4.2974,-4.2974,-4.2974,-4.2974,-4.2974,-4.2974,-4.2974,-4.2974,-4.2974,-4.2949,-4.274,-4.2213,-4.215,-4.1543,-4.0475,-3.9948,-3.9697,-3.9697,-3.9697,-3.9697,-3.989,-3.9788,-3.9697,-3.9697,-3.9835,-3.9986,-3.9986,-4.0136,0.0,0.0,0.0,0.0,0.0,0.0,0.0,0.0,0.0,0.0,0.0,0.0,0.0,0.0,0.0,0.0,0.0,0.0,0.0,0.0,0.0,0.0,-3.9697,-3.9697,-3.9697,-3.9697,-3.9697,-3.9697,-3.9697,-3.9697,-3.9697,-3.9697,-3.9697,-3.9697,-3.9697,-3.9697,-3.9697,-3.9697,-3.9697,-3.9697,-3.9697,-3.9697,-3.9697,-3.9697,-3.9697,-3.9697,-3.9697,-3.9697,-3.9697,-3.9772,-4.0325,-4.0513,-4.0639,-4.1392,-4.1869,-4.225,-4.2451,-4.2753,-4.2974,-4.2974,-4.2974,-4.2974,-4.2974,-4.2974,-4.2974,-4.2974,-4.2974,-4.2974,-4.2974,-4.2974,-4.2974,-4.2974,-4.2974,-4.2974,-4.2974,-4.2974,-4.2974,-4.2974,-4.2974,-4.2974,-4.2974,-4.2974,-4.2974,-4.2974,-4.2974,-4.2974,-4.2974,-4.2974,-4.2974,-4.2974,-4.2974,-4.2974,-4.2974,-4.2974,-4.2886,-4.274,-4.2389,-4.1618,-4.0513,-4.0325,-4.0036,-3.9697,-3.9697,-3.9697,-3.9736,-3.9697,-3.9697,-3.9697,-3.9697,-3.9697,-3.9697,0.0,0.0,0.0,0.0,0.0,0.0,0.0,0.0,0.0,0.0,0.0,0.0,0.0,0.0,0.0,0.0,0.0,0.0,0.0,0.0,0.0,0.0,0.0,-3.9697,-3.9697,-3.9697,-3.9697,-3.9697,-3.9697,-3.9697,-3.9697,-3.9697,-3.9697,-3.9697,-3.9697,-3.9697,-3.9697,-3.9697,-3.9697,-3.9697,-3.9697,-3.9697,-3.9697,-3.9697,-3.9697,-3.9697,-3.9697,-3.9697,-3.9697,-3.9697,-3.9747,-4.0111,-4.0237,-4.0325,-4.0837,-4.1304,-4.1722,-4.2099,-4.2464,-4.2791,-4.2924,-4.2974,-4.2974,-4.2974,-4.2974,-4.2974,-4.2974,-4.2974,-4.2974,-4.2974,-4.2974,-4.2974,-4.2974,-4.2974,-4.2974,-4.2974,-4.2974,-4.2974,-4.2974,-4.2974,-4.2974,-4.2974,-4.2974,-4.2974,-4.2974,-4.2974,-4.2974,-4.2974,-4.2974,-4.2974,-4.2974,-4.2974,-4.2974,-4.2974,-4.2974,-4.2974,-4.2974,-4.2678,-4.2037,-4.1065,-4.0701,-4.0325,-3.9961,-3.9772,-3.9697,0.0,0.0,0.0,-3.9697,0.0,0.0,-3.9697,0.0,0.0,0.0,0.0,0.0,0.0,0.0,0.0,0.0,0.0,0.0,0.0,0.0,0.0,0.0,0.0,0.0,0.0,0.0,0.0,0.0,0.0,-3.9697,-3.9697,-3.9697,-3.9697,-3.9697,-3.9697,-3.9697,-3.9697,-3.9697,-3.9697,-3.9697,-3.9697,-3.9697,-3.9697,-3.9697,-3.9697,-3.9697,-3.9697,-3.9697,-3.9697,-3.9697,-3.9697,-3.9697,-3.9697,-3.9697,-3.9697,-3.9697,-3.9697,-3.9697,-3.9697,-3.9697,-3.9785,-4.0325,-4.0513,-4.0739,-4.1861,-4.2213,-4.2351,-4.2823,-4.2974,-4.2974,-4.2974,-4.2974,-4.2974,-4.2974,-4.2974,-4.2974,-4.2974,-4.2974,-4.2974,-4.2974,-4.2974,-4.2974,-4.2974,-4.2974,-4.2974,-4.2974,-4.2974,-4.2974,-4.2974,-4.2974,-4.2974,-4.2974,-4.2974,-4.2974,-4.2974,-4.2974,-4.2974,-4.2974,-4.2974,-4.2974,-4.2974,-4.2974,-4.2974,-4.2974,-4.2974,-4.271,-4.2238,-4.1091,-4.0551,-4.0501,-3.9948,-3.9697,-3.9697,0.0,0.0,0.0,0.0,0.0,0.0,0.0,0.0,0.0,0.0,0.0,0.0,0.0,0.0,0.0,0.0,0.0,0.0,0.0,0.0,0.0,0.0,0.0,0.0,0.0,0.0,0.0,-3.9697,-3.9697,-3.9697,-3.9697,-3.9697,-3.9697,-3.9697,-3.9697,-3.9697,-3.9697,-3.9697,-3.9697,-3.9697,-3.9697,-3.9697,-3.9697,-3.9697,-3.9697,-3.9697,-3.9697,-3.9697,-3.9697,-3.9697,-3.9697,-3.9697,-3.9697,-3.9697,-3.9697,-3.9697,-3.9697,-3.9697,-3.9697,-3.9722,-3.9873,-4.0463,-4.1112,-4.1467,-4.212,-4.2841,-4.2936,-4.2974,-4.2974,-4.2974,-4.2974,-4.2974,-4.2974,-4.2974,-4.2974,-4.2974,-4.2974,-4.2974,-4.2974,-4.2974,-4.2974,-4.2974,-4.2974,-4.2974,-4.2974,-4.2974,-4.2974,-4.2974,-4.2974,-4.2974,-4.2974,-4.2974,-4.2974,-4.2974,-4.2974,-4.2974,-4.2974,-4.2974,-4.2974,-4.2974,-4.2974,-4.2974,-4.2974,-4.2974,-4.2898,-4.2803,-4.2099,-4.1291,-4.0501,-3.9948,-3.9697,-3.9697,-3.9697,0.0,0.0,0.0,0.0,-3.9697,-3.9697,0.0,0.0,0.0,0.0,0.0,0.0,0.0,0.0,0.0,0.0,0.0,0.0,0.0,0.0,0.0,0.0,0.0,0.0,0.0,-3.9697,-3.9697,-3.9697,-3.9697,-3.9697,-3.9697,-3.9697,-3.9697,-3.9697,-3.9697,-3.9697,-3.9697,-3.9697,-3.9697,-3.9697,-3.9697,-3.9697,-3.9697,-3.9697,-3.9697,-3.9697,-3.9697,-3.9697,-3.9697,-3.9697,-3.9697,-3.9697,-3.9697,-3.9697,-3.9697,-3.9697,-3.9697,-3.9697,-3.9735,-3.9961,-4.0475,-4.1025,-4.1543,-4.212,-4.274,-4.2911,-4.2974,-4.2974,-4.2974,-4.2974,-4.2974,-4.2974,-4.2974,-4.2974,-4.2974,-4.2974,-4.2974,-4.2974,-4.2974,-4.2974,-4.2974,-4.2974,-4.2974,-4.2974,-4.2974,-4.2974,-4.2974,-4.2974,-4.2974,-4.2974,-4.2974,-4.2974,-4.2974,-4.2974,-4.2974,-4.2974,-4.2974,-4.2974,-4.2974,-4.2974,-4.2974,-4.2974,-4.2974,-4.2974,-4.2974,-4.2476,-4.1593,-4.0513,-4.0187,-3.991,-3.9697,-3.9697,-3.9697,0.0,0.0,0.0,-3.9697,-3.9697,-3.9697,0.0,0.0,0.0,0.0,0.0,0.0,0.0,0.0,0.0,0.0,0.0,0.0,0.0,0.0,0.0,0.0,-3.9697,-3.9697,-3.9697,-3.9697,-3.9697,-3.9697,-3.9697,-3.9697,-3.9697,-3.9697,-3.9697,-3.9697,-3.9697,-3.9697,-3.9697,-3.9697,-3.9697,-3.9697,-3.9697,-3.9697,-3.9697,-3.9697,-3.9697,-3.9697,-3.9697,-3.9697,-3.9697,-3.9697,-3.9697,-3.9697,-3.9697,-3.9697,-3.9697,-3.9772,-3.9785,-3.9873,-4.0425,-4.0651,-4.0877,-4.1781,-4.22,-4.2401,-4.2891,-4.2974,-4.2974,-4.2974,-4.2974,-4.2974,-4.2974,-4.2974,-4.2974,-4.2974,-4.2974,-4.2974,-4.2974,-4.2974,-4.2974,-4.2974,-4.2974,-4.2974,-4.2974,-4.2974,-4.2974,-4.2974,-4.2974,-4.2974,-4.2974,-4.2974,-4.2974,-4.2974,-4.2974,-4.2974,-4.2974,-4.2974,-4.2974,-4.2974,-4.2974,-4.2974,-4.2974,-4.2974,-4.2974,-4.2974,-4.2476,-4.1656,-4.0701,-4.0639,-4.0312,0.0,0.0,0.0,0.0,0.0,0.0,-3.9697,-3.9697,-3.9697,0.0,0.0,0.0,0.0,0.0,0.0,0.0,0.0,0.0,0.0,0.0,0.0,0.0,0.0,0.0,0.0,-3.9697,-3.9697,-3.9697,-3.9697,-3.9697,-3.9697,-3.9697,-3.9697,-3.9697,-3.9697,-3.9697,-3.9697,-3.9697,-3.9697,-3.9697,-3.9697,-3.9697,-3.9697,-3.9697,-3.9697,-3.9697,-3.9697,-3.9697,-3.9697,-3.9697,-3.9697,-3.9697,-3.9697,-3.9697,-3.9697,-3.9697,-3.9697,-3.976,-4.0199,-4.035,-4.045,-4.0949,-4.148,-4.1794,-4.1568,-4.212,-4.2891,-4.2949,-4.2974,-4.2974,-4.2974,-4.2974,-4.2974,-4.2974,-4.2974,-4.2974,-4.2974,-4.2974,-4.2974,-4.2974,-4.2974,-4.2974,-4.2974,-4.2974,-4.2974,-4.2974,-4.2974,-4.2974,-4.2974,-4.2974,-4.2974,-4.2974,-4.2974,-4.2974,-4.2974,-4.2974,-4.2974,-4.2974,-4.2974,-4.2974,-4.2974,-4.2974,-4.2974,-4.2974,-4.2974,-4.2974,-4.2974,-4.2476,-4.2099,-4.1886,-4.1379,-4.0837,0.0,0.0,0.0,-3.9697,0.0,0.0,0.0,-3.9697,-3.9697,0.0,0.0,0.0,0.0,0.0,0.0,0.0,0.0,0.0,0.0,0.0,0.0,0.0,0.0,0.0,0.0,-3.9697,-3.9697,-3.9697,-3.9697,-3.9697,-3.9697,-3.9697,-3.9697,-3.9697,-3.9697,-3.9697,-3.9697,-3.9697,-3.9697,-3.9697,-3.9697,-3.9697,-3.9697,-3.9697,-3.9697,-3.9697,-3.9697,-3.9697,-3.9697,-3.9697,-3.9697,-3.9697,-3.9697,-3.9697,-3.9697,-3.9697,-3.9697,-3.9735,-4.0011,-4.0287,-4.0614,-4.1112,-4.1706,-4.2213,-4.2158,-4.2534,-4.2974,-4.2974,-4.2974,-4.2974,-4.2974,-4.2974,-4.2974,-4.2974,-4.2974,-4.2974,-4.2974,-4.2974,-4.2974,-4.2974,-4.2974,-4.2974,-4.2974,-4.2974,-4.2974,-4.2974,-4.2974,-4.2974,-4.2974,-4.2974,-4.2974,-4.2974,-4.2974,-4.2974,-4.2974,-4.2974,-4.2974,-4.2974,-4.2974,-4.2974,-4.2974,-4.2974,-4.2974,-4.2974,-4.2974,-4.2974,-4.2974,-4.2753,-4.2476,-4.22,-4.1869,-4.1455,0.0,0.0,0.0,0.0,0.0,-3.9697,0.0,0.0,0.0,0.0,0.0,0.0,0.0,0.0,0.0,0.0,0.0,0.0,0.0,0.0,0.0,0.0,0.0,0.0,0.0,-3.9785,-3.981,-3.9697,-3.9798,-3.981,-3.9697,-3.9697,-3.9697,-3.9697,-3.9697,-3.9697,-3.9697,-3.9697,-3.9697,-3.9697,-3.9697,-3.9697,-3.9697,-3.9697,-3.9697,-3.9697,-3.9697,-3.9697,-3.9697,-3.9697,-3.9697,-3.9697,-3.9697,-3.9697,-3.9697,-3.9697,-3.9697,-3.971,-3.9823,-4.0212,-4.0764,-4.1317,-4.1794,-4.2313,-4.2811,-4.2898,-4.2891,-4.2949,-4.2974,-4.2974,-4.2974,-4.2974,-4.2974,-4.2974,-4.2974,-4.2974,-4.2974,-4.2974,-4.2974,-4.2974,-4.2974,-4.2974,-4.2974,-4.2974,-4.2974,-4.2974,-4.2974,-4.2974,-4.2974,-4.2974,-4.2974,-4.2974,-4.2974,-4.2974,-4.2974,-4.2974,-4.2974,-4.2974,-4.2974,-4.2974,-4.2974,-4.2918,-4.2918,-4.2974,-4.2874,-4.2862,-4.2974,-4.2862,-4.2637,-4.2363,-4.2321,-4.1965,0.0,0.0,0.0,0.0,-3.9697,0.0,0.0,0.0,0.0,0.0,0.0,0.0,0.0,0.0,0.0,0.0,0.0,0.0,0.0,0.0,0.0,0.0,0.0,0.0,0.0,0.0,-4.0224,-3.9735,-4.0149,-4.0212,-3.9722,-3.9697,-3.9697,-3.9697,-3.9697,-3.9697,-3.9697,-3.9697,-3.9697,-3.9697,-3.9697,-3.9697,-3.9697,-3.9697,-3.9697,-3.9697,-3.9697,-3.9697,-3.9697,-3.9697,-3.9697,-3.9697,-3.9697,-3.9697,-3.9697,-3.9697,-3.9697,-3.976,-4.0249,-4.0736,-4.1288,-4.1882,-4.215,-4.2313,-4.2811,-4.269,-4.2401,-4.2891,-4.2974,-4.2974,-4.2974,-4.2974,-4.2974,-4.2974,-4.2974,-4.2974,-4.2974,-4.2974,-4.2974,-4.2974,-4.2974,-4.2974,-4.2974,-4.2974,-4.2974,-4.2974,-4.2974,-4.2974,-4.2974,-4.2974,-4.2974,-4.2974,-4.2974,-4.2974,-4.2974,-4.2974,-4.2974,-4.2974,-4.2974,-4.2974,-4.2974,-4.2694,-4.2694,-4.2974,-4.2481,-4.2494,-4.2974,-4.2494,-4.2457,-4.2886,-4.2594,-4.2196,0.0,0.0,0.0,0.0,0.0,0.0,0.0,0.0,-3.9697,0.0,0.0,0.0,0.0,0.0,0.0,0.0,0.0,0.0,0.0,0.0,0.0,0.0,0.0,0.0,0.0,0.0,0.0,0.0,0.0,-4.0275,-3.9722,-3.9697,-3.9697,-3.9697,-3.9697,-3.9697,-3.9697,-3.9697,-3.9697,-3.9697,-3.9697,-3.9697,-3.9697,-3.9697,-3.9697,-3.9697,-3.9697,-3.9697,-3.9697,-3.9697,-3.9697,-3.9697,-3.9697,-3.9697,-3.9697,-3.9697,-3.9697,-3.9722,-3.9961,-4.0614,-4.1426,-4.2359,-4.269,-4.2728,-4.2898,-4.2811,-4.274,-4.2911,-4.2974,-4.2974,-4.2974,-4.2974,-4.2974,-4.2974,-4.2974,-4.2974,-4.2974,-4.2974,-4.2974,-4.2974,-4.2974,-4.2974,-4.2974,-4.2974,-4.2974,-4.2974,-4.2974,-4.2974,-4.2974,-4.2974,-4.2974,-4.2974,-4.2974,-4.2974,-4.2974,-4.2974,-4.2974,-4.2974,-4.2974,-4.2974,-4.2974,-4.2862,-4.2862,-4.2974,-4.2581,-4.2481,-4.2694,-4.2312,-4.2211,-4.2481,-4.2312,-4.2132,-3.9697,0.0,0.0,0.0,0.0,0.0,0.0,0.0,0.0,0.0,0.0,0.0,0.0,0.0,0.0,0.0,0.0,0.0,0.0,0.0,0.0,0.0,0.0,0.0,0.0,0.0,0.0,0.0,0.0,0.0,-3.9735,-3.9697,-3.9697,-3.9697,-3.9697,-3.9697,-3.9697,-3.9697,-3.9697,-3.9697,-3.9697,-3.9697,-3.9697,-3.9697,-3.9697,-3.9697,-3.9697,-3.9697,-3.9697,-3.9697,-3.9697,-3.9697,-3.9697,-3.9697,-3.9697,-3.9697,-3.9785,-3.9898,-3.9747,-4.0325,-4.1238,-4.2396,-4.2748,-4.2841,-4.2992,-4.2974,-4.2974,-4.2974,-4.2974,-4.2974,-4.2862,-4.2918,-4.2974,-4.2862,-4.2918,-4.2974,-4.2974,-4.2974,-4.2974,-4.2974,-4.2974,-4.2974,-4.2974,-4.2974,-4.2974,-4.2974,-4.2974,-4.2974,-4.2974,-4.2974,-4.2974,-4.2974,-4.2974,-4.2974,-4.2974,-4.2974,-4.2974,-4.2974,-4.2974,-4.2974,-4.2974,-4.2918,-4.2862,-4.2862,-4.2469,-4.23,-4.2356,-4.2041,-4.1871,-4.1972,-4.1972,-4.1972,0.0,0.0,0.0,-3.9697,0.0,0.0,0.0,0.0,-3.9697,0.0,0.0,0.0,0.0,0.0,0.0,0.0,0.0,0.0,0.0,0.0,0.0,0.0,0.0,0.0,0.0,0.0,0.0,0.0,0.0,0.0,-3.9747,-3.9697,-3.9697,-3.9697,-3.9697,-3.9697,-3.9697,-3.9697,-3.9697,-3.9697,-3.9697,-3.9697,-3.9697,-3.9697,-3.9697,-3.9697,-3.9697,-3.9697,-3.9697,-3.9697,-3.9697,-3.9697,-3.9697,-3.9697,-3.9697,-3.9697,-4.0036,-4.0413,-3.9885,-4.0061,-4.0727,-4.1886,-4.2238,-4.2338,-4.2811,-4.2974,-4.2974,-4.2974,-4.2974,-4.2918,-4.2581,-4.275,-4.2918,-4.2581,-4.275,-4.2974,-4.2974,-4.2974,-4.2974,-4.2974,-4.2974,-4.2974,-4.2974,-4.2974,-4.2974,-4.2974,-4.2974,-4.2974,-4.2974,-4.2974,-4.2974,-4.2974,-4.2974,-4.2974,-4.2974,-4.2974,-4.2974,-4.2974,-4.2974,-4.2974,-4.2974,-4.2694,-4.2525,-4.2525,-4.1948,-4.1789,-4.211,-4.1528,-4.1344,-4.1606,-4.1606,-4.1606,0.0,0.0,-3.9697,-3.9697,0.0,0.0,0.0,0.0,0.0,0.0,0.0,0.0,0.0,0.0,0.0,0.0,0.0,0.0,0.0,0.0,0.0,0.0,0.0,0.0,0.0,0.0,0.0,0.0,0.0,0.0,0.0,-3.9697,-3.9697,-3.9697,-3.9697,-3.9697,-3.9697,-3.9697,-3.9697,-3.9697,-3.9697,-3.9697,-3.9697,-3.9697,-3.9697,-3.9697,-3.9697,-3.9697,-3.9697,-3.9697,-3.9697,-3.9697,-3.9697,-3.9697,-3.9697,-3.9697,-4.0036,-4.0538,-4.0727,-4.0902,-4.1062,-4.1492,-4.1856,-4.2195,-4.215,-4.2407,-4.2638,-4.2425,-4.2381,-4.2381,-4.2256,-4.2324,-4.2381,-4.2256,-4.2481,-4.2694,-4.2694,-4.2862,-4.2974,-4.2974,-4.2974,-4.2974,-4.2974,-4.2974,-4.2974,-4.2974,-4.2974,-4.2974,-4.2974,-4.2974,-4.2974,-4.2974,-4.2974,-4.2974,-4.2974,-4.2974,-4.2974,-4.2974,-4.2974,-4.2974,-4.2974,-4.2862,-4.275,-4.2525,-4.2142,-4.1859,-4.1789,-4.1414,-4.1242,-4.1344,-4.1344,-4.1344,-3.9697,-3.9697,0.0,-3.9697,-3.9697,0.0,-3.9936,0.0,0.0,0.0,0.0,0.0,0.0,0.0,0.0,0.0,0.0,0.0,0.0,-3.9697,0.0,0.0,0.0,0.0,0.0,0.0,0.0,0.0,0.0,0.0,0.0,0.0,-3.9697,-3.9697,-3.9697,-3.9697,-3.9697,-3.9697,-3.9697,-3.9697,-3.9697,-3.9697,-3.9697,-3.9697,-3.9697,-3.9697,-3.9697,-3.9697,-3.9697,-3.9697,-3.9697,-3.9697,-3.9697,-3.9697,-3.9697,-3.9697,-4.0036,-4.0573,-4.1205,-4.1343,-4.1151,-4.1255,-4.1554,-4.1865,-4.1843,-4.2084,-4.2349,-4.2389,-4.2258,-4.2147,-4.2217,-4.2119,-4.2041,-4.1972,-4.2142,-4.2369,-4.2469,-4.2694,-4.2862,-4.2974,-4.2974,-4.2974,-4.2974,-4.2974,-4.2974,-4.2974,-4.2974,-4.2974,-4.2974,-4.2974,-4.2974,-4.2974,-4.2974,-4.2974,-4.2974,-4.2974,-4.2974,-4.2974,-4.2974,-4.2974,-4.2806,-4.2806,-4.2638,-4.2174,-4.2017,-4.1745,-4.1447,-4.1287,-4.1184,-4.1184,-4.1184,-4.1184]},{"header":{"parameterUnit":"m.s-1","parameterCategory":1,"la1":30.6,"la2":29.2853,"lo1":-89.7004,"lo2":-87.6739,"dy":0.0162,"dx":0.0183,"nx":112,"ny":82,"refTime":"2023-04-17T12:00:00:Z","depth":0,"parameterNumber":3,"parameterNumberName":"V-component_of_WINDS"},"data":[0.0,0.0,0.0,0.0,0.0,0.0,0.0,0.0,0.0,0.0,0.0,0.0,0.0,0.0,0.0,0.0,0.0,0.0,0.0,0.0,0.0,0.0,0.0,0.0,0.0,0.0,0.0,0.0,0.0,0.0,0.0,0.0,0.0,0.0,0.0,0.0,0.0,0.0,0.0,0.0,0.0,0.0,0.0,0.0,0.0,0.0,0.0,0.0,0.0,0.0,0.0,0.0,0.0,0.0,0.0,0.0,0.0,0.0,0.0,0.0,0.0,0.0,0.0,0.0,0.0,0.0,0.0,0.0,0.0,0.0,0.0,0.0,0.0,0.0,0.0,0.0,0.0,0.0,0.0,0.0,0.0,0.0,0.0,0.0,0.0,0.0,0.0,0.0,0.0,0.0,0.0,3.3392,3.6145,3.7469,3.6483,3.6326,3.4845,3.1435,0.0,0.0,0.0,0.0,0.0,0.0,0.0,0.0,0.0,0.0,0.0,0.0,0.0,0.0,0.0,0.0,0.0,0.0,0.0,0.0,0.0,0.0,0.0,0.0,0.0,0.0,0.0,0.0,0.0,0.0,0.0,0.0,0.0,0.0,0.0,0.0,0.0,0.0,0.0,0.0,0.0,0.0,0.0,0.0,0.0,0.0,0.0,0.0,0.0,0.0,0.0,0.0,0.0,0.0,0.0,0.0,0.0,0.0,0.0,0.0,0.0,0.0,0.0,0.0,0.0,0.0,0.0,0.0,0.0,0.0,0.0,0.0,0.0,0.0,0.0,0.0,0.0,0.0,0.0,0.0,0.0,0.0,0.0,0.0,0.0,0.0,0.0,0.0,0.0,0.0,0.0,0.0,0.0,0.0,0.0,0.0,0.0,0.0,0.0,0.0,0.0,0.0,0.0,0.0,3.282,3.5589,3.674,3.7072,3.6459,3.599,3.4727,3.2424,0.0,0.0,0.0,0.0,0.0,0.0,0.0,0.0,0.0,0.0,0.0,0.0,0.0,0.0,0.0,0.0,0.0,0.0,0.0,0.0,0.0,0.0,0.0,0.0,0.0,0.0,0.0,0.0,0.0,0.0,0.0,0.0,0.0,0.0,0.0,0.0,0.0,0.0,0.0,0.0,0.0,0.0,0.0,0.0,0.0,0.0,0.0,0.0,0.0,0.0,0.0,0.0,0.0,0.0,0.0,0.0,0.0,0.0,0.0,0.0,0.0,0.0,0.0,0.0,0.0,0.0,0.0,0.0,0.0,0.0,0.0,0.0,0.0,0.0,0.0,0.0,0.0,0.0,0.0,0.0,0.0,0.0,0.0,0.0,0.0,0.0,0.0,0.0,0.0,0.0,0.0,0.0,0.0,0.0,0.0,0.0,0.0,0.0,0.0,0.0,0.0,0.0,0.0,3.2994,3.3884,3.6156,3.6615,3.6663,3.6423,3.5918,3.4727,3.2635,3.2018,0.0,0.0,0.0,0.0,0.0,0.0,0.0,0.0,0.0,0.0,0.0,0.0,0.0,0.0,0.0,0.0,0.0,0.0,0.0,0.0,0.0,0.0,0.0,0.0,0.0,0.0,0.0,0.0,0.0,0.0,0.0,0.0,0.0,0.0,0.0,0.0,0.0,0.0,0.0,0.0,0.0,0.0,0.0,0.0,0.0,0.0,0.0,0.0,0.0,0.0,0.0,0.0,0.0,0.0,0.0,0.0,0.0,0.0,0.0,0.0,0.0,0.0,0.0,0.0,0.0,0.0,0.0,0.0,0.0,0.0,0.0,0.0,0.0,0.0,0.0,0.0,0.0,0.0,0.0,0.0,0.0,0.0,0.0,0.0,0.0,0.0,0.0,0.0,0.0,0.0,0.0,0.0,0.0,0.0,0.0,0.0,0.0,0.0,0.0,0.0,0.0,0.0,3.3814,3.4463,3.605,3.6218,3.6218,3.6218,3.5737,3.4643,3.2803,3.209,0.0,0.0,0.0,0.0,0.0,0.0,0.0,0.0,0.0,0.0,0.0,0.0,0.0,0.0,0.0,0.0,0.0,0.0,0.0,0.0,0.0,0.0,0.0,0.0,0.0,0.0,0.0,0.0,0.0,0.0,0.0,0.0,0.0,0.0,0.0,0.0,0.0,0.0,0.0,0.0,0.0,0.0,0.0,0.0,0.0,0.0,0.0,0.0,0.0,0.0,0.0,0.0,0.0,0.0,0.0,0.0,0.0,0.0,0.0,0.0,0.0,0.0,0.0,0.0,0.0,0.0,0.0,0.0,0.0,0.0,0.0,0.0,0.0,0.0,0.0,0.0,0.0,0.0,0.0,0.0,0.0,0.0,0.0,0.0,0.0,0.0,0.0,0.0,0.0,0.0,0.0,0.0,0.0,0.0,0.0,0.0,0.0,0.0,0.0,0.0,0.0,0.0,3.3344,3.3933,3.5509,3.5677,3.5677,3.5677,3.5135,3.4414,3.3308,3.2283,0.0,0.0,0.0,0.0,0.0,0.0,0.0,0.0,0.0,0.0,0.0,0.0,0.0,0.0,0.0,0.0,0.0,0.0,0.0,0.0,0.0,0.0,0.0,0.0,0.0,0.0,0.0,0.0,0.0,0.0,0.0,0.0,0.0,0.0,0.0,0.0,0.0,0.0,0.0,0.0,0.0,0.0,0.0,0.0,0.0,0.0,0.0,0.0,0.0,0.0,0.0,0.0,0.0,0.0,0.0,0.0,0.0,0.0,0.0,0.0,0.0,0.0,0.0,0.0,0.0,0.0,0.0,0.0,0.0,0.0,0.0,0.0,0.0,0.0,0.0,0.0,0.0,0.0,0.0,0.0,0.0,0.0,0.0,0.0,0.0,0.0,0.0,0.0,0.0,0.0,0.0,0.0,0.0,0.0,0.0,0.0,0.0,0.0,0.0,0.0,0.0,0.0,3.3284,3.3885,0.0,3.5328,3.5256,3.5581,3.4775,3.3982,3.3332,0.0,0.0,0.0,0.0,0.0,0.0,0.0,0.0,0.0,0.0,0.0,0.0,0.0,0.0,0.0,0.0,0.0,0.0,0.0,0.0,0.0,0.0,0.0,0.0,0.0,0.0,0.0,0.0,0.0,0.0,0.0,0.0,0.0,0.0,0.0,0.0,0.0,0.0,0.0,0.0,0.0,0.0,0.0,0.0,0.0,0.0,0.0,0.0,0.0,0.0,0.0,0.0,0.0,0.0,0.0,0.0,0.0,0.0,0.0,0.0,0.0,0.0,0.0,0.0,0.0,0.0,0.0,0.0,0.0,0.0,0.0,0.0,0.0,0.0,0.0,0.0,0.0,0.0,0.0,0.0,0.0,0.0,0.0,0.0,0.0,0.0,0.0,0.0,0.0,0.0,0.0,0.0,0.0,0.0,0.0,0.0,0.0,0.0,0.0,0.0,0.0,0.0,3.3152,3.3377,3.3908,0.0,3.5089,3.5005,3.5198,3.445,3.376,3.3206,0.0,0.0,0.0,0.0,0.0,0.0,0.0,0.0,0.0,0.0,0.0,0.0,0.0,0.0,0.0,0.0,0.0,0.0,0.0,0.0,0.0,0.0,0.0,0.0,0.0,0.0,0.0,0.0,0.0,0.0,0.0,0.0,0.0,0.0,0.0,0.0,0.0,0.0,0.0,0.0,0.0,0.0,0.0,0.0,0.0,0.0,0.0,0.0,0.0,0.0,0.0,0.0,0.0,0.0,0.0,0.0,0.0,0.0,0.0,0.0,0.0,0.0,0.0,0.0,0.0,0.0,0.0,0.0,0.0,0.0,0.0,0.0,0.0,0.0,0.0,0.0,0.0,0.0,0.0,0.0,0.0,0.0,0.0,0.0,0.0,0.0,0.0,0.0,0.0,0.0,0.0,0.0,0.0,0.0,0.0,0.0,0.0,0.0,0.0,0.0,0.0,0.0,3.3198,3.3504,3.3891,3.4715,3.503,3.5004,3.4469,3.4179,3.364,0.0,0.0,0.0,0.0,0.0,0.0,0.0,0.0,0.0,0.0,0.0,0.0,0.0,0.0,0.0,0.0,0.0,0.0,0.0,0.0,0.0,0.0,0.0,0.0,0.0,0.0,0.0,0.0,0.0,0.0,0.0,0.0,0.0,0.0,0.0,0.0,0.0,0.0,0.0,0.0,0.0,0.0,0.0,0.0,0.0,0.0,0.0,0.0,0.0,0.0,0.0,0.0,0.0,0.0,0.0,0.0,0.0,0.0,0.0,0.0,0.0,0.0,0.0,0.0,0.0,0.0,0.0,0.0,0.0,0.0,0.0,0.0,0.0,0.0,0.0,0.0,0.0,0.0,0.0,0.0,0.0,0.0,0.0,0.0,0.0,0.0,0.0,0.0,0.0,0.0,0.0,0.0,0.0,0.0,0.0,0.0,0.0,0.0,0.0,0.0,0.0,0.0,0.0,3.3646,3.3827,3.4277,3.5258,3.5416,3.5256,3.4717,3.4271,3.3731,3.3101,0.0,0.0,0.0,0.0,0.0,0.0,0.0,0.0,0.0,0.0,0.0,0.0,0.0,0.0,0.0,0.0,0.0,0.0,0.0,0.0,0.0,0.0,0.0,0.0,0.0,0.0,0.0,0.0,0.0,0.0,0.0,0.0,0.0,0.0,0.0,0.0,0.0,0.0,0.0,0.0,0.0,0.0,0.0,0.0,0.0,0.0,0.0,0.0,0.0,0.0,0.0,0.0,0.0,0.0,0.0,0.0,0.0,0.0,0.0,0.0,0.0,0.0,0.0,0.0,0.0,0.0,0.0,0.0,0.0,0.0,0.0,0.0,0.0,0.0,0.0,0.0,0.0,0.0,0.0,0.0,0.0,0.0,0.0,0.0,0.0,0.0,0.0,0.0,0.0,0.0,0.0,0.0,0.0,0.0,0.0,0.0,0.0,0.0,0.0,0.0,0.0,0.0,3.3568,3.3954,3.4422,3.5203,3.5396,3.5221,3.4666,3.4214,3.367,3.3037,0.0,0.0,0.0,0.0,0.0,0.0,0.0,0.0,0.0,0.0,0.0,0.0,0.0,0.0,0.0,0.0,0.0,0.0,0.0,0.0,0.0,0.0,0.0,0.0,0.0,0.0,0.0,0.0,0.0,0.0,0.0,0.0,0.0,0.0,0.0,0.0,0.0,0.0,0.0,0.0,0.0,0.0,0.0,0.0,0.0,0.0,0.0,0.0,0.0,0.0,0.0,0.0,0.0,0.0,0.0,0.0,0.0,0.0,0.0,0.0,0.0,0.0,0.0,0.0,0.0,0.0,0.0,0.0,0.0,0.0,0.0,0.0,0.0,0.0,0.0,0.0,0.0,0.0,0.0,0.0,0.0,0.0,0.0,0.0,0.0,0.0,0.0,0.0,0.0,0.0,0.0,0.0,0.0,0.0,0.0,0.0,0.0,0.0,0.0,0.0,0.0,0.0,3.3214,3.3843,3.4396,3.4767,3.5028,3.4885,3.4313,3.404,3.3571,3.2791,0.0,0.0,0.0,0.0,0.0,0.0,0.0,0.0,0.0,0.0,0.0,0.0,0.0,0.0,0.0,0.0,0.0,0.0,0.0,0.0,0.0,0.0,0.0,0.0,0.0,0.0,0.0,0.0,0.0,0.0,0.0,0.0,0.0,0.0,0.0,0.0,0.0,0.0,0.0,0.0,0.0,0.0,0.0,0.0,0.0,0.0,0.0,0.0,0.0,0.0,0.0,0.0,0.0,0.0,0.0,0.0,0.0,0.0,0.0,0.0,3.6782,0.0,0.0,0.0,0.0,0.0,0.0,0.0,0.0,0.0,0.0,0.0,0.0,0.0,0.0,0.0,0.0,0.0,0.0,0.0,0.0,0.0,0.0,0.0,0.0,0.0,0.0,0.0,0.0,0.0,0.0,0.0,0.0,0.0,0.0,0.0,0.0,0.0,0.0,0.0,0.0,0.0,3.3702,3.3877,3.4152,3.4657,3.4765,3.4585,3.4022,3.3928,3.3658,3.3063,3.281,0.0,0.0,0.0,0.0,0.0,0.0,0.0,0.0,0.0,0.0,0.0,0.0,0.0,0.0,0.0,0.0,0.0,0.0,0.0,0.0,0.0,0.0,0.0,0.0,0.0,0.0,0.0,0.0,0.0,0.0,0.0,0.0,0.0,0.0,0.0,0.0,0.0,0.0,0.0,0.0,0.0,0.0,0.0,0.0,0.0,0.0,0.0,0.0,0.0,0.0,0.0,0.0,0.0,0.0,0.0,0.0,0.0,0.0,0.0,0.0,3.6807,0.0,0.0,0.0,0.0,0.0,0.0,0.0,0.0,0.0,0.0,0.0,0.0,0.0,0.0,0.0,0.0,0.0,0.0,0.0,0.0,0.0,0.0,0.0,0.0,0.0,0.0,0.0,0.0,0.0,0.0,0.0,0.0,0.0,0.0,0.0,0.0,0.0,0.0,0.0,0.0,3.347,3.3734,3.401,3.4299,3.4324,3.4211,3.3922,3.3658,3.3382,3.3136,3.2982,0.0,0.0,0.0,0.0,0.0,0.0,0.0,0.0,0.0,0.0,0.0,0.0,0.0,0.0,0.0,0.0,0.0,0.0,0.0,0.0,0.0,0.0,0.0,0.0,0.0,0.0,0.0,0.0,0.0,0.0,0.0,0.0,0.0,0.0,0.0,0.0,0.0,0.0,0.0,0.0,0.0,0.0,0.0,0.0,0.0,0.0,0.0,0.0,0.0,0.0,0.0,0.0,0.0,3.9874,4.0178,4.0077,4.0041,4.0041,4.0053,3.8554,3.7748,3.7475,0.0,0.0,0.0,0.0,0.0,0.0,0.0,0.0,0.0,0.0,0.0,0.0,0.0,0.0,0.0,0.0,0.0,0.0,0.0,0.0,0.0,0.0,0.0,0.0,0.0,3.4035,3.3922,0.0,0.0,0.0,0.0,0.0,0.0,0.0,0.0,0.0,0.0,0.0,0.0,3.3124,3.347,3.3759,3.3759,3.3759,3.3759,3.3759,3.3332,3.3124,3.3124,3.3124,3.3124,0.0,0.0,0.0,0.0,0.0,0.0,0.0,0.0,0.0,0.0,0.0,0.0,0.0,0.0,0.0,0.0,0.0,0.0,0.0,0.0,0.0,0.0,0.0,0.0,0.0,0.0,0.0,0.0,0.0,0.0,0.0,0.0,3.8002,3.8002,0.0,0.0,0.0,0.0,0.0,0.0,0.0,0.0,0.0,0.0,0.0,0.0,0.0,3.8981,3.9471,4.0501,4.0777,4.0312,4.1622,4.197,4.1542,4.1309,4.1438,4.1808,4.1144,0.0,3.8705,3.8705,0.0,0.0,0.0,0.0,0.0,0.0,0.0,0.0,0.0,0.0,0.0,0.0,0.0,0.0,0.0,0.0,0.0,0.0,0.0,0.0,0.0,0.0,3.4655,3.4625,3.4568,3.46,0.0,3.3759,3.3124,3.3124,0.0,0.0,0.0,0.0,0.0,0.0,0.0,0.0,3.3124,3.3144,3.3224,3.3224,3.3224,3.3224,3.3224,3.3162,3.3124,3.3124,3.3124,3.3124,3.3124,3.3124,0.0,0.0,0.0,0.0,0.0,0.0,0.0,0.0,0.0,0.0,0.0,0.0,0.0,0.0,0.0,0.0,0.0,0.0,0.0,0.0,0.0,0.0,0.0,0.0,0.0,0.0,0.0,0.0,0.0,3.922,3.9308,3.8994,3.9233,3.9295,0.0,0.0,0.0,0.0,0.0,0.0,0.0,0.0,0.0,4.0758,4.077,4.0885,4.1074,4.1874,4.2154,4.1925,4.2859,4.3236,4.2994,4.2833,4.2913,4.3131,4.2887,4.2204,4.1112,4.0172,3.9448,3.8902,0.0,0.0,0.0,0.0,3.8283,3.8245,3.8085,3.8056,0.0,0.0,0.0,0.0,0.0,0.0,0.0,0.0,0.0,0.0,0.0,0.0,0.0,3.5265,3.5269,3.5272,3.4788,3.4349,3.3909,0.0,3.3294,3.3124,3.3124,0.0,0.0,0.0,0.0,0.0,3.3124,3.3124,3.3124,3.3124,3.3124,3.3124,3.3124,3.3124,3.3124,3.3124,3.3124,3.3124,3.3124,3.3124,3.3124,0.0,0.0,0.0,0.0,0.0,0.0,0.0,0.0,0.0,0.0,0.0,0.0,0.0,0.0,0.0,0.0,0.0,0.0,0.0,0.0,0.0,0.0,0.0,0.0,0.0,0.0,0.0,0.0,4.0174,4.0312,3.976,4.0352,4.0555,0.0,0.0,0.0,0.0,0.0,0.0,4.1607,4.2004,4.2247,4.2387,4.2387,4.2528,4.2823,4.3233,4.3515,4.3682,4.4173,4.4433,4.4433,4.4544,4.4544,4.4544,4.439,4.4081,4.3553,4.1838,4.0735,4.0106,3.9657,3.9351,3.9197,3.9154,3.9102,3.909,3.9033,3.8994,3.893,3.853,0.0,3.819,3.76,0.0,0.0,0.0,0.0,3.6815,3.6815,3.6815,3.6667,3.6029,3.6067,3.6032,3.5456,3.5209,3.4899,0.0,3.3658,3.3282,3.3282,0.0,0.0,0.0,0.0,3.3124,3.3124,3.3124,3.3124,3.3124,3.3124,3.3124,3.3124,3.3124,3.3124,3.3124,3.3124,3.3124,3.3124,3.3124,3.3124,3.3124,0.0,0.0,0.0,0.0,0.0,0.0,0.0,0.0,0.0,0.0,0.0,0.0,0.0,0.0,0.0,0.0,0.0,0.0,0.0,0.0,0.0,0.0,0.0,0.0,0.0,0.0,0.0,0.0,0.0,3.976,4.0915,0.0,0.0,0.0,0.0,4.1389,4.1811,4.2131,4.2131,4.221,4.2426,4.2951,4.2977,4.3489,4.4553,4.4591,4.4886,4.5437,4.5747,4.5917,4.593,4.6213,4.6395,4.6355,4.5764,4.5516,4.533,4.3591,4.2247,4.1299,4.1273,4.094,4.0401,4.0061,3.9954,3.9876,3.965,3.9564,3.9564,3.9525,3.9355,3.9045,3.8476,3.8179,0.0,0.0,3.7108,3.7062,3.7062,3.7062,3.7062,3.7023,3.7023,3.701,3.6985,3.6563,3.5922,0.0,3.4236,3.3859,3.3859,0.0,3.3124,3.3124,3.3124,3.3124,3.3124,3.3124,3.3124,3.3124,3.3124,3.3124,3.3124,3.3124,3.3124,3.3124,3.3124,3.3124,3.3124,3.3124,3.3124,3.3124,3.3124,0.0,0.0,0.0,0.0,0.0,0.0,0.0,0.0,0.0,0.0,0.0,0.0,0.0,0.0,0.0,0.0,0.0,0.0,0.0,0.0,0.0,0.0,0.0,0.0,0.0,0.0,0.0,0.0,4.1904,4.2649,0.0,4.2102,4.2104,4.2198,4.2189,4.2719,4.3263,4.3773,4.4162,4.4629,4.5256,4.5269,4.5463,4.5866,4.5879,4.5983,4.6191,4.6304,4.6304,4.6304,4.6473,4.6277,4.5924,4.5715,4.5359,4.4955,4.432,4.3643,4.2957,4.2593,4.2281,4.2074,4.1969,4.172,4.1419,4.1324,4.101,4.0644,4.0252,3.9838,3.9416,3.9207,3.9107,3.8882,3.8285,3.8295,3.8359,3.8045,3.7955,3.7895,3.7719,3.7484,3.7307,3.7155,3.6954,3.6703,3.6327,3.537,3.4616,3.4424,3.4274,3.4135,3.4135,3.4135,3.4135,3.4135,3.4135,3.4135,3.4135,3.3822,3.3608,3.3608,3.3282,3.3124,3.3124,3.3124,3.3124,3.3124,3.3124,3.3124,3.3124,3.3124,3.3124,0.0,0.0,0.0,0.0,0.0,0.0,0.0,0.0,0.0,0.0,0.0,0.0,0.0,0.0,0.0,0.0,0.0,0.0,0.0,0.0,0.0,0.0,0.0,0.0,0.0,0.0,4.3057,4.3079,4.3971,4.4296,4.3563,4.3594,4.3612,4.3632,4.4165,4.4767,4.5297,4.5702,4.6094,4.6473,4.6473,4.6578,4.6774,4.6774,4.6865,4.7048,4.7048,4.7048,4.7048,4.7048,4.6734,4.613,4.6003,4.5584,4.5022,4.4759,4.45,4.4108,4.3533,4.3193,4.2997,4.2814,4.25,4.2185,4.1951,4.1625,4.1246,4.084,4.0474,4.0148,3.9939,3.9873,3.9756,3.9181,3.9142,3.9267,3.8891,3.8787,3.8739,3.8562,3.8359,3.8181,3.7981,3.7921,3.7934,3.7827,3.6575,3.5455,3.5274,3.5109,3.4938,3.4861,3.4816,3.4816,3.4726,3.468,3.468,3.468,3.4399,3.4173,3.4173,3.3671,3.34,3.3474,3.3224,3.3111,3.3197,3.3154,3.3124,3.3124,3.3124,3.3124,3.3124,0.0,0.0,0.0,0.0,0.0,0.0,0.0,0.0,0.0,0.0,0.0,0.0,0.0,0.0,0.0,0.0,0.0,0.0,0.0,0.0,0.0,0.0,0.0,4.1645,4.2941,4.3801,4.33,4.4909,4.5646,4.4559,4.5705,4.6277,4.5728,4.6173,4.6486,4.6499,4.6499,4.6512,4.6525,4.6525,4.68,4.7291,4.7304,4.7636,4.8185,4.8185,4.8185,4.8185,4.8159,4.7845,4.727,4.6695,4.6133,4.5558,4.4916,4.4668,4.467,4.4121,4.3559,4.301,4.2448,4.229,4.2185,4.1572,4.1363,4.135,4.135,4.1337,4.1206,4.0618,4.0448,4.0331,3.9795,3.9651,3.9651,3.9638,3.9638,3.9638,3.9638,3.9625,3.9612,3.9612,3.9612,3.9503,3.9249,3.7668,3.6385,3.6372,3.591,3.5449,3.5194,3.5161,0.0,3.4821,3.4776,3.4776,3.4776,3.4763,3.4751,3.4751,3.4223,3.3985,3.4179,3.35,3.3197,3.3398,3.324,3.3124,3.3124,3.3124,3.3124,3.3124,0.0,0.0,0.0,0.0,0.0,0.0,0.0,0.0,0.0,0.0,0.0,0.0,0.0,0.0,0.0,0.0,0.0,0.0,0.0,0.0,0.0,0.0,4.401,4.4155,4.5266,4.6241,4.6755,4.7645,4.812,4.7808,4.7357,4.7035,4.6821,4.663,4.6656,4.7074,4.71,4.7296,4.7702,4.7715,4.7793,4.795,4.795,4.8028,4.8185,4.8185,4.8185,4.8172,4.7754,4.7257,4.6682,4.6107,4.5532,4.4903,4.4746,4.4668,4.4709,4.4552,4.4395,4.4185,4.4081,4.3768,4.3376,4.2748,4.2278,4.1925,4.1925,4.1651,4.1285,4.1115,4.1076,4.0945,4.0357,4.0514,4.0749,4.0305,4.0187,4.0187,4.0187,3.9899,3.9612,3.9612,3.9612,3.9564,3.9503,3.9077,3.8433,3.7689,3.7031,3.666,3.6568,3.637,0.0,3.6416,3.6138,3.5999,3.6126,3.5646,3.5361,3.5565,3.4692,3.4235,3.4466,3.3875,3.3556,3.3641,3.3556,3.3471,3.3313,3.3484,3.3398,0.0,0.0,0.0,0.0,0.0,0.0,0.0,0.0,0.0,0.0,0.0,0.0,0.0,0.0,0.0,0.0,0.0,0.0,0.0,0.0,0.0,0.0,4.5539,4.6156,4.6755,4.7184,4.7723,4.8499,4.9074,4.9427,4.9427,4.8812,4.8316,4.8081,4.7767,4.7597,4.7689,4.7689,4.7845,4.8172,4.8185,4.8185,4.8185,4.8185,4.8185,4.8185,4.7937,4.7819,4.7806,4.7244,4.6669,0.0,4.5767,4.5284,4.4668,4.4668,4.4668,0.0,0.0,0.0,0.0,0.0,4.4003,4.3467,4.3141,4.2801,4.2526,4.2526,4.2304,4.203,4.203,4.186,4.1598,4.1246,4.1219,4.1232,4.088,4.0788,4.0788,4.0788,4.0553,4.0331,4.0331,4.0331,4.0331,4.0331,0.0,0.0,3.9123,3.8545,3.811,3.8015,3.7655,3.7407,3.748,3.7028,3.6734,3.6875,3.6443,3.6252,3.6378,3.5576,0.0,0.0,0.0,3.3969,3.3725,3.3713,0.0,0.0,0.0,3.3598,3.3356,0.0,0.0,0.0,3.3003,3.2772,0.0,0.0,0.0,0.0,0.0,0.0,0.0,0.0,0.0,0.0,0.0,0.0,0.0,0.0,0.0,0.0,4.7427,4.8316,4.8995,4.8682,4.8603,4.9205,4.9753,5.008,5.008,4.9963,4.9688,4.9218,4.9061,4.8747,4.8211,0.0,0.0,0.0,0.0,4.8185,4.8185,4.8185,4.8159,4.8081,4.7584,4.7239,4.7218,4.6643,4.6107,4.5568,4.5558,4.5164,4.4668,4.4668,4.4668,4.4668,4.4668,4.4668,4.467,4.416,4.365,4.3206,4.3206,0.0,0.0,4.3114,4.3075,4.3023,4.3023,4.267,4.2316,4.2316,4.1847,4.1415,4.1415,4.1363,4.1311,4.1311,4.1311,4.1311,4.1311,4.1311,4.1311,4.1311,4.088,4.0514,4.0514,4.0017,3.9503,3.9297,3.8808,3.8403,3.8225,3.7617,3.7211,3.7257,0.0,0.0,3.7155,3.6642,3.6193,3.5939,3.5131,3.4452,3.3883,3.3836,3.3755,3.3768,3.3755,3.3755,3.3713,3.3725,3.3725,3.367,3.3313,3.3154,0.0,0.0,0.0,0.0,0.0,0.0,0.0,0.0,0.0,0.0,0.0,0.0,0.0,0.0,0.0,4.6996,4.7349,4.7871,4.8943,4.9361,4.978,5.0394,5.0943,5.1269,5.1269,5.0433,4.9845,4.974,4.8878,4.8303,4.8198,4.8185,0.0,4.8185,4.8185,4.8185,4.8185,4.8185,4.7963,4.7492,0.0,0.0,4.6617,4.6055,4.5728,4.5542,4.5114,4.4839,4.4668,4.4668,4.4668,4.4668,4.4668,4.4668,4.4709,4.4604,4.4487,4.4395,4.4395,4.4095,4.3716,4.3716,4.3402,4.3023,4.3023,4.2944,0.0,4.2866,4.2448,4.2004,4.2004,4.1651,4.1311,4.1311,4.1311,4.1311,4.1311,4.1311,4.1311,4.1311,4.1219,4.1141,4.1141,4.0292,3.9564,3.9503,3.9254,3.908,3.9251,3.8411,3.7908,3.8144,3.7531,3.7201,3.74,3.687,3.6631,3.6752,3.5774,3.5119,3.5001,3.452,3.4189,3.4034,3.4189,3.4063,3.3713,3.3907,3.3894,3.3713,3.3641,3.3598,0.0,0.0,0.0,0.0,0.0,0.0,0.0,0.0,0.0,0.0,0.0,4.5689,0.0,0.0,4.6613,4.7187,4.8054,4.8721,4.9035,4.9806,5.0342,5.0342,5.0838,5.1073,5.0773,5.0224,4.978,4.9505,4.8956,4.8499,4.8198,4.8185,4.8185,4.8185,4.8185,4.8185,4.8185,4.7898,4.7623,4.7265,4.6691,4.6329,4.6029,4.5441,4.5125,4.5098,4.4811,4.4668,4.4668,4.4668,4.4668,4.4668,4.4668,4.4668,4.4668,4.4668,4.4668,4.4668,4.4668,4.4539,4.4251,4.3964,4.3689,4.3389,4.3101,4.2827,4.2592,4.2592,4.2186,4.1742,4.1742,4.1533,4.1311,4.1311,4.1311,4.1311,4.1311,4.1311,4.1311,4.1311,4.1311,4.1311,4.1311,4.084,4.0461,4.0461,4.0103,3.9858,3.9955,3.928,3.8847,3.8977,3.835,3.7953,3.8106,3.7313,3.6863,3.6998,3.6188,3.5574,3.5312,3.5012,3.4669,3.4243,3.4356,3.4272,3.4063,3.4189,3.4189,3.4063,3.4063,3.3924,0.0,0.0,0.0,0.0,0.0,0.0,0.0,0.0,4.582,4.5937,4.6238,4.6552,4.6774,4.71,4.7317,4.7479,4.8656,4.9401,4.8969,4.9806,5.0237,4.9636,5.0185,5.042,4.9936,4.9793,4.9557,4.9113,4.8969,4.8695,4.8211,4.8185,4.8185,4.8185,4.8185,4.8133,4.8028,4.7558,4.7174,4.6939,4.6012,4.5571,4.5386,4.489,4.4668,4.4668,4.4668,4.4668,4.4668,4.4668,4.4668,4.4668,4.4668,4.4668,4.4668,4.4668,4.4668,4.4668,4.4668,4.4668,4.4643,4.444,4.4176,4.3834,4.3572,4.293,4.2382,4.2382,4.1925,4.1481,4.1481,4.1402,4.1311,4.1311,4.1311,4.1311,4.1311,4.1311,4.1311,4.1311,4.1311,4.1311,4.1311,4.1311,4.1311,4.1311,4.0906,4.0592,4.0592,4.0109,3.9769,3.9769,3.9246,3.8841,3.8723,3.7769,3.7168,3.7168,3.6619,3.6083,3.5652,3.5521,3.5182,3.458,3.4567,3.4515,3.4397,3.4397,3.4397,3.4397,3.4397,3.4189,4.4837,4.4668,4.4668,4.4668,4.5072,4.5477,0.0,0.0,4.6525,4.7035,4.6787,4.6787,4.7806,4.7636,4.7506,4.8002,4.825,4.8355,4.829,4.8852,4.9048,4.8447,4.9335,4.9963,4.9897,4.9453,4.9152,4.9087,4.859,4.825,4.8185,4.8185,4.8185,4.8185,4.8185,4.7937,4.744,4.7304,4.6769,4.582,4.5634,4.5294,4.4826,4.4761,4.4668,4.4668,4.4668,4.4668,4.4668,4.4668,4.4668,4.4668,4.4668,4.4668,4.4668,4.4668,4.4668,4.4668,4.4668,4.4668,4.4871,4.5833,4.5102,4.4071,4.496,4.4132,4.2931,4.2931,4.2513,4.212,4.212,4.169,4.1311,4.1311,4.1311,4.1311,4.1311,4.1311,4.1311,4.1311,4.1311,4.1311,4.1311,4.1311,4.1311,4.1311,4.1259,4.1219,4.1219,4.0697,4.0331,4.0331,3.9834,3.9298,3.8762,3.8161,3.7808,3.7808,3.7233,3.6881,3.6815,3.6305,3.5757,3.5208,3.5195,3.4933,3.4397,3.4397,3.4397,3.4397,3.4397,3.4356,4.4837,4.4983,4.519,4.519,4.5689,4.612,4.612,4.6565,4.7048,4.7226,4.7414,4.761,4.8094,4.7989,4.7911,0.0,4.8473,4.859,4.8237,4.8708,4.8734,4.7806,4.812,4.8525,4.8865,4.8695,4.8564,4.8564,4.8329,4.8185,4.8185,4.8185,4.8185,4.8185,4.8185,4.7911,4.7291,4.6996,4.6434,4.5568,4.5216,4.4916,4.4668,4.4668,4.4668,4.4668,4.4668,4.4668,4.4668,4.4668,4.4668,4.4668,4.4668,4.4668,4.4776,4.5449,4.5301,4.4724,4.5063,4.4745,4.4227,4.4004,4.3877,4.3712,4.3227,4.2984,4.2771,4.2169,4.186,4.1677,4.1677,4.1494,4.1311,4.1311,4.1311,4.1311,4.1311,4.1311,4.1311,4.1311,4.1311,4.1311,4.1311,4.1311,4.1311,4.1311,4.1311,4.1311,4.1311,4.1102,4.0801,4.0448,4.0213,3.9847,3.9285,3.871,3.837,3.837,3.7848,3.7377,3.7024,3.6423,3.5848,3.5312,3.4959,3.4646,3.4397,3.4397,3.4397,3.4397,3.4397,3.4397,4.4994,4.5297,4.5663,4.5833,4.629,4.6721,4.6721,4.7153,4.7623,4.778,4.8015,4.8237,4.8407,4.829,4.8185,4.8185,4.8551,4.8682,4.825,4.8564,4.846,4.7396,4.7278,4.7427,4.7689,4.7858,4.8015,4.8172,4.8185,4.8185,4.8185,4.8185,4.8185,4.8185,4.8185,4.7911,4.7291,4.6917,4.6421,4.5859,4.5428,4.5127,4.4916,4.48,4.4668,4.4668,4.4668,4.4668,4.4668,4.4668,4.4668,4.4668,4.4668,4.4668,4.483,4.5966,4.5861,4.5235,4.5625,4.5123,4.4229,4.3742,4.345,4.3101,4.2253,4.2185,4.2235,4.1498,4.1311,4.1311,4.1311,4.1311,4.1311,4.1311,4.1311,4.1311,4.1311,4.1311,4.1311,4.1311,4.1311,4.1311,4.1311,4.1311,4.1311,4.1311,4.1311,4.1311,4.1311,4.1311,4.1141,4.071,4.0514,4.0252,3.986,3.9298,3.8893,3.8723,3.8344,3.7861,3.7273,3.6828,3.6253,3.5534,3.509,3.4711,3.4397,3.4397,3.4397,3.4397,3.4397,3.4397,4.5399,4.5611,4.5754,4.6316,4.6891,4.7252,4.7252,4.7754,4.8329,4.8904,4.8577,4.8368,4.8943,4.8577,4.8185,4.8185,4.8198,4.8198,4.8185,4.8198,4.7989,4.7344,4.7278,4.7113,0.0,4.7035,4.7584,4.8146,4.8185,4.8185,4.8185,4.8185,4.8185,4.8185,4.8185,4.7911,4.7291,4.7252,4.7022,4.6447,4.6434,4.6133,4.5529,4.4942,4.4668,4.4668,4.4668,4.4668,4.4668,4.4668,4.4668,4.4668,4.4668,4.4668,4.483,4.5966,4.6374,4.6374,4.636,4.5967,4.5632,4.6612,4.4838,4.2402,4.3404,4.2618,4.1361,4.1311,4.1311,4.1311,4.1311,4.1311,4.1311,4.1311,4.1311,4.1311,4.1311,4.1311,4.1311,4.1311,4.1311,4.1311,4.1311,4.1311,4.1311,4.1311,4.1311,4.1311,4.1311,4.1311,4.1311,4.1285,4.0762,4.0409,4.0396,3.9899,3.9324,3.8749,3.8697,3.8436,3.79,3.7861,3.7299,3.6109,3.6057,3.5495,3.4397,3.4397,3.4397,3.4397,3.4397,3.4397,4.5516,4.613,4.6891,4.7466,4.7754,4.8002,4.8407,4.8329,4.8237,4.8447,4.8028,4.7675,4.7885,4.7754,4.7623,4.7623,4.7937,4.8185,4.8185,4.8185,4.7832,4.6878,4.6774,0.0,0.0,0.0,0.0,4.7571,4.7623,4.7793,4.8159,4.8185,4.8185,4.8185,4.8185,4.7911,4.7291,4.7278,4.7048,4.6473,4.6473,4.6173,4.5568,4.5359,4.5101,4.4668,4.4668,4.4668,4.4668,4.4668,4.514,4.5808,4.5808,4.6255,4.6971,4.7317,4.7221,4.6818,4.6365,4.6087,4.5732,4.4621,4.3952,4.3395,4.2457,4.2973,4.3746,4.2636,4.2628,4.2843,4.2391,4.211,4.1886,4.1886,4.1886,4.1886,4.1886,4.1886,4.1768,4.1389,4.1925,4.2213,4.1455,4.1625,4.1755,4.1376,4.1311,4.1311,4.1311,4.1311,4.1311,4.1311,4.1141,4.101,4.101,4.0474,4.0056,3.9847,3.9128,3.8632,3.8449,3.7704,3.7116,3.6711,3.6305,3.5913,3.5534,3.5168,3.4999,3.4986,3.458,3.4397,4.6382,4.7074,4.7819,4.8603,4.8799,4.8852,4.9048,4.8786,4.8394,4.7963,4.7584,4.7213,4.7061,4.7022,4.7022,4.7022,4.7336,4.7649,4.7845,4.7885,4.761,4.6865,4.6787,4.6565,0.0,0.0,0.0,4.6983,4.7401,4.7715,4.7871,4.8068,4.8185,4.8185,4.8185,4.8002,4.7649,4.7636,4.7453,4.7087,4.6878,4.6486,4.5924,4.5728,4.5503,4.5288,4.5288,4.5288,4.5288,4.5288,4.5755,4.6374,4.6374,4.7074,4.803,4.803,4.7977,4.7899,4.7224,4.6472,4.5641,4.4556,4.4246,4.3984,4.2333,4.3271,4.4615,4.3177,4.3368,4.3835,4.3269,4.2936,4.2655,4.2313,4.2453,4.2655,4.2262,4.2453,4.2552,4.2002,4.2513,4.2788,4.2056,4.2056,4.1977,4.1402,4.1311,4.1311,4.1311,4.1311,4.1311,4.1311,4.1311,4.1311,4.1311,4.0958,4.0644,4.0435,3.973,3.9128,3.8723,3.8004,3.7416,3.7011,3.6619,3.6319,3.6109,3.5561,3.5299,3.5286,3.4672,3.4397,4.7741,4.8211,4.8499,4.961,4.9871,4.9714,4.9205,4.9035,4.8682,4.7571,4.7226,4.7087,0.0,0.0,4.6447,4.6473,4.6499,4.6721,4.7296,4.7317,4.7304,0.0,0.0,0.0,0.0,0.0,0.0,4.6447,0.0,4.7858,4.7344,4.7858,4.8159,4.8185,4.8185,4.8185,4.8185,4.8185,4.8185,4.8172,4.7636,4.7074,4.6499,4.5924,4.5924,4.6376,4.6335,4.6321,4.6374,4.6374,4.6478,4.6583,4.6531,4.7177,4.8181,4.808,4.8717,4.948,4.8889,4.7291,4.5647,4.6414,4.5645,4.4172,4.3163,4.362,4.4214,4.3225,4.3695,4.4396,4.3957,4.3818,4.3575,4.2596,4.3088,4.3525,4.2545,4.3175,4.3723,4.3165,4.3023,4.3036,4.3062,4.2565,4.199,4.1442,4.1337,4.1311,4.1311,4.1311,4.1311,4.1311,4.1311,4.1311,4.1311,4.1311,4.1076,4.0501,4.0435,3.9926,3.8841,3.8736,3.82,3.7116,3.7063,3.6763,3.6188,3.5652,3.5365,3.5325,3.4724,3.4424,4.795,4.8512,4.9022,4.9714,4.9584,4.9257,4.9113,4.8407,4.7689,4.7344,4.66,4.6016,0.0,0.0,0.0,4.6408,4.6839,0.0,4.7885,4.7963,0.0,4.7317,0.0,4.7113,4.6538,4.6734,0.0,0.0,4.6355,4.6774,4.7911,4.7702,4.7754,4.8172,4.8185,4.8185,4.8185,4.8185,4.8185,4.8185,4.8028,4.7675,4.71,4.6525,4.6104,4.5787,4.5338,4.5609,4.6374,4.6374,4.7345,4.871,4.7878,4.8745,5.0302,4.9513,4.9112,4.9091,4.9607,4.9108,4.7886,4.5656,4.5135,4.5221,4.4205,4.4963,4.6005,4.5258,4.597,4.6785,4.6189,4.5539,4.4993,4.4738,4.484,4.4993,4.4687,4.5472,4.5813,4.4472,4.3553,4.3154,4.3585,4.2827,4.2172,4.1964,4.1585,4.1311,4.1311,4.1311,4.1311,4.1311,4.1311,4.1311,4.1311,4.1311,4.1246,4.1102,4.0671,4.0278,3.9991,3.9155,3.8566,3.8279,3.7874,3.7599,3.7442,3.6854,3.6345,3.5887,3.5325,3.4829,4.9035,4.9584,4.9963,5.0498,5.0237,4.9701,4.9205,4.8368,4.7492,4.6691,4.6025,4.5545,4.5229,4.5232,0.0,0.0,0.0,0.0,4.7702,4.7819,4.7793,0.0,4.7702,0.0,4.7257,4.7296,4.731,0.0,4.6931,4.7061,4.7767,4.7754,4.7858,4.8172,4.8185,4.8185,4.8185,4.8185,4.8185,4.8185,4.8185,4.8029,4.7625,4.6829,4.6544,4.665,0.0,4.6503,4.7126,4.7587,4.8496,4.9513,4.8944,4.9757,5.112,5.0522,5.0096,4.9837,4.9651,4.9604,4.9327,4.7199,4.6688,4.6725,4.5712,4.6338,4.7269,4.6467,4.7322,4.8328,4.7748,4.7227,4.6618,4.5734,4.6178,4.6618,4.5683,4.6718,4.7271,4.5714,4.4517,4.3794,4.3859,4.3742,4.334,4.2341,4.2327,4.2123,4.1387,4.1311,4.1311,4.1311,4.1311,4.1311,4.1311,4.1311,4.1311,4.1311,4.0997,4.0697,4.0422,3.9573,3.8985,3.8723,3.8174,3.79,3.79,3.7299,3.6828,3.6488,3.5913,3.5469,5.0342,5.0786,5.0877,5.1269,5.0956,5.0263,4.9113,4.8329,4.7427,4.5937,0.0,4.5294,4.4826,4.4668,4.489,4.5637,0.0,4.6055,4.727,4.7317,4.7545,4.812,4.8185,4.8185,4.8185,4.7741,4.7649,4.8146,4.8185,4.7963,4.7479,4.7845,4.8223,4.8392,4.8405,4.8508,4.8682,4.8508,4.8405,4.8405,4.8405,4.8272,4.7945,4.7243,4.7285,4.7889,0.0,0.0,4.8282,4.9205,4.9674,4.982,4.9674,5.0268,5.1167,5.1026,5.1073,5.0984,4.9589,4.9634,5.0196,4.9357,4.8791,4.8268,4.7384,4.7746,4.8268,4.7384,4.8219,4.9327,4.8934,4.8792,4.8258,4.6454,4.7426,4.8224,4.6454,4.7476,4.8319,4.6875,4.5702,4.4781,4.4322,4.4938,4.4846,4.2937,4.3289,4.3193,4.1631,4.1363,4.1311,4.1311,4.1311,4.1311,4.1311,4.1311,4.1311,4.1311,4.1311,4.1089,4.0553,4.0004,3.9468,3.8945,3.8331,3.8018,3.8004,3.7416,3.709,3.6998,3.6462,3.6188,5.0446,5.0786,5.0694,5.0289,4.978,4.9074,4.7898,4.6826,0.0,0.0,4.5177,4.4798,4.4748,4.4668,4.5075,4.6146,4.5937,4.6186,4.7806,4.7623,4.7545,0.0,4.8185,0.0,0.0,0.0,0.0,0.0,0.0,4.8133,4.8041,4.7689,4.8122,4.9576,4.9589,5.0084,5.1086,5.0084,4.9589,4.9589,4.9589,4.8843,4.7481,4.8681,4.8533,4.7384,0.0,0.0,4.9366,4.9513,5.011,5.0822,4.9965,5.0268,5.1073,5.022,5.0427,5.1152,5.0892,5.0894,5.07,4.874,4.856,4.909,4.8909,4.9,4.909,4.8909,4.9417,5.0046,4.9951,4.9695,4.9354,4.8948,4.9144,4.9354,4.8948,4.9144,4.9075,4.7951,4.6829,4.6084,4.5976,4.5714,4.5373,4.4964,4.4302,4.339,4.2182,4.1611,4.1311,4.1311,4.1311,4.1311,4.1311,4.1311,4.1311,4.1311,4.1311,4.1272,4.1167,4.0592,4.0226,4.0122,3.9102,3.8566,3.8566,3.8018,3.7495,3.6998,3.6894,3.658,5.0903,5.1217,5.1073,5.0498,4.9714,4.8773,4.7597,0.0,0.0,0.0,4.4931,4.4668,4.4668,4.4668,4.4918,4.548,4.5349,4.5571,4.6695,4.6878,4.71,4.7675,4.8002,0.0,0.0,0.0,0.0,0.0,0.0,4.8185,4.8185,4.8462,4.9037,4.9845,5.0518,5.1127,5.1688,5.1127,5.0851,5.0851,5.0851,5.0381,4.9468,4.9682,4.93,4.8466,4.8724,0.0,4.9611,5.022,5.0728,5.1167,5.0618,5.0775,5.112,5.0618,5.0775,5.1214,5.1214,5.1214,5.1016,4.994,4.9664,4.9778,4.9778,4.9778,4.9778,4.9778,5.0242,5.0704,5.0704,5.0585,5.0268,4.9722,4.9625,4.9771,5.0316,4.9965,4.9464,4.8944,4.7993,4.7229,4.7229,4.7452,4.7345,4.6472,4.5619,4.4584,4.3222,4.2003,4.1311,4.1311,4.1311,4.1311,4.1311,4.1311,4.1311,4.1311,4.1311,4.1311,4.1311,4.0736,4.0409,4.0409,3.9599,3.9181,3.9181,3.8606,3.8174,3.7887,3.7599,3.7312,5.1152,5.1505,5.1439,5.076,4.974,4.8577,4.7414,4.6264,0.0,4.4826,4.4668,4.4642,4.4565,4.4552,4.4591,0.0,4.4539,4.4735,4.5676,4.6094,4.6552,0.0,4.7832,0.0,0.0,0.0,0.0,0.0,0.0,0.0,4.8566,4.9646,5.0406,5.0629,5.1565,5.2176,5.2459,5.2176,5.2054,5.2054,5.2054,5.1736,5.1142,5.0703,5.0183,4.9625,4.982,0.0,0.0,5.087,5.1214,5.1214,5.1214,5.1214,5.1214,5.1214,5.1214,5.1214,5.1214,5.1214,5.1214,5.1214,5.0823,5.0405,5.0405,5.0405,5.0405,5.0405,5.0764,5.1214,5.1214,5.1214,5.0979,5.0124,4.9917,5.0172,5.1026,5.0522,4.9868,4.9611,4.8894,4.8332,4.8332,4.9057,4.9144,4.7829,4.7184,4.6125,4.422,4.2711,4.1779,4.166,4.1634,4.1547,4.1311,4.1498,4.1547,4.1311,4.1311,4.1311,4.1311,4.0853,4.0605,4.0605,4.0069,3.9782,3.9782,3.9063,3.871,3.8697,3.8161,3.79,5.0694,5.1217,5.1335,5.0237,4.9113,4.7963,4.6813,0.0,4.4787,4.4681,4.4668,4.4565,4.4042,4.3951,4.4121,4.4643,4.3859,4.3938,4.6094,4.6003,4.6107,4.7148,0.0,0.0,0.0,0.0,0.0,0.0,0.0,0.0,4.9745,5.0851,5.2,5.303,5.3189,5.3756,5.486,5.3808,5.3241,5.3241,5.3241,5.2091,5.0015,5.1965,5.1685,4.9659,0.0,0.0,0.0,5.1167,5.1214,5.1214,5.1214,5.1214,5.1214,5.1214,5.1214,5.1214,5.1214,5.1214,5.1214,5.1214,5.1184,5.1124,5.1124,5.1124,5.1124,5.1124,5.1169,5.1214,5.1214,5.1214,5.1182,5.1073,5.1073,5.1073,5.1167,5.112,5.076,4.9771,4.9513,4.9464,4.9464,4.9513,4.9547,4.9392,4.8861,4.7524,4.4857,4.3999,4.3331,4.2714,4.2647,4.2284,4.1361,4.215,4.2284,4.1361,4.1311,4.1311,4.1311,4.1259,4.1232,4.1232,4.0644,4.0344,4.0331,3.9246,3.871,3.8697,3.8161,3.79,4.991,5.0407,5.0381,4.9597,4.8525,4.7466,4.6669,0.0,4.4668,4.4668,4.4668,4.4552,4.3977,4.3926,4.3833,4.3716,4.3323,4.335,4.4264,4.45,4.5255,4.7159,0.0,0.0,0.0,0.0,0.0,0.0,0.0,0.0,5.1986,5.2484,5.2924,5.3413,5.4082,5.4692,5.5194,5.4743,5.4266,5.3881,5.3881,5.2986,5.128,5.2174,5.1828,5.057,0.0,0.0,0.0,5.1214,5.1214,5.1214,5.1214,5.1214,5.1214,5.1214,5.1214,5.1214,5.1214,5.1214,5.1214,5.1214,5.1214,5.1214,5.1214,5.1214,5.1214,5.1214,5.1214,5.1214,5.1214,5.1214,5.1214,5.1214,5.1214,5.1214,5.1214,5.1214,5.1058,5.0665,5.057,5.057,5.057,5.057,5.057,5.057,4.949,4.8153,4.6707,4.5475,4.4428,4.3757,4.3163,4.2889,4.3095,4.2937,4.2647,4.2235,4.1634,4.1311,4.1311,4.1311,4.1311,4.1311,4.1076,4.0958,4.0958,3.9808,3.9246,3.9233,3.8331,3.79,4.9008,4.9636,4.9766,4.9218,4.8198,4.7179,0.0,0.0,4.4668,4.4668,4.4668,4.45,4.3755,4.4059,4.4085,4.3167,4.3553,4.3915,4.374,4.4071,4.4982,0.0,0.0,0.0,0.0,0.0,0.0,0.0,0.0,0.0,0.0,5.3912,5.3912,5.3912,5.4743,5.5194,5.5194,5.5194,5.4865,5.4206,5.4206,5.3503,5.2202,5.2202,5.1843,5.1214,0.0,0.0,0.0,5.1214,5.1214,5.1214,5.1214,5.1214,5.1214,5.1214,5.1214,5.1214,5.1214,5.1214,5.1214,5.1214,5.1214,5.1214,5.1214,5.1214,5.1214,5.1214,5.1214,5.1214,5.1214,5.1214,5.1214,5.1214,5.1214,5.1214,5.1214,5.1214,5.1214,5.1214,5.1214,5.1214,5.1214,5.1214,5.1214,5.1214,5.0218,4.9018,4.7934,4.6741,4.5718,4.4862,4.4111,4.3862,4.4266,4.3923,4.345,4.284,4.215,4.1597,4.1311,4.1311,4.1311,4.1311,4.1311,4.1311,4.1311,4.0331,3.9769,3.9586,3.8606,3.8057,4.8041,4.9022,4.9766,4.9218,4.8198,4.7179,0.0,4.5571,4.4668,4.4668,4.4668,4.4328,4.3245,4.4342,4.4942,4.3271,4.4834,0.0,4.5448,4.544,0.0,0.0,0.0,0.0,0.0,0.0,0.0,0.0,0.0,0.0,0.0,5.5194,5.5194,5.5194,5.5194,5.5194,5.5194,5.5194,5.4865,5.4206,5.4206,5.3503,5.2202,5.2202,5.1843,0.0,0.0,0.0,0.0,5.1214,5.1214,5.1214,5.1214,5.1214,5.1214,5.1214,5.1214,5.1214,5.1214,5.1214,5.1214,5.1214,5.1214,5.1214,5.1214,5.1214,5.1214,5.1214,5.1214,5.1214,5.1214,5.1214,5.1214,5.1214,5.1214,5.1214,5.1214,5.1214,5.1214,5.1214,5.1214,5.1214,5.1214,5.1214,5.1214,5.1214,5.1214,5.0347,4.8086,4.7771,4.7262,4.5924,4.5779,4.5372,4.4406,4.519,4.4932,4.2937,4.2792,4.2333,4.1361,4.1311,4.1311,4.1311,4.1311,4.1311,4.1311,4.071,4.0135,3.9599,3.8985,3.841,4.6173,4.6983,4.7519,4.7349,4.6734,4.6064,4.5937,4.5297,4.4938,4.5702,4.5861,4.5633,4.4855,4.5751,4.582,4.3414,4.477,0.0,0.0,0.0,0.0,0.0,0.0,0.0,0.0,0.0,0.0,0.0,0.0,0.0,0.0,5.476,5.473,5.5179,5.5194,5.497,5.4521,5.4521,5.3952,5.283,5.283,5.2381,5.1528,5.1528,0.0,0.0,0.0,0.0,0.0,5.1214,5.1214,5.1214,5.1214,5.1214,5.1214,5.1214,5.1214,5.1214,5.1214,5.1214,5.1214,5.1214,5.1214,5.1214,5.1214,5.1214,5.1214,5.1214,5.1214,5.1214,5.1214,5.1214,5.1214,5.1214,5.1214,5.1214,5.1214,5.1214,5.1214,5.1214,5.1214,5.1214,5.1214,5.1214,5.1214,5.1214,5.1214,5.076,4.9603,4.9052,4.8505,4.7585,4.7096,4.6697,4.6373,4.6018,4.5553,4.4886,4.3579,4.2647,4.2333,4.2333,4.2333,4.2333,4.2333,4.2333,4.2333,4.1027,3.9926,3.8985,3.8423,3.807,4.4918,4.5715,4.6212,4.6421,4.6362,4.6189,4.6189,4.6076,4.615,4.6867,4.7023,4.6844,4.6187,4.7163,4.7186,4.4567,4.6336,0.0,0.0,0.0,0.0,0.0,0.0,0.0,0.0,0.0,0.0,0.0,0.0,0.0,0.0,5.4566,5.4401,5.4805,5.4566,5.4236,5.3832,5.3817,5.3279,5.2202,5.2202,5.1858,5.1214,5.1214,0.0,0.0,0.0,0.0,0.0,5.1214,5.1214,5.1214,5.1214,5.1214,5.1214,5.1214,5.1214,5.1214,5.1214,5.1214,5.1214,5.1214,5.1214,5.1214,5.1214,5.1214,5.1214,5.1214,5.1214,5.1214,5.1214,5.1214,5.1214,5.1214,5.1214,5.1214,5.1214,5.1214,5.1214,5.1214,5.1214,5.1214,5.1214,5.1214,5.1214,5.1214,5.1214,5.0943,5.0285,4.9673,4.906,4.8356,4.7698,4.7309,4.7309,4.6726,4.6211,4.5824,4.461,4.3768,4.3355,4.3355,4.3355,4.3355,4.3355,4.3163,4.2792,4.1584,4.0609,3.9879,3.9143,3.8785,0.0,4.5064,4.5734,4.6271,4.6823,4.72,4.7241,4.756,0.0,4.8066,4.8088,4.7877,4.7313,4.8577,4.8933,4.6439,0.0,0.0,0.0,4.8326,0.0,0.0,0.0,0.0,0.0,0.0,0.0,0.0,0.0,0.0,0.0,5.4491,5.4117,5.4072,5.3399,5.3054,5.3114,5.3114,5.277,5.2127,5.2127,5.1813,5.1214,5.1214,0.0,0.0,0.0,0.0,0.0,5.1214,5.1214,5.1214,5.1214,5.1214,5.1214,5.1214,5.1214,5.1214,5.1214,5.1214,5.1214,5.1214,5.1214,5.1214,5.1214,5.1214,5.1214,5.1214,5.1214,5.1214,5.1214,5.1214,5.1214,5.1214,5.1214,5.1214,5.1214,5.1214,5.1214,5.1214,5.1214,5.1214,5.1214,5.1214,5.1214,5.1214,5.1214,5.1005,5.0345,4.9703,4.9075,4.8416,4.7728,4.7309,4.7309,4.7309,4.6916,4.5973,4.5824,4.5372,4.4452,4.4406,4.4406,4.4406,4.4406,4.3876,4.2792,4.229,4.1957,4.1883,4.0867,4.0337,4.2783,0.0,4.555,4.5684,4.6408,4.716,0.0,4.7097,4.6989,4.8856,4.8801,4.8413,4.8254,4.967,4.9633,4.6005,0.0,0.0,0.0,0.0,0.0,0.0,0.0,0.0,0.0,0.0,0.0,0.0,0.0,0.0,0.0,5.3788,5.3189,5.2695,5.2022,5.1917,5.2426,5.2441,5.2097,5.1454,5.1454,5.1364,5.1214,5.1214,0.0,0.0,0.0,0.0,5.1214,5.1214,5.1214,5.1214,5.1214,5.1214,5.1214,5.1214,5.1214,5.1214,5.1214,5.1214,5.1214,5.1214,5.1214,5.1214,5.1214,5.1214,5.1214,5.1214,5.1214,5.1214,5.1214,5.1214,5.1214,5.1214,5.1214,5.1214,5.1214,5.1214,5.1214,5.1214,5.1214,5.1214,5.1214,5.1214,5.1214,5.1214,5.1214,5.1154,5.1005,4.9987,4.9254,4.9105,4.7997,4.7309,4.7309,4.7309,4.7207,4.6975,4.6211,4.5689,4.5463,4.5463,4.5463,4.5463,4.5463,4.4563,4.2792,4.297,4.2666,4.1883,4.1979,4.1619,4.2488,4.3859,4.539,4.5459,4.6409,4.7506,4.8531,4.8114,4.7985,4.9574,4.9345,4.8936,4.8936,4.9679,4.9517,4.7015,4.835,0.0,0.0,0.0,0.0,0.0,0.0,0.0,0.0,0.0,0.0,0.0,0.0,0.0,0.0,5.3099,5.2561,5.2217,5.1558,5.1394,5.1753,5.1753,5.1573,5.1214,5.1214,5.1214,5.1214,5.1214,0.0,0.0,0.0,0.0,5.1214,5.1214,5.1214,5.1214,5.1214,5.1214,5.1214,5.1214,5.1214,5.1214,5.1214,5.1214,5.1214,5.1214,5.1214,5.1214,5.1214,5.1214,5.1214,5.1214,5.1214,5.1214,5.1214,5.1214,5.1214,5.1214,5.1214,5.1214,5.1214,5.1214,5.1214,5.1214,5.1214,5.1214,5.1214,5.1214,5.1214,5.1214,5.1214,5.1214,5.1214,5.0331,4.9598,4.9344,4.8356,4.7638,4.7339,4.7309,4.7309,4.7309,4.6785,4.6491,4.6491,4.6491,4.6491,4.6491,4.6018,4.5267,4.4191,4.4407,4.4237,4.3686,4.3671,4.3387,4.3142,4.4391,4.5684,4.5815,4.6874,4.8188,4.9397,4.9343,4.9209,5.0016,4.9643,4.9194,4.9284,4.9314,4.906,4.8252,0.0,0.0,0.0,0.0,0.0,0.0,0.0,0.0,0.0,0.0,0.0,0.0,0.0,0.0,0.0,5.2501,5.2157,5.2052,5.1513,5.1214,5.1214,5.1214,5.1214,5.1214,5.1214,5.1214,5.1214,5.1214,5.1214,0.0,0.0,0.0,5.1214,5.1214,5.1214,5.1214,5.1214,5.1214,5.1214,5.1214,5.1214,5.1214,5.1214,5.1214,5.1214,5.1214,5.1214,5.1214,5.1214,5.1214,5.1214,5.1214,5.1214,5.1214,5.1214,5.1214,5.1214,5.1214,5.1214,5.1214,5.1214,5.1214,5.1214,5.1214,5.1214,5.1214,5.1214,5.1214,5.1214,5.1214,5.1214,5.1214,5.1214,5.0599,4.9987,4.9374,4.8686,4.8012,4.7369,4.7309,4.7309,4.7309,4.7309,4.7309,4.7309,4.7309,4.7309,4.7309,4.6447,4.5973,4.5779,4.5973,4.5973,4.5809,4.5419,4.5157,4.4978,4.6342,4.7745,4.7492,4.8263,4.9222,4.992,4.8805,4.8102,4.9822,4.9284,4.8655,4.9209,4.9314,4.8865,4.7653,0.0,4.9613,0.0,0.0,0.0,0.0,0.0,0.0,0.0,0.0,0.0,0.0,0.0,0.0,0.0,0.0,5.1947,5.1394,5.1274,5.1214,5.1214,5.1214,5.1214,5.1214,5.1214,5.1214,5.1214,5.1214,5.1214,0.0,0.0,5.1214,5.1214,5.1214,5.1214,5.1214,5.1214,5.1214,5.1214,5.1214,5.1214,5.1214,5.1214,5.1214,5.1214,5.1214,5.1214,5.1214,5.1214,5.1214,5.1214,5.1214,5.1214,5.1214,5.1214,5.1214,5.1214,5.1214,5.1214,5.1214,5.1214,5.1214,5.1214,5.1214,5.1214,5.1214,5.1214,5.1214,5.1214,5.1214,5.1214,5.1214,5.1214,5.0599,4.9987,4.9374,4.8686,4.8012,4.7369,4.7309,4.7309,4.7309,4.7309,4.7309,4.7309,4.7309,4.7309,4.7309,4.7164,4.6638,4.5779,4.6638,4.6638,4.5824,4.6579,4.6491,4.558,4.6913,4.8342,4.8577,4.8968,4.9569,5.0541,4.9254,4.8192,4.9449,4.8671,4.7952,4.8626,4.8745,4.8775,4.888,0.0,0.0,0.0,0.0,0.0,0.0,0.0,0.0,0.0,0.0,0.0,0.0,0.0,0.0,0.0,0.0,5.1528,5.1229,5.1214,5.1214,5.1214,5.1214,5.1214,5.1214,5.1214,5.1214,5.1214,5.1214,5.1214,5.1214,0.0,5.1214,5.1214,5.1214,5.1214,5.1214,5.1214,5.1214,5.1214,5.1214,5.1214,5.1214,5.1214,5.1214,5.1214,5.1214,5.1214,5.1214,5.1214,5.1214,5.1214,5.1214,5.1214,5.1214,5.1214,5.1214,5.1214,5.1214,5.1214,5.1214,5.1214,5.1214,5.1214,5.1214,5.1214,5.1214,5.1214,5.1214,5.1214,5.1214,5.1214,5.1214,5.1214,5.0945,5.0526,4.9868,4.9209,4.8551,4.7893,4.7519,4.7309,4.7309,4.7309,4.7309,4.7309,4.7309,4.7309,4.7309,4.7309,4.7062,4.6594,4.7062,4.7062,4.6638,4.7062,4.7062,4.6297,4.7318,4.8446,4.9149,4.9314,4.9568,5.072,4.9703,4.8701,4.9359,4.8566,4.7923,4.8416,4.8386,0.0,4.9823,4.9718,0.0,0.0,0.0,0.0,0.0,0.0,0.0,0.0,0.0,0.0,0.0,0.0,0.0,0.0,0.0,5.1214,5.1214,5.1214,5.1214,5.1214,5.1214,5.1214,5.1214,5.1214,5.1214,5.1214,5.1214,5.1214,5.1214,5.1214,5.1214,5.1214,5.1214,5.1214,5.1214,5.1214,5.1214,5.1214,5.1214,5.1214,5.1214,5.1214,5.1214,5.1214,5.1214,5.1214,5.1214,5.1214,5.1214,5.1214,5.1214,5.1214,5.1214,5.1214,5.1214,5.1214,5.1214,5.1214,5.1214,5.1214,5.1214,5.1214,5.1214,5.1214,5.1214,5.1214,5.1214,5.1214,5.1214,5.1214,5.1214,5.1214,5.1214,5.096,5.0255,4.9793,4.9164,4.8356,4.7683,4.7309,4.7309,4.7309,4.7309,4.7309,4.7309,4.7309,4.7309,4.7309,4.7309,4.7309,4.7309,4.7309,4.7309,4.7309,4.7309,4.7866,4.8208,4.8446,4.9149,4.9314,4.9449,5.0106,4.9733,4.9374,4.9986,4.9613,4.9179,4.9239,4.8701,4.8521,4.9269,0.0,0.0,0.0,0.0,0.0,0.0,0.0,0.0,0.0,0.0,0.0,0.0,0.0,0.0,0.0,0.0,0.0,5.1214,5.1214,5.1214,5.1214,5.1214,5.1214,5.1214,5.1214,5.1214,5.1214,5.1214,5.1214,5.1214,5.1214,5.1214,5.1214,5.1214,5.1214,5.1214,5.1214,5.1214,5.1214,5.1214,5.1214,5.1214,5.1214,5.1214,5.1214,5.1214,5.1214,5.1214,5.1214,5.1214,5.1214,5.1214,5.1214,5.1214,5.1214,5.1214,5.1214,5.1214,5.1214,5.1214,5.1214,5.1214,5.1214,5.1214,5.1214,5.1214,5.1214,5.1214,5.1214,5.1214,5.1214,5.1214,5.1214,5.1214,5.096,5.0255,5.0151,4.9658,4.8386,4.7683,4.7309,4.7309,4.7309,4.7309,4.7309,4.7309,4.7309,4.7309,4.7309,4.7309,4.7309,4.7309,4.7309,4.7309,4.7309,4.7309,4.7565,4.7683,4.7833,4.8491,4.87,4.894,4.9956,4.9733,4.9374,4.9583,4.9434,4.9314,4.9314,0.0,5.0062,4.9898,0.0,0.0,0.0,0.0,0.0,0.0,0.0,0.0,0.0,0.0,0.0,0.0,0.0,0.0,0.0,0.0,0.0,5.1214,5.1214,5.102,5.0569,5.0569,5.0406,5.0017,5.0825,5.1214,5.1214,5.1214,5.1214,5.1214,5.1214,5.1214,5.1214,5.1214,5.1214,5.1214,5.1214,5.1214,5.1214,5.1214,5.1214,5.1214,5.1214,5.1214,5.1214,5.1214,5.1214,5.1214,5.1214,5.1214,5.1214,5.1214,5.1214,5.1214,5.1214,5.1214,5.1214,5.1214,5.1214,5.1214,5.1214,5.1214,5.1214,5.1214,5.1214,5.1214,5.1214,5.1214,5.1214,5.1214,5.1214,5.1214,5.1214,5.1214,5.1124,5.0823,5.0435,4.9657,4.8401,4.8057,4.7743,4.7339,4.7309,4.7309,4.7309,4.7309,4.7309,4.7309,4.7309,4.7309,4.7309,4.7309,4.7309,4.7309,4.7309,4.7309,4.7222,4.7309,4.7414,4.7863,4.8132,4.8566,4.9688,4.9748,4.9628,4.9838,4.9599,4.9374,4.9538,5.0137,0.0,0.0,0.0,0.0,0.0,0.0,0.0,0.0,0.0,0.0,0.0,0.0,0.0,0.0,0.0,0.0,0.0,0.0,0.0,0.0,5.0973,5.0644,5.0196,4.9986,4.9703,4.9329,5.0167,5.0601,5.0601,5.0601,5.0601,5.0601,5.0601,5.0601,5.0616,5.0825,5.0988,5.1214,5.1214,5.1214,5.1214,5.1214,5.1214,5.1214,5.1214,5.1214,5.1214,5.1214,5.1214,5.1214,5.1214,5.1214,5.1214,5.1214,5.1214,5.1214,5.1214,5.1214,5.1214,5.1214,5.1214,5.1214,5.1214,5.1214,5.1214,5.1214,5.1214,5.1214,5.1214,5.1214,5.1214,5.1214,5.1214,5.1214,5.1214,5.1214,5.1214,5.1214,5.0584,4.9822,4.897,4.8521,4.8087,4.7638,4.7414,4.7309,4.7309,4.7309,4.7309,4.7309,4.7309,4.7309,4.7309,4.7309,4.7309,4.7309,4.7309,4.7309,4.7179,4.7309,4.7309,4.7309,4.7803,4.8461,4.9164,4.9763,5.036,5.1065,5.0182,4.9479,5.0076,4.9718,0.0,0.0,0.0,0.0,0.0,0.0,0.0,0.0,0.0,0.0,0.0,0.0,0.0,0.0,0.0,0.0,0.0,0.0,0.0,0.0,5.0524,5.0181,5.0166,4.9583,4.9299,4.9284,4.9284,4.9299,4.9314,4.9314,4.9314,4.9314,4.9314,4.9314,4.9359,4.9957,5.0569,5.1214,5.1199,5.1214,5.1214,5.1214,5.1214,5.1214,5.1214,5.1214,5.1214,5.1214,5.1214,5.1214,5.1214,5.1214,5.1214,5.1214,5.1214,5.1214,5.1214,5.1214,5.1214,5.1214,5.1214,5.1214,5.1214,5.1214,5.1214,5.1214,5.1214,5.1214,5.1214,5.1214,5.1214,5.1214,5.1214,5.1214,5.1214,5.1214,5.1214,5.1214,5.0584,5.0196,5.0196,4.9045,4.8297,4.8282,4.7683,4.7309,4.7309,4.7309,4.7309,4.7309,4.7309,4.7309,4.7309,4.7309,4.7309,4.7309,4.7309,4.7309,4.6887,4.7019,4.7062,4.7251,4.7803,4.8461,4.9164,4.9419,4.9733,5.0345,5.0181,5.0017,5.0166,5.0451,0.0,0.0,0.0,0.0,0.0,0.0,0.0,0.0,0.0,0.0,0.0,0.0,0.0,0.0,0.0,0.0,0.0,0.0,0.0,0.0,4.9898,4.9329,4.8865,4.8671,4.8341,4.7878,4.7878,4.8371,4.9314,4.9314,4.9314,4.9314,4.9314,4.9314,4.9329,4.9479,4.9942,5.0435,5.0032,5.0406,5.1154,5.0659,5.0779,5.1214,5.1214,5.1214,5.1214,5.1214,5.1214,5.1214,5.1214,5.1214,5.1214,5.1214,5.1214,5.1214,5.1214,5.1214,5.1214,5.1214,5.1214,5.1214,5.1214,5.1214,5.1214,5.1214,5.1214,5.1214,5.1214,5.1214,5.1214,5.1214,5.1214,5.1214,5.1214,5.1214,5.1214,5.1214,5.1003,5.0689,5.0226,4.9837,4.9269,4.8341,4.8102,4.7788,4.7324,4.7309,4.7309,4.7309,4.7309,4.7309,4.7309,4.7309,4.7309,4.7309,4.7309,4.7309,4.6931,4.7062,4.718,4.758,4.8192,4.885,4.9508,4.9853,5.0152,5.0495,5.0375,5.027,5.0539,5.0689,0.0,0.0,0.0,0.0,0.0,0.0,0.0,0.0,0.0,0.0,0.0,0.0,0.0,0.0,0.0,0.0,0.0,0.0,0.0,0.0,4.9209,4.8686,4.8282,4.8027,4.7698,4.7309,4.7309,4.7713,4.8491,4.8491,4.8491,4.8491,4.8491,4.8641,4.8925,4.8925,4.9254,4.9823,4.9419,4.9912,5.0734,5.0345,5.0599,5.1214,5.1214,5.1214,5.1214,5.1214,5.1214,5.1214,5.1214,5.1214,5.1214,5.1214,5.1214,5.1214,5.1214,5.1214,5.1214,5.1214,5.1214,5.1214,5.1214,5.1214,5.1214,5.1214,5.1214,5.1214,5.1214,5.1214,5.1214,5.1214,5.1214,5.1214,5.1214,5.1214,5.1214,5.1214,5.1214,5.1065,5.0614,5.0345,4.9852,4.9105,4.8566,4.8102,4.7713,4.7444,4.7309,4.7309,4.7309,4.7309,4.7309,4.7309,4.7309,4.7309,4.7309,4.7309,4.7121,4.7266,4.7415,4.8117,4.8865,4.9523,5.0136,5.0749,5.1199,5.1139,5.0659,5.0465,5.1109,5.0689,0.0,0.0,0.0,0.0,0.0,0.0,0.0,0.0,0.0,0.0,0.0,0.0,0.0,0.0,0.0,0.0,0.0,0.0,0.0,0.0,4.8536,4.8192,4.8192,4.7593,4.7309,0.0,4.7309,4.7309,4.7309,4.7309,4.7309,4.7309,4.7309,4.7653,4.8192,4.8192,4.8581,4.9209,4.9149,4.9523,5.0091,5.0031,5.0465,5.1124,5.1124,5.1169,5.1214,5.1214,5.1214,5.1214,5.1214,5.1214,5.1214,5.1214,5.1214,5.1214,5.1214,5.1214,5.1214,5.1214,5.1214,5.1214,5.1214,5.1214,5.1214,5.1214,5.1214,5.1214,5.1214,5.1214,5.1214,5.1214,5.1214,5.1214,5.1214,5.1214,5.1214,5.1214,5.1214,5.1214,5.1214,5.0629,5.0255,5.0196,4.9119,4.8416,4.8282,4.7653,4.7309,4.7309,4.7309,4.7309,4.7309,4.7309,4.7309,4.7309,4.7309,4.7309,4.6683,4.6858,4.7226,4.8073,4.9164,5.0197,5.0855,5.1124,5.1065,5.051,5.0704,5.105,5.1184,0.0,0.0,0.0,0.0,0.0,0.0,0.0,0.0,0.0,0.0,0.0,0.0,0.0,0.0,0.0,0.0,0.0,0.0,0.0,0.0,4.8506,4.7863,4.7519,4.7519,4.7369,4.7309,0.0,4.7309,4.7309,4.7309,4.7309,4.7309,4.7309,4.7309,4.7384,4.7519,4.7519,4.7908,4.8446,4.7938,4.8446,4.9419,4.8895,4.9449,5.0405,5.0405,5.0749,5.1214,5.1214,5.1214,5.1214,5.1214,5.1214,5.1214,5.1214,5.1214,5.1214,5.1214,5.1214,5.1214,5.1214,5.1214,5.1214,5.1214,5.1214,5.1214,5.1214,5.1214,5.1214,5.1214,5.1214,5.1214,5.1214,5.1214,5.1214,5.1214,5.1214,5.1214,5.1214,5.1214,5.1214,5.1214,5.1094,5.0749,5.0226,4.9927,4.9359,4.8327,4.7653,4.7309,4.7309,4.7309,4.7309,4.7309,4.7309,4.7309,4.7309,4.7309,4.7309,4.6624,4.68,4.7198,4.8462,4.9748,5.0749,5.1139,5.1214,5.1124,5.0734,5.0943,5.1214,0.0,0.0,0.0,0.0,0.0,0.0,0.0,0.0,0.0,0.0,0.0,0.0,0.0,0.0,0.0,0.0,0.0,0.0,0.0,4.7997,4.7818,4.7818,4.7489,4.7309,4.7309,4.7309,4.7309,4.7309,4.7309,4.7309,4.7309,4.7309,4.7309,4.7309,4.7309,4.7309,4.7309,4.7309,4.7504,4.7788,4.7444,4.7923,4.8805,4.8416,4.9119,5.0196,5.0196,5.0629,5.1214,5.1214,5.1214,5.1214,5.1214,5.1214,5.1214,5.1214,5.1214,5.1214,5.1214,5.1214,5.1214,5.1214,5.1214,5.1214,5.1214,5.1214,5.1214,5.1214,5.1214,5.1214,5.1214,5.1214,5.1214,5.1214,5.1214,5.1214,5.1214,5.1214,5.1214,5.1214,5.1214,5.1214,5.1214,5.1214,5.1065,5.0689,5.036,4.9882,4.9254,4.8297,4.7623,4.7309,4.7309,4.7309,4.7309,4.7309,4.7309,4.7309,4.7309,4.7309,4.6741,4.7005,4.745,4.8776,5.0092,5.105,5.105,5.1139,5.1214,5.1214,5.1214,0.0,0.0,0.0,0.0,0.0,0.0,0.0,0.0,0.0,0.0,0.0,0.0,0.0,0.0,0.0,0.0,0.0,0.0,0.0,4.7339,4.7309,4.7309,4.7309,4.7309,4.7309,4.7309,4.7309,4.7309,4.7309,4.7309,4.7309,4.7309,4.7309,4.7309,4.7309,4.7309,4.7309,4.7309,4.7309,4.7309,4.7309,4.7309,4.7638,4.8117,4.8117,4.888,4.9867,4.9986,5.0496,5.1065,5.1184,5.1214,5.1214,5.1214,5.1214,5.1214,5.1214,5.1214,5.1214,5.1214,5.1214,5.1214,5.1214,5.1214,5.1214,5.1214,5.1214,5.1214,5.1214,5.1214,5.1214,5.1214,5.1214,5.1214,5.1214,5.1214,5.1214,5.1214,5.1214,5.1214,5.1214,5.1214,5.1214,5.1214,5.1214,5.1214,5.1214,5.0659,5.0315,5.0196,4.9194,4.8252,4.7489,4.7369,4.7309,4.7309,4.7309,4.7309,4.7309,4.7309,4.7309,4.655,4.7362,4.8148,4.8371,4.9404,5.0315,5.0315,5.0764,5.1214,0.0,0.0,0.0,0.0,0.0,0.0,0.0,0.0,0.0,0.0,0.0,0.0,0.0,0.0,0.0,0.0,0.0,0.0,0.0,0.0,0.0,4.7309,4.7309,4.7309,4.7309,4.7309,4.7309,4.7309,4.7309,4.7309,4.7309,4.7309,4.7309,4.7309,4.7309,4.7309,4.7309,4.7309,4.7309,4.7309,4.7309,4.7309,4.7309,4.7309,4.7354,4.7429,4.7429,4.7908,4.8626,4.9194,4.9823,5.042,5.0988,5.1214,5.1214,5.1214,5.1214,5.1214,5.1214,5.1214,5.1214,5.1214,5.1214,5.1214,5.1214,5.1214,5.1214,5.1214,5.1214,5.1214,5.1214,5.1214,5.1214,5.1214,5.1214,5.1214,5.1214,5.1214,5.1214,5.1214,5.1214,5.1214,5.1214,5.1214,5.1214,5.1214,5.1214,5.1214,5.1214,5.1139,5.0825,5.0211,5.0031,4.9404,4.8177,4.7593,4.7309,4.7309,4.7309,4.7309,4.7309,4.7309,4.7309,4.6712,4.751,4.8282,4.8282,4.8985,4.9703,4.9703,4.9912,5.0227,0.0,0.0,0.0,0.0,0.0,0.0,0.0,0.0,0.0,0.0,0.0,0.0,0.0,0.0,0.0,0.0,0.0,0.0,0.0,0.0,4.7309,4.7309,4.7309,4.7309,4.7309,4.7309,4.7309,4.7309,4.7309,4.7309,4.7309,4.7309,4.7309,4.7309,4.7309,4.7309,4.7309,4.7309,4.7309,4.7309,4.7309,4.7309,4.7309,4.7309,4.7309,4.7309,4.7309,4.7713,4.8386,4.909,4.9703,5.03,5.0958,5.1214,5.1214,5.1214,5.1214,5.1214,5.1214,5.1214,5.1214,5.1214,5.1214,5.1214,5.1214,5.1214,5.1214,5.1214,5.1214,5.1214,5.1214,5.1214,5.1214,5.1214,5.1214,5.1214,5.1214,5.1214,5.1214,5.1214,5.1214,5.1214,5.1214,5.1214,5.1214,5.1214,5.1214,5.1214,5.1214,5.1214,5.1094,5.0749,5.039,4.9927,4.9389,4.8371,4.7683,4.7309,4.7309,4.7309,4.7309,4.7309,4.7309,4.6873,4.7463,4.8042,4.8042,4.8536,4.906,4.906,0.0,4.9449,0.0,0.0,0.0,0.0,0.0,0.0,0.0,0.0,0.0,0.0,0.0,0.0,0.0,0.0,0.0,0.0,0.0,0.0,0.0,0.0,4.7309,4.7309,4.7309,4.7309,4.7309,4.7309,4.7309,4.7309,4.7309,4.7309,4.7309,4.7309,4.7309,4.7309,4.7309,4.7309,4.7309,4.7309,4.7309,4.7309,4.7309,4.7309,4.7309,4.7309,4.7309,4.7309,4.7309,4.7623,4.8132,4.8835,4.9329,4.9822,5.0705,5.0928,5.1005,5.1169,5.1214,5.1214,5.1214,5.1214,5.1214,5.1214,5.1214,5.1214,5.1214,5.1214,5.1214,5.1214,5.1214,5.1214,5.1214,5.1214,5.1214,5.1214,5.1214,5.1214,5.1214,5.1214,5.1214,5.1214,5.1214,5.1214,5.1214,5.1214,5.1214,5.1214,5.1214,5.1214,5.1214,5.1214,5.1214,5.1214,5.0704,5.036,5.0196,4.9284,4.8371,4.7549,4.7384,4.7309,4.7309,4.7309,4.7309,4.6916,4.7135,4.7354,4.7354,4.7848,4.8341,0.0,0.0,0.0,0.0,0.0,0.0,0.0,0.0,0.0,0.0,0.0,0.0,0.0,0.0,0.0,0.0,0.0,0.0,0.0,0.0,0.0,0.0,0.0,4.7309,4.7309,4.7309,4.7309,4.7309,4.7309,4.7309,4.7309,4.7309,4.7309,4.7309,4.7309,4.7309,4.7309,4.7309,4.7309,4.7309,4.7309,4.7309,4.7309,4.7309,4.7309,4.7309,4.7309,4.7309,4.7309,4.7309,4.7324,4.7459,4.8117,4.8356,4.8596,4.9822,5.024,5.036,5.0988,5.1214,5.1214,5.1214,5.1214,5.1214,5.1214,5.1214,5.1214,5.1214,5.1214,5.1214,5.1214,5.1214,5.1214,5.1214,5.1214,5.1214,5.1214,5.1214,5.1214,5.1214,5.1214,5.1214,5.1214,5.1214,5.1214,5.1214,5.1214,5.1214,5.1214,5.1214,5.1214,5.1214,5.1214,5.1214,5.1214,5.1184,5.0823,5.0196,5.0121,4.9508,4.8237,4.7608,4.7309,4.7309,4.7309,4.7309,4.7121,4.7207,4.7309,4.7309,4.7474,4.7653,4.7653,4.7833,0.0,0.0,0.0,0.0,0.0,0.0,0.0,0.0,0.0,0.0,0.0,0.0,0.0,0.0,0.0,0.0,0.0,0.0,0.0,0.0,0.0,0.0,4.7309,4.7309,4.7309,4.7309,4.7309,4.7309,4.7309,4.7309,4.7309,4.7309,4.7309,4.7309,4.7309,4.7309,4.7309,4.7309,4.7309,4.7309,4.7309,4.7309,4.7309,4.7309,4.7309,4.7309,4.7309,4.7309,4.7309,4.7399,4.8057,4.8282,4.8431,4.9329,4.9898,5.024,5.048,5.0838,5.1214,5.1214,5.1214,5.1214,5.1214,5.1214,5.1214,5.1214,5.1214,5.1214,5.1214,5.1214,5.1214,5.1214,5.1214,5.1214,5.1214,5.1214,5.1214,5.1214,5.1214,5.1214,5.1214,5.1214,5.1214,5.1214,5.1214,5.1214,5.1214,5.1214,5.1214,5.1214,5.1214,5.1214,5.1214,5.1214,5.1109,5.0823,5.0405,4.9598,4.8282,4.8057,4.7713,4.7309,4.7309,4.7309,4.7251,4.7309,4.7309,4.7309,4.7309,4.7309,4.7309,0.0,0.0,0.0,0.0,0.0,0.0,0.0,0.0,0.0,0.0,0.0,0.0,0.0,0.0,0.0,0.0,0.0,0.0,0.0,0.0,0.0,0.0,0.0,4.7309,4.7309,4.7309,4.7309,4.7309,4.7309,4.7309,4.7309,4.7309,4.7309,4.7309,4.7309,4.7309,4.7309,4.7309,4.7309,4.7309,4.7309,4.7309,4.7309,4.7309,4.7309,4.7309,4.7309,4.7309,4.7309,4.7309,4.7369,4.7803,4.7952,4.8057,4.8775,4.9224,4.9613,5.0061,5.0495,5.0883,5.1154,5.1214,5.1214,5.1214,5.1214,5.1214,5.1214,5.1214,5.1214,5.1214,5.1214,5.1214,5.1214,5.1214,5.1214,5.1214,5.1214,5.1214,5.1214,5.1214,5.1214,5.1214,5.1214,5.1214,5.1214,5.1214,5.1214,5.1214,5.1214,5.1214,5.1214,5.1214,5.1214,5.1214,5.1214,5.1214,5.1214,5.0749,4.9986,4.894,4.8506,4.8057,4.7623,4.7399,4.7309,0.0,0.0,0.0,4.7309,0.0,0.0,4.7309,0.0,0.0,0.0,0.0,0.0,0.0,0.0,0.0,0.0,0.0,0.0,0.0,0.0,0.0,0.0,0.0,0.0,0.0,0.0,0.0,0.0,0.0,4.7309,4.7309,4.7309,4.7309,4.7309,4.7309,4.7309,4.7309,4.7309,4.7309,4.7309,4.7309,4.7309,4.7309,4.7309,4.7309,4.7309,4.7309,4.7309,4.7309,4.7309,4.7309,4.7309,4.7309,4.7309,4.7309,4.7309,4.7309,4.7309,4.7309,4.7309,4.7414,4.8057,4.8282,4.8551,4.9777,5.0196,5.036,5.1035,5.1214,5.1214,5.1214,5.1214,5.1214,5.1214,5.1214,5.1214,5.1214,5.1214,5.1214,5.1214,5.1214,5.1214,5.1214,5.1214,5.1214,5.1214,5.1214,5.1214,5.1214,5.1214,5.1214,5.1214,5.1214,5.1214,5.1214,5.1214,5.1214,5.1214,5.1214,5.1214,5.1214,5.1214,5.1214,5.1214,5.1214,5.09,5.0226,4.897,4.8327,4.8267,4.7608,4.7309,4.7309,0.0,0.0,0.0,0.0,0.0,0.0,0.0,0.0,0.0,0.0,0.0,0.0,0.0,0.0,0.0,0.0,0.0,0.0,0.0,0.0,0.0,0.0,0.0,0.0,0.0,0.0,0.0,4.7309,4.7309,4.7309,4.7309,4.7309,4.7309,4.7309,4.7309,4.7309,4.7309,4.7309,4.7309,4.7309,4.7309,4.7309,4.7309,4.7309,4.7309,4.7309,4.7309,4.7309,4.7309,4.7309,4.7309,4.7309,4.7309,4.7309,4.7309,4.7309,4.7309,4.7309,4.7309,4.7339,4.7519,4.8222,4.9105,4.9419,5.0197,5.0943,5.1169,5.1214,5.1214,5.1214,5.1214,5.1214,5.1214,5.1214,5.1214,5.1214,5.1214,5.1214,5.1214,5.1214,5.1214,5.1214,5.1214,5.1214,5.1214,5.1214,5.1214,5.1214,5.1214,5.1214,5.1214,5.1214,5.1214,5.1214,5.1214,5.1214,5.1214,5.1214,5.1214,5.1214,5.1214,5.1214,5.1214,5.1214,5.1124,5.0898,5.0061,4.9209,4.8267,4.7608,4.7309,4.7309,4.7309,0.0,0.0,0.0,0.0,4.7309,4.7309,0.0,0.0,0.0,0.0,0.0,0.0,0.0,0.0,0.0,0.0,0.0,0.0,0.0,0.0,0.0,0.0,0.0,0.0,0.0,4.7309,4.7309,4.7309,4.7309,4.7309,4.7309,4.7309,4.7309,4.7309,4.7309,4.7309,4.7309,4.7309,4.7309,4.7309,4.7309,4.7309,4.7309,4.7309,4.7309,4.7309,4.7309,4.7309,4.7309,4.7309,4.7309,4.7309,4.7309,4.7309,4.7309,4.7309,4.7309,4.7309,4.7354,4.7623,4.8237,4.9,4.9508,5.0197,5.0823,5.1139,5.1214,5.1214,5.1214,5.1214,5.1214,5.1214,5.1214,5.1214,5.1214,5.1214,5.1214,5.1214,5.1214,5.1214,5.1214,5.1214,5.1214,5.1214,5.1214,5.1214,5.1214,5.1214,5.1214,5.1214,5.1214,5.1214,5.1214,5.1214,5.1214,5.1214,5.1214,5.1214,5.1214,5.1214,5.1214,5.1214,5.1214,5.1214,5.1214,5.051,4.9568,4.8282,4.7893,4.7563,4.7309,4.7309,4.7309,0.0,0.0,0.0,4.7309,4.7309,4.7309,0.0,0.0,0.0,0.0,0.0,0.0,0.0,0.0,0.0,0.0,0.0,0.0,0.0,0.0,0.0,0.0,4.7309,4.7309,4.7309,4.7309,4.7309,4.7309,4.7309,4.7309,4.7309,4.7309,4.7309,4.7309,4.7309,4.7309,4.7309,4.7309,4.7309,4.7309,4.7309,4.7309,4.7309,4.7309,4.7309,4.7309,4.7309,4.7309,4.7309,4.7309,4.7309,4.7309,4.7309,4.7309,4.7309,4.7399,4.7414,4.7519,4.8177,4.8446,4.8716,4.9793,5.0181,5.042,5.1003,5.1214,5.1214,5.1214,5.1214,5.1214,5.1214,5.1214,5.1214,5.1214,5.1214,5.1214,5.1214,5.1214,5.1214,5.1214,5.1214,5.1214,5.1214,5.1214,5.1214,5.1214,5.1214,5.1214,5.1214,5.1214,5.1214,5.1214,5.1214,5.1214,5.1214,5.1214,5.1214,5.1214,5.1214,5.1214,5.1214,5.1214,5.1214,5.1214,5.051,4.9643,4.8506,4.8431,4.8042,0.0,0.0,0.0,0.0,0.0,0.0,4.7309,4.7309,4.7309,0.0,0.0,0.0,0.0,0.0,0.0,0.0,0.0,0.0,0.0,0.0,0.0,0.0,0.0,0.0,0.0,4.7309,4.7309,4.7309,4.7309,4.7309,4.7309,4.7309,4.7309,4.7309,4.7309,4.7309,4.7309,4.7309,4.7309,4.7309,4.7309,4.7309,4.7309,4.7309,4.7309,4.7309,4.7309,4.7309,4.7309,4.7309,4.7309,4.7309,4.7309,4.7309,4.7309,4.7309,4.7309,4.7384,4.7908,4.8087,4.8207,4.891,4.9434,4.9808,4.9538,5.0197,5.1003,5.1184,5.1214,5.1214,5.1214,5.1214,5.1214,5.1214,5.1214,5.1214,5.1214,5.1214,5.1214,5.1214,5.1214,5.1214,5.1214,5.1214,5.1214,5.1214,5.1214,5.1214,5.1214,5.1214,5.1214,5.1214,5.1214,5.1214,5.1214,5.1214,5.1214,5.1214,5.1214,5.1214,5.1214,5.1214,5.1214,5.1214,5.1214,5.1214,5.1214,5.051,5.0061,4.9807,4.9314,4.8775,0.0,0.0,0.0,4.7309,0.0,0.0,0.0,4.7309,4.7309,0.0,0.0,0.0,0.0,0.0,0.0,0.0,0.0,0.0,0.0,0.0,0.0,0.0,0.0,0.0,0.0,4.7309,4.7309,4.7309,4.7309,4.7309,4.7309,4.7309,4.7309,4.7309,4.7309,4.7309,4.7309,4.7309,4.7309,4.7309,4.7309,4.7309,4.7309,4.7309,4.7309,4.7309,4.7309,4.7309,4.7309,4.7309,4.7309,4.7309,4.7309,4.7309,4.7309,4.7309,4.7309,4.7354,4.7683,4.8012,4.8401,4.9105,4.9703,5.0196,5.0242,5.069,5.1214,5.1214,5.1214,5.1214,5.1214,5.1214,5.1214,5.1214,5.1214,5.1214,5.1214,5.1214,5.1214,5.1214,5.1214,5.1214,5.1214,5.1214,5.1214,5.1214,5.1214,5.1214,5.1214,5.1214,5.1214,5.1214,5.1214,5.1214,5.1214,5.1214,5.1214,5.1214,5.1214,5.1214,5.1214,5.1214,5.1214,5.1214,5.1214,5.1214,5.1214,5.0838,5.051,5.0181,4.9898,4.9404,0.0,0.0,0.0,0.0,0.0,4.7309,0.0,0.0,0.0,0.0,0.0,0.0,0.0,0.0,0.0,0.0,0.0,0.0,0.0,0.0,0.0,0.0,0.0,0.0,0.0,4.7414,4.7444,4.7309,4.7429,4.7444,4.7309,4.7309,4.7309,4.7309,4.7309,4.7309,4.7309,4.7309,4.7309,4.7309,4.7309,4.7309,4.7309,4.7309,4.7309,4.7309,4.7309,4.7309,4.7309,4.7309,4.7309,4.7309,4.7309,4.7309,4.7309,4.7309,4.7309,4.7324,4.7459,4.7923,4.8581,4.9239,4.9808,5.0315,5.102,5.1124,5.1003,5.1184,5.1214,5.1214,5.1214,5.1214,5.1214,5.1214,5.1214,5.1214,5.1214,5.1214,5.1214,5.1214,5.1214,5.1214,5.1214,5.1214,5.1214,5.1214,5.1214,5.1214,5.1214,5.1214,5.1214,5.1214,5.1214,5.1214,5.1214,5.1214,5.1214,5.1214,5.1214,5.1214,5.1214,5.1261,5.1261,5.1214,5.1323,5.1308,5.1214,5.1308,5.1038,5.0375,5.0436,5.0123,0.0,0.0,0.0,0.0,4.7309,0.0,0.0,0.0,0.0,0.0,0.0,0.0,0.0,0.0,0.0,0.0,0.0,0.0,0.0,0.0,0.0,0.0,0.0,0.0,0.0,0.0,4.7938,4.7354,4.7848,4.7923,4.7339,4.7309,4.7309,4.7309,4.7309,4.7309,4.7309,4.7309,4.7309,4.7309,4.7309,4.7309,4.7309,4.7309,4.7309,4.7309,4.7309,4.7309,4.7309,4.7309,4.7309,4.7309,4.7309,4.7309,4.7309,4.7309,4.7309,4.7384,4.7967,4.8655,4.9314,4.9912,5.0121,5.0315,5.102,5.0764,5.042,5.1003,5.1214,5.1214,5.1214,5.1214,5.1214,5.1214,5.1214,5.1214,5.1214,5.1214,5.1214,5.1214,5.1214,5.1214,5.1214,5.1214,5.1214,5.1214,5.1214,5.1214,5.1214,5.1214,5.1214,5.1214,5.1214,5.1214,5.1214,5.1214,5.1214,5.1214,5.1214,5.1214,5.1214,5.1448,5.1448,5.1214,5.1649,5.1664,5.1214,5.1664,5.1618,5.1109,5.1328,5.1074,0.0,0.0,0.0,0.0,0.0,0.0,0.0,0.0,4.7309,0.0,0.0,0.0,0.0,0.0,0.0,0.0,0.0,0.0,0.0,0.0,0.0,0.0,0.0,0.0,0.0,0.0,0.0,0.0,0.0,4.7997,4.7339,4.7309,4.7309,4.7309,4.7309,4.7309,4.7309,4.7309,4.7309,4.7309,4.7309,4.7309,4.7309,4.7309,4.7309,4.7309,4.7309,4.7309,4.7309,4.7309,4.7309,4.7309,4.7309,4.7309,4.7309,4.7309,4.7309,4.7339,4.7623,4.8401,4.9479,5.0481,5.0764,5.0808,5.1124,5.102,5.0823,5.1139,5.1214,5.1214,5.1214,5.1214,5.1214,5.1214,5.1214,5.1214,5.1214,5.1214,5.1214,5.1214,5.1214,5.1214,5.1214,5.1214,5.1214,5.1214,5.1214,5.1214,5.1214,5.1214,5.1214,5.1214,5.1214,5.1214,5.1214,5.1214,5.1214,5.1214,5.1214,5.1214,5.1214,5.1308,5.1308,5.1214,5.1541,5.1649,5.1448,5.1787,5.1895,5.1649,5.1787,5.1682,4.7309,0.0,0.0,0.0,0.0,0.0,0.0,0.0,0.0,0.0,0.0,0.0,0.0,0.0,0.0,0.0,0.0,0.0,0.0,0.0,0.0,0.0,0.0,0.0,0.0,0.0,0.0,0.0,0.0,0.0,4.7354,4.7309,4.7309,4.7309,4.7309,4.7309,4.7309,4.7309,4.7309,4.7309,4.7309,4.7309,4.7309,4.7309,4.7309,4.7309,4.7309,4.7309,4.7309,4.7309,4.7309,4.7309,4.7309,4.7309,4.7309,4.7309,4.7414,4.7549,4.7369,4.8057,4.9254,5.0526,5.0945,5.0943,5.1122,5.1214,5.1214,5.1214,5.1214,5.1214,5.1308,5.1261,5.1214,5.1308,5.1261,5.1214,5.1214,5.1214,5.1214,5.1214,5.1214,5.1214,5.1214,5.1214,5.1214,5.1214,5.1214,5.1214,5.1214,5.1214,5.1214,5.1214,5.1214,5.1214,5.1214,5.1214,5.1214,5.1214,5.1214,5.1214,5.1214,5.1261,5.1308,5.1308,5.1634,5.1772,5.1726,5.2033,5.217,5.2063,5.2063,5.2063,0.0,0.0,0.0,4.7309,0.0,0.0,0.0,0.0,4.7309,0.0,0.0,0.0,0.0,0.0,0.0,0.0,0.0,0.0,0.0,0.0,0.0,0.0,0.0,0.0,0.0,0.0,0.0,0.0,0.0,0.0,4.7369,4.7309,4.7309,4.7309,4.7309,4.7309,4.7309,4.7309,4.7309,4.7309,4.7309,4.7309,4.7309,4.7309,4.7309,4.7309,4.7309,4.7309,4.7309,4.7309,4.7309,4.7309,4.7309,4.7309,4.7309,4.7309,4.7713,4.8162,4.7534,4.7743,4.8536,4.9807,5.0226,5.0345,5.102,5.1214,5.1214,5.1214,5.1214,5.1261,5.1541,5.1401,5.1261,5.1541,5.1401,5.1214,5.1214,5.1214,5.1214,5.1214,5.1214,5.1214,5.1214,5.1214,5.1214,5.1214,5.1214,5.1214,5.1214,5.1214,5.1214,5.1214,5.1214,5.1214,5.1214,5.1214,5.1214,5.1214,5.1214,5.1214,5.1214,5.1448,5.1587,5.1587,5.2033,5.2185,5.2002,5.2443,5.2563,5.2306,5.2306,5.2306,0.0,0.0,4.7309,4.7309,0.0,0.0,0.0,0.0,0.0,0.0,0.0,0.0,0.0,0.0,0.0,0.0,0.0,0.0,0.0,0.0,0.0,0.0,0.0,0.0,0.0,0.0,0.0,0.0,0.0,0.0,0.0,4.7309,4.7309,4.7309,4.7309,4.7309,4.7309,4.7309,4.7309,4.7309,4.7309,4.7309,4.7309,4.7309,4.7309,4.7309,4.7309,4.7309,4.7309,4.7309,4.7309,4.7309,4.7309,4.7309,4.7309,4.7309,4.7713,4.8312,4.8536,4.8745,4.9045,4.9449,4.9883,5.0287,5.068,5.1102,5.1494,5.1695,5.1756,5.1756,5.1834,5.1803,5.1756,5.1834,5.1649,5.1448,5.1448,5.1308,5.1214,5.1214,5.1214,5.1214,5.1214,5.1214,5.1214,5.1214,5.1214,5.1214,5.1214,5.1214,5.1214,5.1214,5.1214,5.1214,5.1214,5.1214,5.1214,5.1214,5.1214,5.1214,5.1214,5.1308,5.1401,5.1587,5.1926,5.2155,5.2185,5.2533,5.2669,5.2563,5.2563,5.2563,4.7309,4.7309,0.0,4.7309,4.7309,0.0,4.7593,0.0,0.0,0.0,0.0,0.0,0.0,0.0,0.0,0.0,0.0,0.0,0.0,4.7309,0.0,0.0,0.0,0.0,0.0,0.0,0.0,0.0,0.0,0.0,0.0,0.0,4.7309,4.7309,4.7309,4.7309,4.7309,4.7309,4.7309,4.7309,4.7309,4.7309,4.7309,4.7309,4.7309,4.7309,4.7309,4.7309,4.7309,4.7309,4.7309,4.7309,4.7309,4.7309,4.7309,4.7309,4.7713,4.8461,4.9434,4.9599,4.9479,4.9824,5.0186,5.0562,5.0985,5.1394,5.1833,5.2229,5.2184,5.2047,5.2367,5.2246,5.2033,5.2063,5.1926,5.1741,5.1634,5.1448,5.1308,5.1214,5.1214,5.1214,5.1214,5.1214,5.1214,5.1214,5.1214,5.1214,5.1214,5.1214,5.1214,5.1214,5.1214,5.1214,5.1214,5.1214,5.1214,5.1214,5.1214,5.1214,5.1354,5.1354,5.1494,5.1849,5.2002,5.2246,5.2457,5.2608,5.2713,5.2713,5.2713,5.2713]}]]